<?xml version="1.0" encoding="UTF-8"?>
<gpx xmlns="http://www.topografix.com/GPX/1/1" xmlns:xsi="http://www.w3.org/2001/XMLSchema-instance" version="1.1" xsi:schemaLocation="http://www.topografix.com/GPX/1/1 http://www.topografix.com/GPX/1/1/gpx.xsd">
  <metadata>
    <name>Aquabike World Championships 2023 Ibiza</name>
  </metadata>
  <trk>
    <name>Aquabike World Championships 2023 Ibiza</name>
    <trkseg>
      <trkpt lat="38.904722" lon="1.422352">
        <ele>7.36779</ele>
        <time>2023-05-07T09:00:00.000Z</time>
      </trkpt>
      <trkpt lat="38.90452" lon="1.421235">
        <ele>7.367787</ele>
        <time>2023-05-07T09:00:10.000Z</time>
      </trkpt>
      <trkpt lat="38.904982" lon="1.42107">
        <ele>8.390372</ele>
        <time>2023-05-07T09:00:15.000Z</time>
      </trkpt>
      <trkpt lat="38.905471" lon="1.420905">
        <ele>9.442773</ele>
        <time>2023-05-07T09:00:21.000Z</time>
      </trkpt>
      <trkpt lat="38.905935" lon="1.420762">
        <ele>10.480859</ele>
        <time>2023-05-07T09:00:26.000Z</time>
      </trkpt>
      <trkpt lat="38.906218" lon="1.420677">
        <ele>11.081691</ele>
        <time>2023-05-07T09:00:29.000Z</time>
      </trkpt>
      <trkpt lat="38.906224" lon="1.420675">
        <ele>11.088069</ele>
        <time>2023-05-07T09:00:29.000Z</time>
      </trkpt>
      <trkpt lat="38.906224" lon="1.42067">
        <ele>11.088076</ele>
        <time>2023-05-07T09:00:29.000Z</time>
      </trkpt>
      <trkpt lat="38.90622" lon="1.420672">
        <ele>11.088074</ele>
        <time>2023-05-07T09:00:29.000Z</time>
      </trkpt>
      <trkpt lat="38.906247" lon="1.420495">
        <ele>11.153066</ele>
        <time>2023-05-07T09:00:31.000Z</time>
      </trkpt>
      <trkpt lat="38.906246" lon="1.420493">
        <ele>11.153075</ele>
        <time>2023-05-07T09:00:31.000Z</time>
      </trkpt>
      <trkpt lat="38.906258" lon="1.420498">
        <ele>11.153062</ele>
        <time>2023-05-07T09:00:31.000Z</time>
      </trkpt>
      <trkpt lat="38.906257" lon="1.42027">
        <ele>11.089992</ele>
        <time>2023-05-07T09:00:33.000Z</time>
      </trkpt>
      <trkpt lat="38.906253" lon="1.420259">
        <ele>11.090002</ele>
        <time>2023-05-07T09:00:33.000Z</time>
      </trkpt>
      <trkpt lat="38.906265" lon="1.420273">
        <ele>11.090004</ele>
        <time>2023-05-07T09:00:33.000Z</time>
      </trkpt>
      <trkpt lat="38.906374" lon="1.420131">
        <ele>11.035133</ele>
        <time>2023-05-07T09:00:35.000Z</time>
      </trkpt>
      <trkpt lat="38.906364" lon="1.420119">
        <ele>11.035136</ele>
        <time>2023-05-07T09:00:35.000Z</time>
      </trkpt>
      <trkpt lat="38.90638" lon="1.420123">
        <ele>11.035134</ele>
        <time>2023-05-07T09:00:35.000Z</time>
      </trkpt>
      <trkpt lat="38.906549" lon="1.420093">
        <ele>10.97146</ele>
        <time>2023-05-07T09:00:37.000Z</time>
      </trkpt>
      <trkpt lat="38.90655" lon="1.420099">
        <ele>10.971448</ele>
        <time>2023-05-07T09:00:37.000Z</time>
      </trkpt>
      <trkpt lat="38.906554" lon="1.420099">
        <ele>10.97145</ele>
        <time>2023-05-07T09:00:37.000Z</time>
      </trkpt>
      <trkpt lat="38.906699" lon="1.420208">
        <ele>10.909</ele>
        <time>2023-05-07T09:00:39.000Z</time>
      </trkpt>
      <trkpt lat="38.906706" lon="1.420206">
        <ele>10.908999</ele>
        <time>2023-05-07T09:00:39.000Z</time>
      </trkpt>
      <trkpt lat="38.906696" lon="1.42021">
        <ele>10.909005</ele>
        <time>2023-05-07T09:00:39.000Z</time>
      </trkpt>
      <trkpt lat="38.906815" lon="1.420495">
        <ele>10.825139</ele>
        <time>2023-05-07T09:00:42.000Z</time>
      </trkpt>
      <trkpt lat="38.906814" lon="1.420484">
        <ele>10.825126</ele>
        <time>2023-05-07T09:00:42.000Z</time>
      </trkpt>
      <trkpt lat="38.906917" lon="1.420688">
        <ele>10.755668</ele>
        <time>2023-05-07T09:00:44.000Z</time>
      </trkpt>
      <trkpt lat="38.906924" lon="1.420687">
        <ele>10.755673</ele>
        <time>2023-05-07T09:00:44.000Z</time>
      </trkpt>
      <trkpt lat="38.906915" lon="1.420688">
        <ele>10.755674</ele>
        <time>2023-05-07T09:00:44.000Z</time>
      </trkpt>
      <trkpt lat="38.907034" lon="1.420822">
        <ele>10.703255</ele>
        <time>2023-05-07T09:00:46.000Z</time>
      </trkpt>
      <trkpt lat="38.907039" lon="1.420804">
        <ele>10.703253</ele>
        <time>2023-05-07T09:00:46.000Z</time>
      </trkpt>
      <trkpt lat="38.90704" lon="1.420813">
        <ele>10.703255</ele>
        <time>2023-05-07T09:00:46.000Z</time>
      </trkpt>
      <trkpt lat="38.907874" lon="1.421258">
        <ele>10.126638</ele>
        <time>2023-05-07T09:00:56.000Z</time>
      </trkpt>
      <trkpt lat="38.908691" lon="1.421694">
        <ele>9.308783</ele>
        <time>2023-05-07T09:01:06.000Z</time>
      </trkpt>
      <trkpt lat="38.909516" lon="1.422137">
        <ele>8.449654</ele>
        <time>2023-05-07T09:01:16.000Z</time>
      </trkpt>
      <trkpt lat="38.910354" lon="1.422572">
        <ele>7.550586</ele>
        <time>2023-05-07T09:01:26.000Z</time>
      </trkpt>
      <trkpt lat="38.91119" lon="1.422998">
        <ele>6.683069</ele>
        <time>2023-05-07T09:01:36.000Z</time>
      </trkpt>
      <trkpt lat="38.912014" lon="1.423442">
        <ele>5.848386</ele>
        <time>2023-05-07T09:01:46.000Z</time>
      </trkpt>
      <trkpt lat="38.912832" lon="1.423883">
        <ele>5.176551</ele>
        <time>2023-05-07T09:01:56.000Z</time>
      </trkpt>
      <trkpt lat="38.912846" lon="1.423888">
        <ele>5.176536</ele>
        <time>2023-05-07T09:01:56.000Z</time>
      </trkpt>
      <trkpt lat="38.912849" lon="1.423884">
        <ele>5.176552</ele>
        <time>2023-05-07T09:01:56.000Z</time>
      </trkpt>
      <trkpt lat="38.913167" lon="1.423886">
        <ele>4.991257</ele>
        <time>2023-05-07T09:02:00.000Z</time>
      </trkpt>
      <trkpt lat="38.913165" lon="1.423886">
        <ele>4.99126</ele>
        <time>2023-05-07T09:02:00.000Z</time>
      </trkpt>
      <trkpt lat="38.913357" lon="1.423903">
        <ele>4.880028</ele>
        <time>2023-05-07T09:02:02.000Z</time>
      </trkpt>
      <trkpt lat="38.913362" lon="1.423912">
        <ele>4.880031</ele>
        <time>2023-05-07T09:02:02.000Z</time>
      </trkpt>
      <trkpt lat="38.913507" lon="1.424076">
        <ele>4.77214</ele>
        <time>2023-05-07T09:02:04.000Z</time>
      </trkpt>
      <trkpt lat="38.913498" lon="1.424074">
        <ele>4.772135</ele>
        <time>2023-05-07T09:02:04.000Z</time>
      </trkpt>
      <trkpt lat="38.913606" lon="1.424322">
        <ele>4.641422</ele>
        <time>2023-05-07T09:02:06.000Z</time>
      </trkpt>
      <trkpt lat="38.913621" lon="1.424323">
        <ele>4.641431</ele>
        <time>2023-05-07T09:02:06.000Z</time>
      </trkpt>
      <trkpt lat="38.913616" lon="1.424331">
        <ele>4.641421</ele>
        <time>2023-05-07T09:02:06.000Z</time>
      </trkpt>
      <trkpt lat="38.913745" lon="1.424526">
        <ele>4.526206</ele>
        <time>2023-05-07T09:02:08.000Z</time>
      </trkpt>
      <trkpt lat="38.913744" lon="1.424523">
        <ele>4.526194</ele>
        <time>2023-05-07T09:02:08.000Z</time>
      </trkpt>
      <trkpt lat="38.913747" lon="1.424525">
        <ele>4.526202</ele>
        <time>2023-05-07T09:02:08.000Z</time>
      </trkpt>
      <trkpt lat="38.914057" lon="1.424867">
        <ele>4.29687</ele>
        <time>2023-05-07T09:02:13.000Z</time>
      </trkpt>
      <trkpt lat="38.914069" lon="1.424867">
        <ele>4.296862</ele>
        <time>2023-05-07T09:02:13.000Z</time>
      </trkpt>
      <trkpt lat="38.914056" lon="1.424873">
        <ele>4.296867</ele>
        <time>2023-05-07T09:02:13.000Z</time>
      </trkpt>
      <trkpt lat="38.914487" lon="1.425396">
        <ele>3.983332</ele>
        <time>2023-05-07T09:02:20.000Z</time>
      </trkpt>
      <trkpt lat="38.914496" lon="1.425393">
        <ele>3.983336</ele>
        <time>2023-05-07T09:02:20.000Z</time>
      </trkpt>
      <trkpt lat="38.914862" lon="1.425944">
        <ele>3.687527</ele>
        <time>2023-05-07T09:02:26.000Z</time>
      </trkpt>
      <trkpt lat="38.914856" lon="1.425938">
        <ele>3.687524</ele>
        <time>2023-05-07T09:02:26.000Z</time>
      </trkpt>
      <trkpt lat="38.915244" lon="1.426641">
        <ele>3.602407</ele>
        <time>2023-05-07T09:02:33.000Z</time>
      </trkpt>
      <trkpt lat="38.915256" lon="1.426635">
        <ele>3.602408</ele>
        <time>2023-05-07T09:02:33.000Z</time>
      </trkpt>
      <trkpt lat="38.915243" lon="1.426632">
        <ele>3.602396</ele>
        <time>2023-05-07T09:02:33.000Z</time>
      </trkpt>
      <trkpt lat="38.915615" lon="1.427403">
        <ele>4.036757</ele>
        <time>2023-05-07T09:02:41.000Z</time>
      </trkpt>
      <trkpt lat="38.915627" lon="1.427387">
        <ele>4.036752</ele>
        <time>2023-05-07T09:02:41.000Z</time>
      </trkpt>
      <trkpt lat="38.915613" lon="1.427393">
        <ele>4.036752</ele>
        <time>2023-05-07T09:02:41.000Z</time>
      </trkpt>
      <trkpt lat="38.915749" lon="1.427647">
        <ele>4.185828</ele>
        <time>2023-05-07T09:02:44.000Z</time>
      </trkpt>
      <trkpt lat="38.915742" lon="1.427655">
        <ele>4.185839</ele>
        <time>2023-05-07T09:02:44.000Z</time>
      </trkpt>
      <trkpt lat="38.915745" lon="1.427643">
        <ele>4.185839</ele>
        <time>2023-05-07T09:02:44.000Z</time>
      </trkpt>
      <trkpt lat="38.915938" lon="1.427839">
        <ele>4.332882</ele>
        <time>2023-05-07T09:02:47.000Z</time>
      </trkpt>
      <trkpt lat="38.915947" lon="1.427828">
        <ele>4.332866</ele>
        <time>2023-05-07T09:02:47.000Z</time>
      </trkpt>
      <trkpt lat="38.915942" lon="1.427834">
        <ele>4.332873</ele>
        <time>2023-05-07T09:02:47.000Z</time>
      </trkpt>
      <trkpt lat="38.916127" lon="1.427863">
        <ele>4.450382</ele>
        <time>2023-05-07T09:02:49.000Z</time>
      </trkpt>
      <trkpt lat="38.916126" lon="1.427865">
        <ele>4.450381</ele>
        <time>2023-05-07T09:02:49.000Z</time>
      </trkpt>
      <trkpt lat="38.916123" lon="1.427871">
        <ele>4.450376</ele>
        <time>2023-05-07T09:02:49.000Z</time>
      </trkpt>
      <trkpt lat="38.916368" lon="1.427766">
        <ele>4.700639</ele>
        <time>2023-05-07T09:02:52.000Z</time>
      </trkpt>
      <trkpt lat="38.916373" lon="1.427761">
        <ele>4.700638</ele>
        <time>2023-05-07T09:02:52.000Z</time>
      </trkpt>
      <trkpt lat="38.916367" lon="1.427768">
        <ele>4.700647</ele>
        <time>2023-05-07T09:02:52.000Z</time>
      </trkpt>
      <trkpt lat="38.917024" lon="1.427369">
        <ele>6.678828</ele>
        <time>2023-05-07T09:03:00.000Z</time>
      </trkpt>
      <trkpt lat="38.917698" lon="1.426967">
        <ele>8.657903</ele>
        <time>2023-05-07T09:03:08.000Z</time>
      </trkpt>
      <trkpt lat="38.918361" lon="1.426566">
        <ele>10.720442</ele>
        <time>2023-05-07T09:03:16.000Z</time>
      </trkpt>
      <trkpt lat="38.919028" lon="1.426167">
        <ele>12.83872</ele>
        <time>2023-05-07T09:03:24.000Z</time>
      </trkpt>
      <trkpt lat="38.919688" lon="1.425768">
        <ele>14.87992</ele>
        <time>2023-05-07T09:03:32.000Z</time>
      </trkpt>
      <trkpt lat="38.919686" lon="1.425775">
        <ele>14.879909</ele>
        <time>2023-05-07T09:03:32.000Z</time>
      </trkpt>
      <trkpt lat="38.919807" lon="1.42565">
        <ele>15.217219</ele>
        <time>2023-05-07T09:03:34.000Z</time>
      </trkpt>
      <trkpt lat="38.919799" lon="1.425644">
        <ele>15.21721</ele>
        <time>2023-05-07T09:03:34.000Z</time>
      </trkpt>
      <trkpt lat="38.919806" lon="1.425635">
        <ele>15.217223</ele>
        <time>2023-05-07T09:03:34.000Z</time>
      </trkpt>
      <trkpt lat="38.919976" lon="1.425308">
        <ele>15.926042</ele>
        <time>2023-05-07T09:03:37.000Z</time>
      </trkpt>
      <trkpt lat="38.919973" lon="1.425308">
        <ele>15.926042</ele>
        <time>2023-05-07T09:03:37.000Z</time>
      </trkpt>
      <trkpt lat="38.919971" lon="1.425306">
        <ele>15.926042</ele>
        <time>2023-05-07T09:03:37.000Z</time>
      </trkpt>
      <trkpt lat="38.92015" lon="1.425219">
        <ele>16.339797</ele>
        <time>2023-05-07T09:03:39.000Z</time>
      </trkpt>
      <trkpt lat="38.920147" lon="1.42523">
        <ele>16.339792</ele>
        <time>2023-05-07T09:03:39.000Z</time>
      </trkpt>
      <trkpt lat="38.920146" lon="1.425222">
        <ele>16.339796</ele>
        <time>2023-05-07T09:03:39.000Z</time>
      </trkpt>
      <trkpt lat="38.920277" lon="1.425272">
        <ele>16.661188</ele>
        <time>2023-05-07T09:03:41.000Z</time>
      </trkpt>
      <trkpt lat="38.920293" lon="1.425285">
        <ele>16.66119</ele>
        <time>2023-05-07T09:03:41.000Z</time>
      </trkpt>
      <trkpt lat="38.920282" lon="1.42528">
        <ele>16.661202</ele>
        <time>2023-05-07T09:03:41.000Z</time>
      </trkpt>
      <trkpt lat="38.920673" lon="1.425203">
        <ele>17.56065</ele>
        <time>2023-05-07T09:03:45.000Z</time>
      </trkpt>
      <trkpt lat="38.920673" lon="1.425208">
        <ele>17.560655</ele>
        <time>2023-05-07T09:03:45.000Z</time>
      </trkpt>
      <trkpt lat="38.921468" lon="1.424726">
        <ele>19.337821</ele>
        <time>2023-05-07T09:03:55.000Z</time>
      </trkpt>
      <trkpt lat="38.922267" lon="1.424249">
        <ele>20.839326</ele>
        <time>2023-05-07T09:04:05.000Z</time>
      </trkpt>
      <trkpt lat="38.923073" lon="1.423769">
        <ele>22.297146</ele>
        <time>2023-05-07T09:04:15.000Z</time>
      </trkpt>
      <trkpt lat="38.923866" lon="1.42329">
        <ele>23.692102</ele>
        <time>2023-05-07T09:04:25.000Z</time>
      </trkpt>
      <trkpt lat="38.924656" lon="1.42282">
        <ele>25.062271</ele>
        <time>2023-05-07T09:04:35.000Z</time>
      </trkpt>
      <trkpt lat="38.925462" lon="1.422346">
        <ele>26.384694</ele>
        <time>2023-05-07T09:04:45.000Z</time>
      </trkpt>
      <trkpt lat="38.92625" lon="1.42187">
        <ele>27.683637</ele>
        <time>2023-05-07T09:04:55.000Z</time>
      </trkpt>
      <trkpt lat="38.927047" lon="1.421392">
        <ele>28.930415</ele>
        <time>2023-05-07T09:05:05.000Z</time>
      </trkpt>
      <trkpt lat="38.927842" lon="1.420921">
        <ele>30.153598</ele>
        <time>2023-05-07T09:05:15.000Z</time>
      </trkpt>
      <trkpt lat="38.92785" lon="1.420913">
        <ele>30.153603</ele>
        <time>2023-05-07T09:05:15.000Z</time>
      </trkpt>
      <trkpt lat="38.927995" lon="1.420775">
        <ele>30.39421</ele>
        <time>2023-05-07T09:05:17.000Z</time>
      </trkpt>
      <trkpt lat="38.928002" lon="1.420771">
        <ele>30.394222</ele>
        <time>2023-05-07T09:05:17.000Z</time>
      </trkpt>
      <trkpt lat="38.928151" lon="1.420637">
        <ele>30.654141</ele>
        <time>2023-05-07T09:05:19.000Z</time>
      </trkpt>
      <trkpt lat="38.928164" lon="1.420639">
        <ele>30.654143</ele>
        <time>2023-05-07T09:05:19.000Z</time>
      </trkpt>
      <trkpt lat="38.928222" lon="1.420407">
        <ele>30.896267</ele>
        <time>2023-05-07T09:05:21.000Z</time>
      </trkpt>
      <trkpt lat="38.928224" lon="1.420414">
        <ele>30.896264</ele>
        <time>2023-05-07T09:05:21.000Z</time>
      </trkpt>
      <trkpt lat="38.928228" lon="1.420408">
        <ele>30.896263</ele>
        <time>2023-05-07T09:05:21.000Z</time>
      </trkpt>
      <trkpt lat="38.928312" lon="1.420298">
        <ele>31.066232</ele>
        <time>2023-05-07T09:05:22.000Z</time>
      </trkpt>
      <trkpt lat="38.928322" lon="1.420296">
        <ele>31.066233</ele>
        <time>2023-05-07T09:05:22.000Z</time>
      </trkpt>
      <trkpt lat="38.928325" lon="1.420312">
        <ele>31.066229</ele>
        <time>2023-05-07T09:05:22.000Z</time>
      </trkpt>
      <trkpt lat="38.928483" lon="1.420261">
        <ele>31.280905</ele>
        <time>2023-05-07T09:05:24.000Z</time>
      </trkpt>
      <trkpt lat="38.928474" lon="1.420276">
        <ele>31.28091</ele>
        <time>2023-05-07T09:05:24.000Z</time>
      </trkpt>
      <trkpt lat="38.928471" lon="1.420269">
        <ele>31.280912</ele>
        <time>2023-05-07T09:05:24.000Z</time>
      </trkpt>
      <trkpt lat="38.928573" lon="1.420315">
        <ele>31.414216</ele>
        <time>2023-05-07T09:05:25.000Z</time>
      </trkpt>
      <trkpt lat="38.928573" lon="1.42032">
        <ele>31.414218</ele>
        <time>2023-05-07T09:05:25.000Z</time>
      </trkpt>
      <trkpt lat="38.928566" lon="1.420307">
        <ele>31.414207</ele>
        <time>2023-05-07T09:05:25.000Z</time>
      </trkpt>
      <trkpt lat="38.928606" lon="1.420304">
        <ele>31.461715</ele>
        <time>2023-05-07T09:05:25.000Z</time>
      </trkpt>
      <trkpt lat="38.928765" lon="1.420301">
        <ele>31.664994</ele>
        <time>2023-05-07T09:05:27.000Z</time>
      </trkpt>
      <trkpt lat="38.928759" lon="1.420297">
        <ele>31.665002</ele>
        <time>2023-05-07T09:05:27.000Z</time>
      </trkpt>
      <trkpt lat="38.928926" lon="1.420249">
        <ele>31.887429</ele>
        <time>2023-05-07T09:05:29.000Z</time>
      </trkpt>
      <trkpt lat="38.928936" lon="1.420245">
        <ele>31.887425</ele>
        <time>2023-05-07T09:05:29.000Z</time>
      </trkpt>
      <trkpt lat="38.929112" lon="1.420142">
        <ele>32.145298</ele>
        <time>2023-05-07T09:05:31.000Z</time>
      </trkpt>
      <trkpt lat="38.929108" lon="1.420133">
        <ele>32.14529</ele>
        <time>2023-05-07T09:05:31.000Z</time>
      </trkpt>
      <trkpt lat="38.929108" lon="1.420132">
        <ele>32.145298</ele>
        <time>2023-05-07T09:05:31.000Z</time>
      </trkpt>
      <trkpt lat="38.929717" lon="1.419754">
        <ele>32.938261</ele>
        <time>2023-05-07T09:05:39.000Z</time>
      </trkpt>
      <trkpt lat="38.930326" lon="1.419375">
        <ele>33.719785</ele>
        <time>2023-05-07T09:05:47.000Z</time>
      </trkpt>
      <trkpt lat="38.930926" lon="1.418988">
        <ele>34.505804</ele>
        <time>2023-05-07T09:05:54.000Z</time>
      </trkpt>
      <trkpt lat="38.931532" lon="1.418612">
        <ele>35.302309</ele>
        <time>2023-05-07T09:06:01.000Z</time>
      </trkpt>
      <trkpt lat="38.931546" lon="1.418607">
        <ele>35.302295</ele>
        <time>2023-05-07T09:06:01.000Z</time>
      </trkpt>
      <trkpt lat="38.932334" lon="1.418138">
        <ele>36.327898</ele>
        <time>2023-05-07T09:06:11.000Z</time>
      </trkpt>
      <trkpt lat="38.933117" lon="1.417648">
        <ele>37.345402</ele>
        <time>2023-05-07T09:06:21.000Z</time>
      </trkpt>
      <trkpt lat="38.93391" lon="1.417189">
        <ele>38.362447</ele>
        <time>2023-05-07T09:06:31.000Z</time>
      </trkpt>
      <trkpt lat="38.934695" lon="1.41671">
        <ele>39.187231</ele>
        <time>2023-05-07T09:06:41.000Z</time>
      </trkpt>
      <trkpt lat="38.935494" lon="1.416227">
        <ele>39.9766</ele>
        <time>2023-05-07T09:06:51.000Z</time>
      </trkpt>
      <trkpt lat="38.935484" lon="1.416227">
        <ele>39.976597</ele>
        <time>2023-05-07T09:06:51.000Z</time>
      </trkpt>
      <trkpt lat="38.935491" lon="1.416237">
        <ele>39.976607</ele>
        <time>2023-05-07T09:06:51.000Z</time>
      </trkpt>
      <trkpt lat="38.936222" lon="1.415783">
        <ele>40.522447</ele>
        <time>2023-05-07T09:07:00.000Z</time>
      </trkpt>
      <trkpt lat="38.936959" lon="1.415356">
        <ele>41.008799</ele>
        <time>2023-05-07T09:07:09.000Z</time>
      </trkpt>
      <trkpt lat="38.937701" lon="1.414901">
        <ele>41.478323</ele>
        <time>2023-05-07T09:07:18.000Z</time>
      </trkpt>
      <trkpt lat="38.938435" lon="1.41446">
        <ele>41.933715</ele>
        <time>2023-05-07T09:07:27.000Z</time>
      </trkpt>
      <trkpt lat="38.939179" lon="1.414024">
        <ele>42.410668</ele>
        <time>2023-05-07T09:07:36.000Z</time>
      </trkpt>
      <trkpt lat="38.939913" lon="1.413576">
        <ele>42.927292</ele>
        <time>2023-05-07T09:07:45.000Z</time>
      </trkpt>
      <trkpt lat="38.940668" lon="1.413143">
        <ele>43.482398</ele>
        <time>2023-05-07T09:07:54.000Z</time>
      </trkpt>
      <trkpt lat="38.941396" lon="1.412697">
        <ele>44.268755</ele>
        <time>2023-05-07T09:08:03.000Z</time>
      </trkpt>
      <trkpt lat="38.942129" lon="1.41225">
        <ele>45.055111</ele>
        <time>2023-05-07T09:08:12.000Z</time>
      </trkpt>
      <trkpt lat="38.942132" lon="1.412255">
        <ele>45.055125</ele>
        <time>2023-05-07T09:08:12.000Z</time>
      </trkpt>
      <trkpt lat="38.942133" lon="1.412264">
        <ele>45.055121</ele>
        <time>2023-05-07T09:08:12.000Z</time>
      </trkpt>
      <trkpt lat="38.942293" lon="1.412166">
        <ele>45.313565</ele>
        <time>2023-05-07T09:08:14.000Z</time>
      </trkpt>
      <trkpt lat="38.942293" lon="1.412156">
        <ele>45.313579</ele>
        <time>2023-05-07T09:08:14.000Z</time>
      </trkpt>
      <trkpt lat="38.942306" lon="1.412171">
        <ele>45.313564</ele>
        <time>2023-05-07T09:08:14.000Z</time>
      </trkpt>
      <trkpt lat="38.942613" lon="1.411834">
        <ele>46.002452</ele>
        <time>2023-05-07T09:08:18.000Z</time>
      </trkpt>
      <trkpt lat="38.942613" lon="1.411832">
        <ele>46.002438</ele>
        <time>2023-05-07T09:08:18.000Z</time>
      </trkpt>
      <trkpt lat="38.94273" lon="1.411675">
        <ele>46.28247</ele>
        <time>2023-05-07T09:08:20.000Z</time>
      </trkpt>
      <trkpt lat="38.942718" lon="1.411675">
        <ele>46.282469</ele>
        <time>2023-05-07T09:08:20.000Z</time>
      </trkpt>
      <trkpt lat="38.942846" lon="1.411627">
        <ele>46.502492</ele>
        <time>2023-05-07T09:08:21.000Z</time>
      </trkpt>
      <trkpt lat="38.942846" lon="1.411634">
        <ele>46.502494</ele>
        <time>2023-05-07T09:08:21.000Z</time>
      </trkpt>
      <trkpt lat="38.942843" lon="1.411637">
        <ele>46.502499</ele>
        <time>2023-05-07T09:08:21.000Z</time>
      </trkpt>
      <trkpt lat="38.943041" lon="1.411664">
        <ele>46.842326</ele>
        <time>2023-05-07T09:08:23.000Z</time>
      </trkpt>
      <trkpt lat="38.943039" lon="1.41167">
        <ele>46.842317</ele>
        <time>2023-05-07T09:08:23.000Z</time>
      </trkpt>
      <trkpt lat="38.943037" lon="1.411669">
        <ele>46.84232</ele>
        <time>2023-05-07T09:08:23.000Z</time>
      </trkpt>
      <trkpt lat="38.943331" lon="1.411591">
        <ele>47.321936</ele>
        <time>2023-05-07T09:08:26.000Z</time>
      </trkpt>
      <trkpt lat="38.943325" lon="1.411593">
        <ele>47.321945</ele>
        <time>2023-05-07T09:08:26.000Z</time>
      </trkpt>
      <trkpt lat="38.943321" lon="1.411593">
        <ele>47.32194</ele>
        <time>2023-05-07T09:08:26.000Z</time>
      </trkpt>
      <trkpt lat="38.944058" lon="1.411178">
        <ele>48.861051</ele>
        <time>2023-05-07T09:08:35.000Z</time>
      </trkpt>
      <trkpt lat="38.944805" lon="1.410778">
        <ele>50.680252</ele>
        <time>2023-05-07T09:08:44.000Z</time>
      </trkpt>
      <trkpt lat="38.945538" lon="1.410359">
        <ele>52.523312</ele>
        <time>2023-05-07T09:08:53.000Z</time>
      </trkpt>
      <trkpt lat="38.945533" lon="1.410369">
        <ele>52.52332</ele>
        <time>2023-05-07T09:08:53.000Z</time>
      </trkpt>
      <trkpt lat="38.945528" lon="1.410356">
        <ele>52.532421</ele>
        <time>2023-05-07T09:08:53.000Z</time>
      </trkpt>
      <trkpt lat="38.94621" lon="1.409978">
        <ele>54.340674</ele>
        <time>2023-05-07T09:09:01.000Z</time>
      </trkpt>
      <trkpt lat="38.946868" lon="1.409578">
        <ele>56.148922</ele>
        <time>2023-05-07T09:09:09.000Z</time>
      </trkpt>
      <trkpt lat="38.947535" lon="1.409191">
        <ele>58.067413</ele>
        <time>2023-05-07T09:09:17.000Z</time>
      </trkpt>
      <trkpt lat="38.948208" lon="1.408803">
        <ele>60.028119</ele>
        <time>2023-05-07T09:09:25.000Z</time>
      </trkpt>
      <trkpt lat="38.948889" lon="1.408418">
        <ele>61.998505</ele>
        <time>2023-05-07T09:09:33.000Z</time>
      </trkpt>
      <trkpt lat="38.948873" lon="1.408406">
        <ele>61.998511</ele>
        <time>2023-05-07T09:09:33.000Z</time>
      </trkpt>
      <trkpt lat="38.948884" lon="1.408412">
        <ele>61.998515</ele>
        <time>2023-05-07T09:09:33.000Z</time>
      </trkpt>
      <trkpt lat="38.949399" lon="1.408133">
        <ele>63.504409</ele>
        <time>2023-05-07T09:09:39.000Z</time>
      </trkpt>
      <trkpt lat="38.949387" lon="1.408138">
        <ele>63.504399</ele>
        <time>2023-05-07T09:09:39.000Z</time>
      </trkpt>
      <trkpt lat="38.949605" lon="1.408">
        <ele>64.149966</ele>
        <time>2023-05-07T09:09:42.000Z</time>
      </trkpt>
      <trkpt lat="38.949599" lon="1.408006">
        <ele>64.149963</ele>
        <time>2023-05-07T09:09:42.000Z</time>
      </trkpt>
      <trkpt lat="38.949717" lon="1.407853">
        <ele>64.603424</ele>
        <time>2023-05-07T09:09:44.000Z</time>
      </trkpt>
      <trkpt lat="38.949715" lon="1.40785">
        <ele>64.603432</ele>
        <time>2023-05-07T09:09:44.000Z</time>
      </trkpt>
      <trkpt lat="38.949727" lon="1.407852">
        <ele>64.603426</ele>
        <time>2023-05-07T09:09:44.000Z</time>
      </trkpt>
      <trkpt lat="38.949928" lon="1.40776">
        <ele>65.21127</ele>
        <time>2023-05-07T09:09:46.000Z</time>
      </trkpt>
      <trkpt lat="38.949942" lon="1.407776">
        <ele>65.211264</ele>
        <time>2023-05-07T09:09:46.000Z</time>
      </trkpt>
      <trkpt lat="38.949945" lon="1.407761">
        <ele>65.211263</ele>
        <time>2023-05-07T09:09:46.000Z</time>
      </trkpt>
      <trkpt lat="38.950056" lon="1.407852">
        <ele>65.601731</ele>
        <time>2023-05-07T09:09:47.000Z</time>
      </trkpt>
      <trkpt lat="38.950056" lon="1.407859">
        <ele>65.601732</ele>
        <time>2023-05-07T09:09:47.000Z</time>
      </trkpt>
      <trkpt lat="38.950059" lon="1.407861">
        <ele>65.60174</ele>
        <time>2023-05-07T09:09:47.000Z</time>
      </trkpt>
      <trkpt lat="38.950317" lon="1.407859">
        <ele>66.322288</ele>
        <time>2023-05-07T09:09:50.000Z</time>
      </trkpt>
      <trkpt lat="38.950333" lon="1.407853">
        <ele>66.322285</ele>
        <time>2023-05-07T09:09:50.000Z</time>
      </trkpt>
      <trkpt lat="38.950324" lon="1.40786">
        <ele>66.324399</ele>
        <time>2023-05-07T09:09:50.000Z</time>
      </trkpt>
      <trkpt lat="38.950787" lon="1.407656">
        <ele>67.742087</ele>
        <time>2023-05-07T09:09:55.000Z</time>
      </trkpt>
      <trkpt lat="38.95078" lon="1.407661">
        <ele>67.742083</ele>
        <time>2023-05-07T09:09:55.000Z</time>
      </trkpt>
      <trkpt lat="38.950787" lon="1.407665">
        <ele>67.742094</ele>
        <time>2023-05-07T09:09:55.000Z</time>
      </trkpt>
      <trkpt lat="38.951565" lon="1.407335">
        <ele>70.222268</ele>
        <time>2023-05-07T09:10:04.000Z</time>
      </trkpt>
      <trkpt lat="38.952355" lon="1.407023">
        <ele>73.026428</ele>
        <time>2023-05-07T09:10:13.000Z</time>
      </trkpt>
      <trkpt lat="38.952373" lon="1.407018">
        <ele>73.026412</ele>
        <time>2023-05-07T09:10:13.000Z</time>
      </trkpt>
      <trkpt lat="38.95236" lon="1.407025">
        <ele>73.02642</ele>
        <time>2023-05-07T09:10:13.000Z</time>
      </trkpt>
      <trkpt lat="38.952373" lon="1.407019">
        <ele>73.03258</ele>
        <time>2023-05-07T09:10:13.000Z</time>
      </trkpt>
      <trkpt lat="38.953022" lon="1.406751">
        <ele>75.782547</ele>
        <time>2023-05-07T09:10:21.000Z</time>
      </trkpt>
      <trkpt lat="38.953688" lon="1.406471">
        <ele>78.535328</ele>
        <time>2023-05-07T09:10:29.000Z</time>
      </trkpt>
      <trkpt lat="38.953689" lon="1.406483">
        <ele>78.535328</ele>
        <time>2023-05-07T09:10:29.000Z</time>
      </trkpt>
      <trkpt lat="38.95368" lon="1.406487">
        <ele>78.535321</ele>
        <time>2023-05-07T09:10:29.000Z</time>
      </trkpt>
      <trkpt lat="38.954295" lon="1.406108">
        <ele>82.088478</ele>
        <time>2023-05-07T09:10:37.000Z</time>
      </trkpt>
      <trkpt lat="38.95489" lon="1.405731">
        <ele>85.7663</ele>
        <time>2023-05-07T09:10:44.000Z</time>
      </trkpt>
      <trkpt lat="38.954902" lon="1.405739">
        <ele>85.766302</ele>
        <time>2023-05-07T09:10:44.000Z</time>
      </trkpt>
      <trkpt lat="38.954894" lon="1.405733">
        <ele>85.76629</ele>
        <time>2023-05-07T09:10:44.000Z</time>
      </trkpt>
      <trkpt lat="38.955276" lon="1.405423">
        <ele>88.29324</ele>
        <time>2023-05-07T09:10:49.000Z</time>
      </trkpt>
      <trkpt lat="38.955682" lon="1.405106">
        <ele>90.921792</ele>
        <time>2023-05-07T09:10:54.000Z</time>
      </trkpt>
      <trkpt lat="38.95567" lon="1.405103">
        <ele>90.921786</ele>
        <time>2023-05-07T09:10:54.000Z</time>
      </trkpt>
      <trkpt lat="38.956138" lon="1.404616">
        <ele>94.415769</ele>
        <time>2023-05-07T09:11:01.000Z</time>
      </trkpt>
      <trkpt lat="38.956612" lon="1.404113">
        <ele>97.902441</ele>
        <time>2023-05-07T09:11:08.000Z</time>
      </trkpt>
      <trkpt lat="38.956613" lon="1.404129">
        <ele>97.902432</ele>
        <time>2023-05-07T09:11:08.000Z</time>
      </trkpt>
      <trkpt lat="38.956608" lon="1.404127">
        <ele>97.902445</ele>
        <time>2023-05-07T09:11:08.000Z</time>
      </trkpt>
      <trkpt lat="38.956861" lon="1.403774">
        <ele>99.837521</ele>
        <time>2023-05-07T09:11:12.000Z</time>
      </trkpt>
      <trkpt lat="38.956867" lon="1.403783">
        <ele>99.837519</ele>
        <time>2023-05-07T09:11:12.000Z</time>
      </trkpt>
      <trkpt lat="38.956868" lon="1.403783">
        <ele>99.837536</ele>
        <time>2023-05-07T09:11:12.000Z</time>
      </trkpt>
      <trkpt lat="38.957001" lon="1.40352">
        <ele>100.893664</ele>
        <time>2023-05-07T09:11:15.000Z</time>
      </trkpt>
      <trkpt lat="38.957003" lon="1.403531">
        <ele>100.893672</ele>
        <time>2023-05-07T09:11:15.000Z</time>
      </trkpt>
      <trkpt lat="38.956996" lon="1.40353">
        <ele>100.89366</ele>
        <time>2023-05-07T09:11:15.000Z</time>
      </trkpt>
      <trkpt lat="38.957034" lon="1.403287">
        <ele>101.741721</ele>
        <time>2023-05-07T09:11:17.000Z</time>
      </trkpt>
      <trkpt lat="38.957037" lon="1.403282">
        <ele>101.741711</ele>
        <time>2023-05-07T09:11:17.000Z</time>
      </trkpt>
      <trkpt lat="38.957029" lon="1.403282">
        <ele>101.741714</ele>
        <time>2023-05-07T09:11:17.000Z</time>
      </trkpt>
      <trkpt lat="38.957146" lon="1.403149">
        <ele>102.453989</ele>
        <time>2023-05-07T09:11:19.000Z</time>
      </trkpt>
      <trkpt lat="38.95714" lon="1.403146">
        <ele>102.453979</ele>
        <time>2023-05-07T09:11:19.000Z</time>
      </trkpt>
      <trkpt lat="38.957146" lon="1.403159">
        <ele>102.453993</ele>
        <time>2023-05-07T09:11:19.000Z</time>
      </trkpt>
      <trkpt lat="38.95727" lon="1.403011">
        <ele>103.160183</ele>
        <time>2023-05-07T09:11:21.000Z</time>
      </trkpt>
      <trkpt lat="38.957269" lon="1.403028">
        <ele>103.160184</ele>
        <time>2023-05-07T09:11:21.000Z</time>
      </trkpt>
      <trkpt lat="38.957267" lon="1.403011">
        <ele>103.160182</ele>
        <time>2023-05-07T09:11:21.000Z</time>
      </trkpt>
      <trkpt lat="38.957796" lon="1.402205">
        <ele>106.862796</ele>
        <time>2023-05-07T09:11:30.000Z</time>
      </trkpt>
      <trkpt lat="38.958334" lon="1.401401">
        <ele>110.314139</ele>
        <time>2023-05-07T09:11:39.000Z</time>
      </trkpt>
      <trkpt lat="38.958347" lon="1.401415">
        <ele>110.314139</ele>
        <time>2023-05-07T09:11:39.000Z</time>
      </trkpt>
      <trkpt lat="38.958338" lon="1.401403">
        <ele>110.314142</ele>
        <time>2023-05-07T09:11:39.000Z</time>
      </trkpt>
      <trkpt lat="38.958469" lon="1.40107">
        <ele>111.510711</ele>
        <time>2023-05-07T09:11:42.000Z</time>
      </trkpt>
      <trkpt lat="38.958467" lon="1.401066">
        <ele>111.510704</ele>
        <time>2023-05-07T09:11:42.000Z</time>
      </trkpt>
      <trkpt lat="38.958615" lon="1.400774">
        <ele>112.685525</ele>
        <time>2023-05-07T09:11:45.000Z</time>
      </trkpt>
      <trkpt lat="38.958607" lon="1.400759">
        <ele>112.685522</ele>
        <time>2023-05-07T09:11:45.000Z</time>
      </trkpt>
      <trkpt lat="38.958614" lon="1.400772">
        <ele>112.685522</ele>
        <time>2023-05-07T09:11:45.000Z</time>
      </trkpt>
      <trkpt lat="38.958993" lon="1.400155">
        <ele>115.076116</ele>
        <time>2023-05-07T09:11:52.000Z</time>
      </trkpt>
      <trkpt lat="38.95937" lon="1.399548">
        <ele>117.024742</ele>
        <time>2023-05-07T09:11:59.000Z</time>
      </trkpt>
      <trkpt lat="38.959376" lon="1.39956">
        <ele>117.02474</ele>
        <time>2023-05-07T09:11:59.000Z</time>
      </trkpt>
      <trkpt lat="38.959371" lon="1.39955">
        <ele>117.024747</ele>
        <time>2023-05-07T09:11:59.000Z</time>
      </trkpt>
      <trkpt lat="38.95948" lon="1.399471">
        <ele>117.438102</ele>
        <time>2023-05-07T09:12:00.000Z</time>
      </trkpt>
      <trkpt lat="38.959482" lon="1.399467">
        <ele>117.438087</ele>
        <time>2023-05-07T09:12:00.000Z</time>
      </trkpt>
      <trkpt lat="38.95949" lon="1.399464">
        <ele>117.438091</ele>
        <time>2023-05-07T09:12:00.000Z</time>
      </trkpt>
      <trkpt lat="38.959695" lon="1.399305">
        <ele>118.248032</ele>
        <time>2023-05-07T09:12:03.000Z</time>
      </trkpt>
      <trkpt lat="38.959711" lon="1.399311">
        <ele>118.248033</ele>
        <time>2023-05-07T09:12:03.000Z</time>
      </trkpt>
      <trkpt lat="38.959699" lon="1.399317">
        <ele>118.248018</ele>
        <time>2023-05-07T09:12:03.000Z</time>
      </trkpt>
      <trkpt lat="38.959826" lon="1.399153">
        <ele>118.798283</ele>
        <time>2023-05-07T09:12:05.000Z</time>
      </trkpt>
      <trkpt lat="38.959836" lon="1.399156">
        <ele>118.798286</ele>
        <time>2023-05-07T09:12:05.000Z</time>
      </trkpt>
      <trkpt lat="38.959833" lon="1.399155">
        <ele>118.798281</ele>
        <time>2023-05-07T09:12:05.000Z</time>
      </trkpt>
      <trkpt lat="38.95998" lon="1.398903">
        <ele>119.627119</ele>
        <time>2023-05-07T09:12:08.000Z</time>
      </trkpt>
      <trkpt lat="38.959989" lon="1.398892">
        <ele>119.627132</ele>
        <time>2023-05-07T09:12:08.000Z</time>
      </trkpt>
      <trkpt lat="38.959986" lon="1.398903">
        <ele>119.627119</ele>
        <time>2023-05-07T09:12:08.000Z</time>
      </trkpt>
      <trkpt lat="38.96007" lon="1.398731">
        <ele>120.155922</ele>
        <time>2023-05-07T09:12:10.000Z</time>
      </trkpt>
      <trkpt lat="38.960084" lon="1.398737">
        <ele>120.170012</ele>
        <time>2023-05-07T09:12:10.000Z</time>
      </trkpt>
      <trkpt lat="38.960143" lon="1.398772">
        <ele>120.376431</ele>
        <time>2023-05-07T09:12:11.000Z</time>
      </trkpt>
      <trkpt lat="38.960196" lon="1.398782">
        <ele>120.486656</ele>
        <time>2023-05-07T09:12:12.000Z</time>
      </trkpt>
      <trkpt lat="38.960221" lon="1.398773">
        <ele>120.506807</ele>
        <time>2023-05-07T09:12:12.000Z</time>
      </trkpt>
      <trkpt lat="38.960522" lon="1.39879">
        <ele>120.799971</ele>
        <time>2023-05-07T09:12:15.000Z</time>
      </trkpt>
      <trkpt lat="38.960624" lon="1.398849">
        <ele>120.909726</ele>
        <time>2023-05-07T09:12:16.000Z</time>
      </trkpt>
      <trkpt lat="38.960836" lon="1.398972">
        <ele>121.145074</ele>
        <time>2023-05-07T09:12:19.000Z</time>
      </trkpt>
      <trkpt lat="38.961227" lon="1.399153">
        <ele>121.54899</ele>
        <time>2023-05-07T09:12:24.000Z</time>
      </trkpt>
      <trkpt lat="38.961476" lon="1.399182">
        <ele>121.78655</ele>
        <time>2023-05-07T09:12:27.000Z</time>
      </trkpt>
      <trkpt lat="38.961428" lon="1.39972">
        <ele>122.207133</ele>
        <time>2023-05-07T09:12:32.000Z</time>
      </trkpt>
      <trkpt lat="38.961437" lon="1.400001">
        <ele>121.707148</ele>
        <time>2023-05-07T09:12:34.000Z</time>
      </trkpt>
      <trkpt lat="38.961478" lon="1.400251">
        <ele>121.246765</ele>
        <time>2023-05-07T09:12:36.000Z</time>
      </trkpt>
      <trkpt lat="38.961581" lon="1.400577">
        <ele>120.617782</ele>
        <time>2023-05-07T09:12:39.000Z</time>
      </trkpt>
      <trkpt lat="38.961788" lon="1.400995">
        <ele>119.71666</ele>
        <time>2023-05-07T09:12:43.000Z</time>
      </trkpt>
      <trkpt lat="38.962209" lon="1.401513">
        <ele>118.337558</ele>
        <time>2023-05-07T09:12:49.000Z</time>
      </trkpt>
      <trkpt lat="38.962903" lon="1.402357">
        <ele>118.037437</ele>
        <time>2023-05-07T09:13:00.000Z</time>
      </trkpt>
      <trkpt lat="38.963311" lon="1.402861">
        <ele>118.065976</ele>
        <time>2023-05-07T09:13:06.000Z</time>
      </trkpt>
      <trkpt lat="38.963497" lon="1.403132">
        <ele>118.079643</ele>
        <time>2023-05-07T09:13:09.000Z</time>
      </trkpt>
      <trkpt lat="38.963774" lon="1.403631">
        <ele>120.024615</ele>
        <time>2023-05-07T09:13:14.000Z</time>
      </trkpt>
      <trkpt lat="38.964267" lon="1.404506">
        <ele>124.92949</ele>
        <time>2023-05-07T09:13:23.000Z</time>
      </trkpt>
      <trkpt lat="38.964553" lon="1.404902">
        <ele>127.354812</ele>
        <time>2023-05-07T09:13:28.000Z</time>
      </trkpt>
      <trkpt lat="38.964875" lon="1.405236">
        <ele>129.682326</ele>
        <time>2023-05-07T09:13:33.000Z</time>
      </trkpt>
      <trkpt lat="38.965719" lon="1.405997">
        <ele>134.876771</ele>
        <time>2023-05-07T09:13:44.000Z</time>
      </trkpt>
      <trkpt lat="38.965959" lon="1.406177">
        <ele>136.235136</ele>
        <time>2023-05-07T09:13:47.000Z</time>
      </trkpt>
      <trkpt lat="38.96614" lon="1.406284">
        <ele>137.257771</ele>
        <time>2023-05-07T09:13:49.000Z</time>
      </trkpt>
      <trkpt lat="38.966299" lon="1.406383">
        <ele>137.75108</ele>
        <time>2023-05-07T09:13:51.000Z</time>
      </trkpt>
      <trkpt lat="38.966869" lon="1.406593">
        <ele>138.149726</ele>
        <time>2023-05-07T09:13:58.000Z</time>
      </trkpt>
      <trkpt lat="38.967637" lon="1.406772">
        <ele>138.678122</ele>
        <time>2023-05-07T09:14:07.000Z</time>
      </trkpt>
      <trkpt lat="38.967983" lon="1.40684">
        <ele>138.82045</ele>
        <time>2023-05-07T09:14:11.000Z</time>
      </trkpt>
      <trkpt lat="38.968837" lon="1.406987">
        <ele>136.451236</ele>
        <time>2023-05-07T09:14:21.000Z</time>
      </trkpt>
      <trkpt lat="38.969378" lon="1.406946">
        <ele>134.920651</ele>
        <time>2023-05-07T09:14:27.000Z</time>
      </trkpt>
      <trkpt lat="38.969944" lon="1.406787">
        <ele>132.69015</ele>
        <time>2023-05-07T09:14:33.000Z</time>
      </trkpt>
      <trkpt lat="38.970407" lon="1.406531">
        <ele>129.718454</ele>
        <time>2023-05-07T09:14:39.000Z</time>
      </trkpt>
      <trkpt lat="38.971053" lon="1.406079">
        <ele>125.299655</ele>
        <time>2023-05-07T09:14:47.000Z</time>
      </trkpt>
      <trkpt lat="38.971866" lon="1.4055">
        <ele>120.179639</ele>
        <time>2023-05-07T09:14:57.000Z</time>
      </trkpt>
      <trkpt lat="38.972127" lon="1.405372">
        <ele>118.699191</ele>
        <time>2023-05-07T09:15:00.000Z</time>
      </trkpt>
      <trkpt lat="38.972401" lon="1.405295">
        <ele>117.241931</ele>
        <time>2023-05-07T09:15:03.000Z</time>
      </trkpt>
      <trkpt lat="38.972689" lon="1.405246">
        <ele>115.689922</ele>
        <time>2023-05-07T09:15:06.000Z</time>
      </trkpt>
      <trkpt lat="38.972992" lon="1.405257">
        <ele>114.136878</ele>
        <time>2023-05-07T09:15:09.000Z</time>
      </trkpt>
      <trkpt lat="38.973487" lon="1.405376">
        <ele>111.775284</ele>
        <time>2023-05-07T09:15:15.000Z</time>
      </trkpt>
      <trkpt lat="38.974769" lon="1.405932">
        <ele>105.520207</ele>
        <time>2023-05-07T09:15:30.000Z</time>
      </trkpt>
      <trkpt lat="38.975169" lon="1.406126">
        <ele>102.393332</ele>
        <time>2023-05-07T09:15:35.000Z</time>
      </trkpt>
      <trkpt lat="38.975521" lon="1.406334">
        <ele>99.561315</ele>
        <time>2023-05-07T09:15:39.000Z</time>
      </trkpt>
      <trkpt lat="38.975832" lon="1.40662">
        <ele>96.835111</ele>
        <time>2023-05-07T09:15:43.000Z</time>
      </trkpt>
      <trkpt lat="38.97609" lon="1.406916">
        <ele>94.352754</ele>
        <time>2023-05-07T09:15:47.000Z</time>
      </trkpt>
      <trkpt lat="38.976347" lon="1.407273">
        <ele>91.714168</ele>
        <time>2023-05-07T09:15:51.000Z</time>
      </trkpt>
      <trkpt lat="38.976468" lon="1.407512">
        <ele>90.444323</ele>
        <time>2023-05-07T09:15:53.000Z</time>
      </trkpt>
      <trkpt lat="38.976647" lon="1.407942">
        <ele>88.202365</ele>
        <time>2023-05-07T09:15:57.000Z</time>
      </trkpt>
      <trkpt lat="38.977373" lon="1.410171">
        <ele>78.456161</ele>
        <time>2023-05-07T09:16:18.000Z</time>
      </trkpt>
      <trkpt lat="38.977844" lon="1.411536">
        <ele>73.812655</ele>
        <time>2023-05-07T09:16:31.000Z</time>
      </trkpt>
      <trkpt lat="38.97788" lon="1.411583">
        <ele>73.684636</ele>
        <time>2023-05-07T09:16:32.000Z</time>
      </trkpt>
      <trkpt lat="38.978918" lon="1.414159">
        <ele>67.3258</ele>
        <time>2023-05-07T09:16:57.000Z</time>
      </trkpt>
      <trkpt lat="38.978977" lon="1.414362">
        <ele>66.951276</ele>
        <time>2023-05-07T09:16:59.000Z</time>
      </trkpt>
      <trkpt lat="38.978987" lon="1.414554">
        <ele>66.606219</ele>
        <time>2023-05-07T09:17:01.000Z</time>
      </trkpt>
      <trkpt lat="38.978979" lon="1.414582">
        <ele>66.531284</ele>
        <time>2023-05-07T09:17:01.000Z</time>
      </trkpt>
      <trkpt lat="38.978973" lon="1.414697">
        <ele>66.337051</ele>
        <time>2023-05-07T09:17:02.000Z</time>
      </trkpt>
      <trkpt lat="38.979062" lon="1.414799">
        <ele>66.048446</ele>
        <time>2023-05-07T09:17:03.000Z</time>
      </trkpt>
      <trkpt lat="38.979091" lon="1.414809">
        <ele>65.983405</ele>
        <time>2023-05-07T09:17:03.000Z</time>
      </trkpt>
      <trkpt lat="38.979191" lon="1.414906">
        <ele>65.674493</ele>
        <time>2023-05-07T09:17:04.000Z</time>
      </trkpt>
      <trkpt lat="38.979288" lon="1.415054">
        <ele>65.318069</ele>
        <time>2023-05-07T09:17:06.000Z</time>
      </trkpt>
      <trkpt lat="38.980353" lon="1.417644">
        <ele>61.814588</ele>
        <time>2023-05-07T09:17:31.000Z</time>
      </trkpt>
      <trkpt lat="38.98093" lon="1.419078">
        <ele>61.303697</ele>
        <time>2023-05-07T09:17:45.000Z</time>
      </trkpt>
      <trkpt lat="38.98103" lon="1.41936">
        <ele>61.204911</ele>
        <time>2023-05-07T09:17:48.000Z</time>
      </trkpt>
      <trkpt lat="38.981097" lon="1.419595">
        <ele>61.3981</ele>
        <time>2023-05-07T09:17:50.000Z</time>
      </trkpt>
      <trkpt lat="38.9812" lon="1.420152">
        <ele>62.642507</ele>
        <time>2023-05-07T09:17:55.000Z</time>
      </trkpt>
      <trkpt lat="38.981222" lon="1.420747">
        <ele>63.932109</ele>
        <time>2023-05-07T09:18:00.000Z</time>
      </trkpt>
      <trkpt lat="38.98117" lon="1.421346">
        <ele>65.222093</ele>
        <time>2023-05-07T09:18:05.000Z</time>
      </trkpt>
      <trkpt lat="38.980993" lon="1.422425">
        <ele>68.225968</ele>
        <time>2023-05-07T09:18:15.000Z</time>
      </trkpt>
      <trkpt lat="38.980946" lon="1.422943">
        <ele>69.890962</ele>
        <time>2023-05-07T09:18:20.000Z</time>
      </trkpt>
      <trkpt lat="38.980943" lon="1.423271">
        <ele>70.896174</ele>
        <time>2023-05-07T09:18:23.000Z</time>
      </trkpt>
      <trkpt lat="38.981112" lon="1.42546">
        <ele>75.109551</ele>
        <time>2023-05-07T09:18:42.000Z</time>
      </trkpt>
      <trkpt lat="38.981199" lon="1.426855">
        <ele>75.167162</ele>
        <time>2023-05-07T09:18:54.000Z</time>
      </trkpt>
      <trkpt lat="38.981173" lon="1.427378">
        <ele>74.024454</ele>
        <time>2023-05-07T09:18:59.000Z</time>
      </trkpt>
      <trkpt lat="38.981111" lon="1.427663">
        <ele>73.375018</ele>
        <time>2023-05-07T09:19:02.000Z</time>
      </trkpt>
      <trkpt lat="38.981016" lon="1.427994">
        <ele>72.601682</ele>
        <time>2023-05-07T09:19:05.000Z</time>
      </trkpt>
      <trkpt lat="38.980898" lon="1.42827">
        <ele>71.912345</ele>
        <time>2023-05-07T09:19:08.000Z</time>
      </trkpt>
      <trkpt lat="38.980752" lon="1.428561">
        <ele>71.153773</ele>
        <time>2023-05-07T09:19:11.000Z</time>
      </trkpt>
      <trkpt lat="38.980617" lon="1.428768">
        <ele>70.858867</ele>
        <time>2023-05-07T09:19:13.000Z</time>
      </trkpt>
      <trkpt lat="38.980342" lon="1.429101">
        <ele>70.386604</ele>
        <time>2023-05-07T09:19:17.000Z</time>
      </trkpt>
      <trkpt lat="38.980169" lon="1.429259">
        <ele>70.103757</ele>
        <time>2023-05-07T09:19:19.000Z</time>
      </trkpt>
      <trkpt lat="38.97986" lon="1.429475">
        <ele>69.671161</ele>
        <time>2023-05-07T09:19:23.000Z</time>
      </trkpt>
      <trkpt lat="38.979637" lon="1.429584">
        <ele>69.360268</ele>
        <time>2023-05-07T09:19:26.000Z</time>
      </trkpt>
      <trkpt lat="38.978379" lon="1.430125">
        <ele>69.174386</ele>
        <time>2023-05-07T09:19:41.000Z</time>
      </trkpt>
      <trkpt lat="38.97814" lon="1.430259">
        <ele>69.264631</ele>
        <time>2023-05-07T09:19:44.000Z</time>
      </trkpt>
      <trkpt lat="38.977843" lon="1.430457">
        <ele>69.387193</ele>
        <time>2023-05-07T09:19:48.000Z</time>
      </trkpt>
      <trkpt lat="38.977549" lon="1.430748">
        <ele>69.579798</ele>
        <time>2023-05-07T09:19:52.000Z</time>
      </trkpt>
      <trkpt lat="38.977345" lon="1.431032">
        <ele>69.887078</ele>
        <time>2023-05-07T09:19:55.000Z</time>
      </trkpt>
      <trkpt lat="38.97707" lon="1.431543">
        <ele>70.382971</ele>
        <time>2023-05-07T09:20:00.000Z</time>
      </trkpt>
      <trkpt lat="38.976924" lon="1.432006">
        <ele>70.791036</ele>
        <time>2023-05-07T09:20:04.000Z</time>
      </trkpt>
      <trkpt lat="38.97687" lon="1.432287">
        <ele>71.018823</ele>
        <time>2023-05-07T09:20:07.000Z</time>
      </trkpt>
      <trkpt lat="38.976822" lon="1.432653">
        <ele>71.314354</ele>
        <time>2023-05-07T09:20:10.000Z</time>
      </trkpt>
      <trkpt lat="38.976795" lon="1.433539">
        <ele>72.969446</ele>
        <time>2023-05-07T09:20:18.000Z</time>
      </trkpt>
      <trkpt lat="38.976766" lon="1.435804">
        <ele>76.846416</ele>
        <time>2023-05-07T09:20:38.000Z</time>
      </trkpt>
      <trkpt lat="38.976766" lon="1.436007">
        <ele>77.097898</ele>
        <time>2023-05-07T09:20:40.000Z</time>
      </trkpt>
      <trkpt lat="38.976741" lon="1.436544">
        <ele>77.805388</ele>
        <time>2023-05-07T09:20:45.000Z</time>
      </trkpt>
      <trkpt lat="38.976712" lon="1.437248">
        <ele>78.743592</ele>
        <time>2023-05-07T09:20:51.000Z</time>
      </trkpt>
      <trkpt lat="38.976621" lon="1.437868">
        <ele>78.919611</ele>
        <time>2023-05-07T09:20:56.000Z</time>
      </trkpt>
      <trkpt lat="38.976528" lon="1.438352">
        <ele>79.012445</ele>
        <time>2023-05-07T09:21:00.000Z</time>
      </trkpt>
      <trkpt lat="38.976446" lon="1.438745">
        <ele>79.088725</ele>
        <time>2023-05-07T09:21:04.000Z</time>
      </trkpt>
      <trkpt lat="38.976329" lon="1.439319">
        <ele>79.200868</ele>
        <time>2023-05-07T09:21:09.000Z</time>
      </trkpt>
      <trkpt lat="38.976308" lon="1.439405">
        <ele>79.218906</ele>
        <time>2023-05-07T09:21:10.000Z</time>
      </trkpt>
      <trkpt lat="38.976117" lon="1.440399">
        <ele>79.487662</ele>
        <time>2023-05-07T09:21:19.000Z</time>
      </trkpt>
      <trkpt lat="38.976061" lon="1.44075">
        <ele>79.586477</ele>
        <time>2023-05-07T09:21:22.000Z</time>
      </trkpt>
      <trkpt lat="38.976055" lon="1.441049">
        <ele>79.6683</ele>
        <time>2023-05-07T09:21:25.000Z</time>
      </trkpt>
      <trkpt lat="38.976083" lon="1.441726">
        <ele>79.855866</ele>
        <time>2023-05-07T09:21:31.000Z</time>
      </trkpt>
      <trkpt lat="38.976106" lon="1.441986">
        <ele>79.893239</ele>
        <time>2023-05-07T09:21:33.000Z</time>
      </trkpt>
      <trkpt lat="38.976221" lon="1.443143">
        <ele>79.930456</ele>
        <time>2023-05-07T09:21:43.000Z</time>
      </trkpt>
      <trkpt lat="38.976108" lon="1.441981">
        <ele>79.917126</ele>
        <time>2023-05-07T09:21:53.000Z</time>
      </trkpt>
      <trkpt lat="38.97609" lon="1.44171">
        <ele>79.842627</ele>
        <time>2023-05-07T09:21:55.000Z</time>
      </trkpt>
      <trkpt lat="38.976056" lon="1.441042">
        <ele>79.649914</ele>
        <time>2023-05-07T09:22:01.000Z</time>
      </trkpt>
      <trkpt lat="38.976061" lon="1.440743">
        <ele>79.565848</ele>
        <time>2023-05-07T09:22:04.000Z</time>
      </trkpt>
      <trkpt lat="38.976111" lon="1.440406">
        <ele>79.464301</ele>
        <time>2023-05-07T09:22:07.000Z</time>
      </trkpt>
      <trkpt lat="38.976306" lon="1.439399">
        <ele>79.229403</ele>
        <time>2023-05-07T09:22:16.000Z</time>
      </trkpt>
      <trkpt lat="38.976323" lon="1.439317">
        <ele>79.213695</ele>
        <time>2023-05-07T09:22:17.000Z</time>
      </trkpt>
      <trkpt lat="38.976457" lon="1.438736">
        <ele>79.11617</ele>
        <time>2023-05-07T09:22:22.000Z</time>
      </trkpt>
      <trkpt lat="38.976519" lon="1.438348">
        <ele>79.049805</ele>
        <time>2023-05-07T09:22:25.000Z</time>
      </trkpt>
      <trkpt lat="38.976624" lon="1.437875">
        <ele>78.969057</ele>
        <time>2023-05-07T09:22:29.000Z</time>
      </trkpt>
      <trkpt lat="38.976702" lon="1.437264">
        <ele>78.534161</ele>
        <time>2023-05-07T09:22:34.000Z</time>
      </trkpt>
      <trkpt lat="38.976751" lon="1.436543">
        <ele>77.746413</ele>
        <time>2023-05-07T09:22:40.000Z</time>
      </trkpt>
      <trkpt lat="38.976762" lon="1.435996">
        <ele>77.15239</ele>
        <time>2023-05-07T09:22:45.000Z</time>
      </trkpt>
      <trkpt lat="38.976763" lon="1.435818">
        <ele>76.941247</ele>
        <time>2023-05-07T09:22:47.000Z</time>
      </trkpt>
      <trkpt lat="38.976809" lon="1.433528">
        <ele>72.891178</ele>
        <time>2023-05-07T09:23:07.000Z</time>
      </trkpt>
      <trkpt lat="38.976826" lon="1.432648">
        <ele>71.492049</ele>
        <time>2023-05-07T09:23:15.000Z</time>
      </trkpt>
      <trkpt lat="38.976863" lon="1.432295">
        <ele>71.137896</ele>
        <time>2023-05-07T09:23:18.000Z</time>
      </trkpt>
      <trkpt lat="38.976929" lon="1.432014">
        <ele>70.864901</ele>
        <time>2023-05-07T09:23:21.000Z</time>
      </trkpt>
      <trkpt lat="38.977077" lon="1.431539">
        <ele>70.375867</ele>
        <time>2023-05-07T09:23:25.000Z</time>
      </trkpt>
      <trkpt lat="38.977336" lon="1.431024">
        <ele>69.781599</ele>
        <time>2023-05-07T09:23:30.000Z</time>
      </trkpt>
      <trkpt lat="38.977553" lon="1.430754">
        <ele>69.535136</ele>
        <time>2023-05-07T09:23:33.000Z</time>
      </trkpt>
      <trkpt lat="38.977836" lon="1.430469">
        <ele>69.395928</ele>
        <time>2023-05-07T09:23:37.000Z</time>
      </trkpt>
      <trkpt lat="38.978132" lon="1.43025">
        <ele>69.263349</ele>
        <time>2023-05-07T09:23:41.000Z</time>
      </trkpt>
      <trkpt lat="38.978384" lon="1.430129">
        <ele>69.165749</ele>
        <time>2023-05-07T09:23:44.000Z</time>
      </trkpt>
      <trkpt lat="38.979631" lon="1.429586">
        <ele>69.46658</ele>
        <time>2023-05-07T09:23:59.000Z</time>
      </trkpt>
      <trkpt lat="38.979856" lon="1.429465">
        <ele>69.682147</ele>
        <time>2023-05-07T09:24:02.000Z</time>
      </trkpt>
      <trkpt lat="38.980165" lon="1.429268">
        <ele>69.982115</ele>
        <time>2023-05-07T09:24:06.000Z</time>
      </trkpt>
      <trkpt lat="38.980347" lon="1.429094">
        <ele>70.178224</ele>
        <time>2023-05-07T09:24:09.000Z</time>
      </trkpt>
      <trkpt lat="38.980616" lon="1.428774">
        <ele>70.537945</ele>
        <time>2023-05-07T09:24:13.000Z</time>
      </trkpt>
      <trkpt lat="38.980754" lon="1.428555">
        <ele>71.207075</ele>
        <time>2023-05-07T09:24:15.000Z</time>
      </trkpt>
      <trkpt lat="38.980911" lon="1.428261">
        <ele>72.003582</ele>
        <time>2023-05-07T09:24:18.000Z</time>
      </trkpt>
      <trkpt lat="38.981023" lon="1.42799">
        <ele>72.727361</ele>
        <time>2023-05-07T09:24:21.000Z</time>
      </trkpt>
      <trkpt lat="38.981116" lon="1.427649">
        <ele>73.539371</ele>
        <time>2023-05-07T09:24:24.000Z</time>
      </trkpt>
      <trkpt lat="38.981168" lon="1.42736">
        <ele>74.221268</ele>
        <time>2023-05-07T09:24:27.000Z</time>
      </trkpt>
      <trkpt lat="38.981201" lon="1.426855">
        <ele>75.42111</ele>
        <time>2023-05-07T09:24:31.000Z</time>
      </trkpt>
      <trkpt lat="38.981127" lon="1.425448">
        <ele>74.978117</ele>
        <time>2023-05-07T09:24:43.000Z</time>
      </trkpt>
      <trkpt lat="38.980958" lon="1.42326">
        <ele>70.838121</ele>
        <time>2023-05-07T09:25:02.000Z</time>
      </trkpt>
      <trkpt lat="38.980952" lon="1.422955">
        <ele>69.859364</ele>
        <time>2023-05-07T09:25:05.000Z</time>
      </trkpt>
      <trkpt lat="38.980977" lon="1.422424">
        <ele>68.238177</ele>
        <time>2023-05-07T09:25:10.000Z</time>
      </trkpt>
      <trkpt lat="38.981165" lon="1.42134">
        <ele>65.333719</ele>
        <time>2023-05-07T09:25:20.000Z</time>
      </trkpt>
      <trkpt lat="38.981214" lon="1.420762">
        <ele>63.864375</ele>
        <time>2023-05-07T09:25:25.000Z</time>
      </trkpt>
      <trkpt lat="38.981195" lon="1.420154">
        <ele>62.395486</ele>
        <time>2023-05-07T09:25:30.000Z</time>
      </trkpt>
      <trkpt lat="38.98111" lon="1.419599">
        <ele>61.463025</ele>
        <time>2023-05-07T09:25:35.000Z</time>
      </trkpt>
      <trkpt lat="38.981036" lon="1.419355">
        <ele>61.472804</ele>
        <time>2023-05-07T09:25:37.000Z</time>
      </trkpt>
      <trkpt lat="38.980944" lon="1.419071">
        <ele>61.485025</ele>
        <time>2023-05-07T09:25:40.000Z</time>
      </trkpt>
      <trkpt lat="38.980346" lon="1.417644">
        <ele>61.607406</ele>
        <time>2023-05-07T09:25:54.000Z</time>
      </trkpt>
      <trkpt lat="38.979287" lon="1.415058">
        <ele>64.194809</ele>
        <time>2023-05-07T09:26:19.000Z</time>
      </trkpt>
      <trkpt lat="38.979237" lon="1.414707">
        <ele>64.480282</ele>
        <time>2023-05-07T09:26:22.000Z</time>
      </trkpt>
      <trkpt lat="38.979261" lon="1.414698">
        <ele>64.502459</ele>
        <time>2023-05-07T09:26:22.000Z</time>
      </trkpt>
      <trkpt lat="38.979445" lon="1.414479">
        <ele>64.775228</ele>
        <time>2023-05-07T09:26:25.000Z</time>
      </trkpt>
      <trkpt lat="38.979589" lon="1.414373">
        <ele>64.94633</ele>
        <time>2023-05-07T09:26:27.000Z</time>
      </trkpt>
      <trkpt lat="38.980165" lon="1.413689">
        <ele>65.905926</ele>
        <time>2023-05-07T09:26:36.000Z</time>
      </trkpt>
      <trkpt lat="38.980621" lon="1.413106">
        <ele>66.918287</ele>
        <time>2023-05-07T09:26:43.000Z</time>
      </trkpt>
      <trkpt lat="38.98184" lon="1.411564">
        <ele>69.568425</ele>
        <time>2023-05-07T09:27:02.000Z</time>
      </trkpt>
      <trkpt lat="38.982872" lon="1.410255">
        <ele>71.62295</ele>
        <time>2023-05-07T09:27:18.000Z</time>
      </trkpt>
      <trkpt lat="38.983539" lon="1.409093">
        <ele>72.911234</ele>
        <time>2023-05-07T09:27:30.000Z</time>
      </trkpt>
      <trkpt lat="38.98409" lon="1.40798">
        <ele>74.152831</ele>
        <time>2023-05-07T09:27:41.000Z</time>
      </trkpt>
      <trkpt lat="38.984977" lon="1.407526">
        <ele>75.325968</ele>
        <time>2023-05-07T09:27:52.000Z</time>
      </trkpt>
      <trkpt lat="38.98582" lon="1.406083">
        <ele>78.02971</ele>
        <time>2023-05-07T09:28:08.000Z</time>
      </trkpt>
      <trkpt lat="38.986101" lon="1.405709">
        <ele>78.842043</ele>
        <time>2023-05-07T09:28:12.000Z</time>
      </trkpt>
      <trkpt lat="38.98618" lon="1.40564">
        <ele>79.110381</ele>
        <time>2023-05-07T09:28:13.000Z</time>
      </trkpt>
      <trkpt lat="38.986394" lon="1.405471">
        <ele>80.098418</ele>
        <time>2023-05-07T09:28:16.000Z</time>
      </trkpt>
      <trkpt lat="38.987306" lon="1.405113">
        <ele>84.103973</ele>
        <time>2023-05-07T09:28:27.000Z</time>
      </trkpt>
      <trkpt lat="38.988044" lon="1.404663">
        <ele>87.718021</ele>
        <time>2023-05-07T09:28:36.000Z</time>
      </trkpt>
      <trkpt lat="38.98976" lon="1.404253">
        <ele>96.257714</ele>
        <time>2023-05-07T09:28:55.000Z</time>
      </trkpt>
      <trkpt lat="38.993587" lon="1.40292">
        <ele>108.933729</ele>
        <time>2023-05-07T09:29:39.000Z</time>
      </trkpt>
      <trkpt lat="38.993905" lon="1.402683">
        <ele>109.943175</ele>
        <time>2023-05-07T09:29:43.000Z</time>
      </trkpt>
      <trkpt lat="38.994854" lon="1.403077">
        <ele>112.677758</ele>
        <time>2023-05-07T09:29:54.000Z</time>
      </trkpt>
      <trkpt lat="38.99551" lon="1.403082">
        <ele>114.873948</ele>
        <time>2023-05-07T09:30:01.000Z</time>
      </trkpt>
      <trkpt lat="38.996492" lon="1.402655">
        <ele>118.332465</ele>
        <time>2023-05-07T09:30:13.000Z</time>
      </trkpt>
      <trkpt lat="38.997557" lon="1.402174">
        <ele>124.028447</ele>
        <time>2023-05-07T09:30:26.000Z</time>
      </trkpt>
      <trkpt lat="38.997951" lon="1.401953">
        <ele>126.266692</ele>
        <time>2023-05-07T09:30:31.000Z</time>
      </trkpt>
      <trkpt lat="38.999084" lon="1.400354">
        <ele>133.955909</ele>
        <time>2023-05-07T09:30:50.000Z</time>
      </trkpt>
      <trkpt lat="39.000141" lon="1.399197">
        <ele>136.973183</ele>
        <time>2023-05-07T09:31:05.000Z</time>
      </trkpt>
      <trkpt lat="39.000284" lon="1.398991">
        <ele>137.295427</ele>
        <time>2023-05-07T09:31:07.000Z</time>
      </trkpt>
      <trkpt lat="39.000901" lon="1.398145">
        <ele>137.648184</ele>
        <time>2023-05-07T09:31:17.000Z</time>
      </trkpt>
      <trkpt lat="39.001226" lon="1.397827">
        <ele>137.219494</ele>
        <time>2023-05-07T09:31:22.000Z</time>
      </trkpt>
      <trkpt lat="39.001722" lon="1.397563">
        <ele>136.6617</ele>
        <time>2023-05-07T09:31:28.000Z</time>
      </trkpt>
      <trkpt lat="39.002962" lon="1.397006">
        <ele>134.160887</ele>
        <time>2023-05-07T09:31:43.000Z</time>
      </trkpt>
      <trkpt lat="39.003444" lon="1.396766">
        <ele>132.910077</ele>
        <time>2023-05-07T09:31:49.000Z</time>
      </trkpt>
      <trkpt lat="39.004114" lon="1.396256">
        <ele>131.315321</ele>
        <time>2023-05-07T09:31:58.000Z</time>
      </trkpt>
      <trkpt lat="39.004158" lon="1.396235">
        <ele>131.230354</ele>
        <time>2023-05-07T09:31:59.000Z</time>
      </trkpt>
      <trkpt lat="39.004931" lon="1.395647">
        <ele>129.810408</ele>
        <time>2023-05-07T09:32:09.000Z</time>
      </trkpt>
      <trkpt lat="39.005365" lon="1.395148">
        <ele>129.015651</ele>
        <time>2023-05-07T09:32:15.000Z</time>
      </trkpt>
      <trkpt lat="39.005945" lon="1.394981">
        <ele>129.527004</ele>
        <time>2023-05-07T09:32:22.000Z</time>
      </trkpt>
      <trkpt lat="39.007207" lon="1.394037">
        <ele>131.661405</ele>
        <time>2023-05-07T09:32:38.000Z</time>
      </trkpt>
      <trkpt lat="39.007248" lon="1.394">
        <ele>131.857063</ele>
        <time>2023-05-07T09:32:39.000Z</time>
      </trkpt>
      <trkpt lat="39.008513" lon="1.393035">
        <ele>137.282104</ele>
        <time>2023-05-07T09:32:55.000Z</time>
      </trkpt>
      <trkpt lat="39.008544" lon="1.393106">
        <ele>137.594177</ele>
        <time>2023-05-07T09:32:56.000Z</time>
      </trkpt>
      <trkpt lat="39.00946" lon="1.3945">
        <ele>144.240391</ele>
        <time>2023-05-07T09:33:12.000Z</time>
      </trkpt>
      <trkpt lat="39.009705" lon="1.394163">
        <ele>145.727541</ele>
        <time>2023-05-07T09:33:16.000Z</time>
      </trkpt>
      <trkpt lat="39.009796" lon="1.394075">
        <ele>145.940609</ele>
        <time>2023-05-07T09:33:17.000Z</time>
      </trkpt>
      <trkpt lat="39.009969" lon="1.393825">
        <ele>146.420777</ele>
        <time>2023-05-07T09:33:20.000Z</time>
      </trkpt>
      <trkpt lat="39.010008" lon="1.39379">
        <ele>146.501523</ele>
        <time>2023-05-07T09:33:21.000Z</time>
      </trkpt>
      <trkpt lat="39.010052" lon="1.39369">
        <ele>146.661872</ele>
        <time>2023-05-07T09:33:22.000Z</time>
      </trkpt>
      <trkpt lat="39.010983" lon="1.392157">
        <ele>149.612622</ele>
        <time>2023-05-07T09:33:39.000Z</time>
      </trkpt>
      <trkpt lat="39.011192" lon="1.391938">
        <ele>150.253724</ele>
        <time>2023-05-07T09:33:42.000Z</time>
      </trkpt>
      <trkpt lat="39.011281" lon="1.391853">
        <ele>150.514269</ele>
        <time>2023-05-07T09:33:43.000Z</time>
      </trkpt>
      <trkpt lat="39.012313" lon="1.391045">
        <ele>153.402899</ele>
        <time>2023-05-07T09:33:56.000Z</time>
      </trkpt>
      <trkpt lat="39.013614" lon="1.39017">
        <ele>157.625094</ele>
        <time>2023-05-07T09:34:12.000Z</time>
      </trkpt>
      <trkpt lat="39.014497" lon="1.38966">
        <ele>159.725222</ele>
        <time>2023-05-07T09:34:23.000Z</time>
      </trkpt>
      <trkpt lat="39.014783" lon="1.389542">
        <ele>160.317434</ele>
        <time>2023-05-07T09:34:26.000Z</time>
      </trkpt>
      <trkpt lat="39.015395" lon="1.389297">
        <ele>161.560246</ele>
        <time>2023-05-07T09:34:33.000Z</time>
      </trkpt>
      <trkpt lat="39.016918" lon="1.388671">
        <ele>164.497097</ele>
        <time>2023-05-07T09:34:51.000Z</time>
      </trkpt>
      <trkpt lat="39.017094" lon="1.388595">
        <ele>164.841575</ele>
        <time>2023-05-07T09:34:53.000Z</time>
      </trkpt>
      <trkpt lat="39.017977" lon="1.38824">
        <ele>166.279626</ele>
        <time>2023-05-07T09:35:03.000Z</time>
      </trkpt>
      <trkpt lat="39.018227" lon="1.388075">
        <ele>166.715242</ele>
        <time>2023-05-07T09:35:06.000Z</time>
      </trkpt>
      <trkpt lat="39.018584" lon="1.387734">
        <ele>167.368234</ele>
        <time>2023-05-07T09:35:11.000Z</time>
      </trkpt>
      <trkpt lat="39.018968" lon="1.387368">
        <ele>168.040688</ele>
        <time>2023-05-07T09:35:16.000Z</time>
      </trkpt>
      <trkpt lat="39.018987" lon="1.387371">
        <ele>168.063723</ele>
        <time>2023-05-07T09:35:16.000Z</time>
      </trkpt>
      <trkpt lat="39.019169" lon="1.38723">
        <ele>168.347018</ele>
        <time>2023-05-07T09:35:18.000Z</time>
      </trkpt>
      <trkpt lat="39.020134" lon="1.386803">
        <ele>169.629708</ele>
        <time>2023-05-07T09:35:29.000Z</time>
      </trkpt>
      <trkpt lat="39.020592" lon="1.386606">
        <ele>170.210733</ele>
        <time>2023-05-07T09:35:34.000Z</time>
      </trkpt>
      <trkpt lat="39.021726" lon="1.38615">
        <ele>171.36882</ele>
        <time>2023-05-07T09:35:47.000Z</time>
      </trkpt>
      <trkpt lat="39.022371" lon="1.385897">
        <ele>171.997139</ele>
        <time>2023-05-07T09:35:54.000Z</time>
      </trkpt>
      <trkpt lat="39.022587" lon="1.385824">
        <ele>172.195978</ele>
        <time>2023-05-07T09:35:56.000Z</time>
      </trkpt>
      <trkpt lat="39.023478" lon="1.385457">
        <ele>173.010629</ele>
        <time>2023-05-07T09:36:06.000Z</time>
      </trkpt>
      <trkpt lat="39.024579" lon="1.385025">
        <ele>174.053705</ele>
        <time>2023-05-07T09:36:19.000Z</time>
      </trkpt>
      <trkpt lat="39.025445" lon="1.384477">
        <ele>174.969735</ele>
        <time>2023-05-07T09:36:30.000Z</time>
      </trkpt>
      <trkpt lat="39.025877" lon="1.384195">
        <ele>175.494593</ele>
        <time>2023-05-07T09:36:35.000Z</time>
      </trkpt>
      <trkpt lat="39.026546" lon="1.384013">
        <ele>176.26715</ele>
        <time>2023-05-07T09:36:43.000Z</time>
      </trkpt>
      <trkpt lat="39.02924" lon="1.383237">
        <ele>179.091651</ele>
        <time>2023-05-07T09:37:14.000Z</time>
      </trkpt>
      <trkpt lat="39.030198" lon="1.383245">
        <ele>179.523011</ele>
        <time>2023-05-07T09:37:25.000Z</time>
      </trkpt>
      <trkpt lat="39.030591" lon="1.383154">
        <ele>179.702796</ele>
        <time>2023-05-07T09:37:29.000Z</time>
      </trkpt>
      <trkpt lat="39.033192" lon="1.38203">
        <ele>180.598468</ele>
        <time>2023-05-07T09:38:00.000Z</time>
      </trkpt>
      <trkpt lat="39.033667" lon="1.381886">
        <ele>180.94205</ele>
        <time>2023-05-07T09:38:05.000Z</time>
      </trkpt>
      <trkpt lat="39.034074" lon="1.381759">
        <ele>181.237772</ele>
        <time>2023-05-07T09:38:10.000Z</time>
      </trkpt>
      <trkpt lat="39.034934" lon="1.381567">
        <ele>182.976943</ele>
        <time>2023-05-07T09:38:20.000Z</time>
      </trkpt>
      <trkpt lat="39.035353" lon="1.381536">
        <ele>184.027748</ele>
        <time>2023-05-07T09:38:25.000Z</time>
      </trkpt>
      <trkpt lat="39.035691" lon="1.381586">
        <ele>184.82623</ele>
        <time>2023-05-07T09:38:29.000Z</time>
      </trkpt>
      <trkpt lat="39.036227" lon="1.381725">
        <ele>186.531792</ele>
        <time>2023-05-07T09:38:35.000Z</time>
      </trkpt>
      <trkpt lat="39.036434" lon="1.381824">
        <ele>187.506684</ele>
        <time>2023-05-07T09:38:37.000Z</time>
      </trkpt>
      <trkpt lat="39.038183" lon="1.382869">
        <ele>196.561151</ele>
        <time>2023-05-07T09:38:58.000Z</time>
      </trkpt>
      <trkpt lat="39.038176" lon="1.383005">
        <ele>197.102112</ele>
        <time>2023-05-07T09:38:59.000Z</time>
      </trkpt>
      <trkpt lat="39.03835" lon="1.383525">
        <ele>199.326766</ele>
        <time>2023-05-07T09:39:04.000Z</time>
      </trkpt>
      <trkpt lat="39.038548" lon="1.384042">
        <ele>201.607502</ele>
        <time>2023-05-07T09:39:09.000Z</time>
      </trkpt>
      <trkpt lat="39.038969" lon="1.384886">
        <ele>205.586327</ele>
        <time>2023-05-07T09:39:18.000Z</time>
      </trkpt>
      <trkpt lat="39.039063" lon="1.385128">
        <ele>206.658626</ele>
        <time>2023-05-07T09:39:20.000Z</time>
      </trkpt>
      <trkpt lat="39.039099" lon="1.385316">
        <ele>207.423201</ele>
        <time>2023-05-07T09:39:22.000Z</time>
      </trkpt>
      <trkpt lat="39.039089" lon="1.38553">
        <ele>208.232303</ele>
        <time>2023-05-07T09:39:24.000Z</time>
      </trkpt>
      <trkpt lat="39.038878" lon="1.387336">
        <ele>216.187413</ele>
        <time>2023-05-07T09:39:40.000Z</time>
      </trkpt>
      <trkpt lat="39.038842" lon="1.387889">
        <ele>218.912049</ele>
        <time>2023-05-07T09:39:45.000Z</time>
      </trkpt>
      <trkpt lat="39.038897" lon="1.388548">
        <ele>222.054439</ele>
        <time>2023-05-07T09:39:51.000Z</time>
      </trkpt>
      <trkpt lat="39.039077" lon="1.390022">
        <ele>228.991797</ele>
        <time>2023-05-07T09:40:04.000Z</time>
      </trkpt>
      <trkpt lat="39.039038" lon="1.39032">
        <ele>230.318773</ele>
        <time>2023-05-07T09:40:07.000Z</time>
      </trkpt>
      <trkpt lat="39.038941" lon="1.390554">
        <ele>231.559904</ele>
        <time>2023-05-07T09:40:09.000Z</time>
      </trkpt>
      <trkpt lat="39.038734" lon="1.391035">
        <ele>233.994235</ele>
        <time>2023-05-07T09:40:14.000Z</time>
      </trkpt>
      <trkpt lat="39.038718" lon="1.391291">
        <ele>234.709571</ele>
        <time>2023-05-07T09:40:16.000Z</time>
      </trkpt>
      <trkpt lat="39.038735" lon="1.391504">
        <ele>235.322733</ele>
        <time>2023-05-07T09:40:18.000Z</time>
      </trkpt>
      <trkpt lat="39.038796" lon="1.391711">
        <ele>235.924408</ele>
        <time>2023-05-07T09:40:20.000Z</time>
      </trkpt>
      <trkpt lat="39.038866" lon="1.391878">
        <ele>236.475473</ele>
        <time>2023-05-07T09:40:22.000Z</time>
      </trkpt>
      <trkpt lat="39.039232" lon="1.392279">
        <ele>238.195382</ele>
        <time>2023-05-07T09:40:27.000Z</time>
      </trkpt>
      <trkpt lat="39.039355" lon="1.392414">
        <ele>238.806168</ele>
        <time>2023-05-07T09:40:29.000Z</time>
      </trkpt>
      <trkpt lat="39.039488" lon="1.3926">
        <ele>239.512091</ele>
        <time>2023-05-07T09:40:31.000Z</time>
      </trkpt>
      <trkpt lat="39.039774" lon="1.393163">
        <ele>239.983335</ele>
        <time>2023-05-07T09:40:37.000Z</time>
      </trkpt>
      <trkpt lat="39.039957" lon="1.393333">
        <ele>239.669295</ele>
        <time>2023-05-07T09:40:40.000Z</time>
      </trkpt>
      <trkpt lat="39.04098" lon="1.393791">
        <ele>238.039686</ele>
        <time>2023-05-07T09:40:52.000Z</time>
      </trkpt>
      <trkpt lat="39.0418" lon="1.394282">
        <ele>232.705547</ele>
        <time>2023-05-07T09:41:02.000Z</time>
      </trkpt>
      <trkpt lat="39.042148" lon="1.394614">
        <ele>229.671085</ele>
        <time>2023-05-07T09:41:07.000Z</time>
      </trkpt>
      <trkpt lat="39.042427" lon="1.394937">
        <ele>226.891632</ele>
        <time>2023-05-07T09:41:11.000Z</time>
      </trkpt>
      <trkpt lat="39.042854" lon="1.395414">
        <ele>223.261516</ele>
        <time>2023-05-07T09:41:17.000Z</time>
      </trkpt>
      <trkpt lat="39.0431" lon="1.395585">
        <ele>221.632507</ele>
        <time>2023-05-07T09:41:20.000Z</time>
      </trkpt>
      <trkpt lat="39.043267" lon="1.395624">
        <ele>220.694163</ele>
        <time>2023-05-07T09:41:22.000Z</time>
      </trkpt>
      <trkpt lat="39.043436" lon="1.395611">
        <ele>219.766585</ele>
        <time>2023-05-07T09:41:24.000Z</time>
      </trkpt>
      <trkpt lat="39.044216" lon="1.395381">
        <ele>215.161179</ele>
        <time>2023-05-07T09:41:33.000Z</time>
      </trkpt>
      <trkpt lat="39.044557" lon="1.3954">
        <ele>214.262183</ele>
        <time>2023-05-07T09:41:37.000Z</time>
      </trkpt>
      <trkpt lat="39.044951" lon="1.395545">
        <ele>213.879846</ele>
        <time>2023-05-07T09:41:42.000Z</time>
      </trkpt>
      <trkpt lat="39.045105" lon="1.395661">
        <ele>213.724123</ele>
        <time>2023-05-07T09:41:44.000Z</time>
      </trkpt>
      <trkpt lat="39.04523" lon="1.395808">
        <ele>213.560953</ele>
        <time>2023-05-07T09:41:46.000Z</time>
      </trkpt>
      <trkpt lat="39.045431" lon="1.396114">
        <ele>213.266758</ele>
        <time>2023-05-07T09:41:49.000Z</time>
      </trkpt>
      <trkpt lat="39.045534" lon="1.396332">
        <ele>213.084897</ele>
        <time>2023-05-07T09:41:51.000Z</time>
      </trkpt>
      <trkpt lat="39.045645" lon="1.396741">
        <ele>212.839259</ele>
        <time>2023-05-07T09:41:55.000Z</time>
      </trkpt>
      <trkpt lat="39.04572" lon="1.397519">
        <ele>213.814916</ele>
        <time>2023-05-07T09:42:02.000Z</time>
      </trkpt>
      <trkpt lat="39.045725" lon="1.398913">
        <ele>215.530184</ele>
        <time>2023-05-07T09:42:14.000Z</time>
      </trkpt>
      <trkpt lat="39.045766" lon="1.399213">
        <ele>216.20823</ele>
        <time>2023-05-07T09:42:17.000Z</time>
      </trkpt>
      <trkpt lat="39.045961" lon="1.400537">
        <ele>220.00362</ele>
        <time>2023-05-07T09:42:29.000Z</time>
      </trkpt>
      <trkpt lat="39.046258" lon="1.401979">
        <ele>223.770952</ele>
        <time>2023-05-07T09:42:42.000Z</time>
      </trkpt>
      <trkpt lat="39.046364" lon="1.402621">
        <ele>225.270895</ele>
        <time>2023-05-07T09:42:48.000Z</time>
      </trkpt>
      <trkpt lat="39.046421" lon="1.402991">
        <ele>226.10275</ele>
        <time>2023-05-07T09:42:51.000Z</time>
      </trkpt>
      <trkpt lat="39.046509" lon="1.403752">
        <ele>226.845695</ele>
        <time>2023-05-07T09:42:58.000Z</time>
      </trkpt>
      <trkpt lat="39.046853" lon="1.405172">
        <ele>222.991</ele>
        <time>2023-05-07T09:43:11.000Z</time>
      </trkpt>
      <trkpt lat="39.047351" lon="1.40648">
        <ele>218.099935</ele>
        <time>2023-05-07T09:43:24.000Z</time>
      </trkpt>
      <trkpt lat="39.047989" lon="1.408226">
        <ele>210.658777</ele>
        <time>2023-05-07T09:43:41.000Z</time>
      </trkpt>
      <trkpt lat="39.048015" lon="1.408431">
        <ele>209.948244</ele>
        <time>2023-05-07T09:43:43.000Z</time>
      </trkpt>
      <trkpt lat="39.048001" lon="1.408608">
        <ele>209.330859</ele>
        <time>2023-05-07T09:43:45.000Z</time>
      </trkpt>
      <trkpt lat="39.047949" lon="1.408741">
        <ele>208.795387</ele>
        <time>2023-05-07T09:43:46.000Z</time>
      </trkpt>
      <trkpt lat="39.047716" lon="1.408975">
        <ele>207.529134</ele>
        <time>2023-05-07T09:43:49.000Z</time>
      </trkpt>
      <trkpt lat="39.046765" lon="1.409634">
        <ele>202.638891</ele>
        <time>2023-05-07T09:44:01.000Z</time>
      </trkpt>
      <trkpt lat="39.046557" lon="1.409791">
        <ele>201.511067</ele>
        <time>2023-05-07T09:44:04.000Z</time>
      </trkpt>
      <trkpt lat="39.046437" lon="1.409956">
        <ele>200.640403</ele>
        <time>2023-05-07T09:44:06.000Z</time>
      </trkpt>
      <trkpt lat="39.046133" lon="1.410966">
        <ele>196.566033</ele>
        <time>2023-05-07T09:44:15.000Z</time>
      </trkpt>
      <trkpt lat="39.046054" lon="1.411426">
        <ele>194.956002</ele>
        <time>2023-05-07T09:44:19.000Z</time>
      </trkpt>
      <trkpt lat="39.046047" lon="1.41185">
        <ele>193.65896</ele>
        <time>2023-05-07T09:44:23.000Z</time>
      </trkpt>
      <trkpt lat="39.046056" lon="1.412151">
        <ele>192.745303</ele>
        <time>2023-05-07T09:44:26.000Z</time>
      </trkpt>
      <trkpt lat="39.046106" lon="1.412944">
        <ele>190.374966</ele>
        <time>2023-05-07T09:44:33.000Z</time>
      </trkpt>
      <trkpt lat="39.046216" lon="1.41408">
        <ele>187.550524</ele>
        <time>2023-05-07T09:44:43.000Z</time>
      </trkpt>
      <trkpt lat="39.046408" lon="1.415532">
        <ele>184.778307</ele>
        <time>2023-05-07T09:44:56.000Z</time>
      </trkpt>
      <trkpt lat="39.047009" lon="1.417674">
        <ele>181.419365</ele>
        <time>2023-05-07T09:45:16.000Z</time>
      </trkpt>
      <trkpt lat="39.047274" lon="1.418376">
        <ele>179.952815</ele>
        <time>2023-05-07T09:45:23.000Z</time>
      </trkpt>
      <trkpt lat="39.047389" lon="1.418653">
        <ele>179.277588</ele>
        <time>2023-05-07T09:45:26.000Z</time>
      </trkpt>
      <trkpt lat="39.047528" lon="1.41903">
        <ele>178.380119</ele>
        <time>2023-05-07T09:45:30.000Z</time>
      </trkpt>
      <trkpt lat="39.047936" lon="1.419855">
        <ele>176.247314</ele>
        <time>2023-05-07T09:45:38.000Z</time>
      </trkpt>
      <trkpt lat="39.048065" lon="1.420159">
        <ele>175.618158</ele>
        <time>2023-05-07T09:45:41.000Z</time>
      </trkpt>
      <trkpt lat="39.048157" lon="1.420442">
        <ele>175.099567</ele>
        <time>2023-05-07T09:45:44.000Z</time>
      </trkpt>
      <trkpt lat="39.048364" lon="1.421184">
        <ele>173.846299</ele>
        <time>2023-05-07T09:45:51.000Z</time>
      </trkpt>
      <trkpt lat="39.048762" lon="1.422635">
        <ele>172.169578</ele>
        <time>2023-05-07T09:46:04.000Z</time>
      </trkpt>
      <trkpt lat="39.04895" lon="1.423262">
        <ele>172.083656</ele>
        <time>2023-05-07T09:46:10.000Z</time>
      </trkpt>
      <trkpt lat="39.049036" lon="1.423405">
        <ele>172.060171</ele>
        <time>2023-05-07T09:46:12.000Z</time>
      </trkpt>
      <trkpt lat="39.048946" lon="1.423266">
        <ele>172.036689</ele>
        <time>2023-05-07T09:46:14.000Z</time>
      </trkpt>
      <trkpt lat="39.048755" lon="1.422625">
        <ele>171.950773</ele>
        <time>2023-05-07T09:46:20.000Z</time>
      </trkpt>
      <trkpt lat="39.04837" lon="1.421193">
        <ele>173.835912</ele>
        <time>2023-05-07T09:46:33.000Z</time>
      </trkpt>
      <trkpt lat="39.048167" lon="1.420459">
        <ele>174.85662</ele>
        <time>2023-05-07T09:46:40.000Z</time>
      </trkpt>
      <trkpt lat="39.048071" lon="1.420149">
        <ele>175.511634</ele>
        <time>2023-05-07T09:46:43.000Z</time>
      </trkpt>
      <trkpt lat="39.047949" lon="1.41984">
        <ele>176.277218</ele>
        <time>2023-05-07T09:46:46.000Z</time>
      </trkpt>
      <trkpt lat="39.047516" lon="1.419034">
        <ele>178.471755</ele>
        <time>2023-05-07T09:46:54.000Z</time>
      </trkpt>
      <trkpt lat="39.047382" lon="1.418657">
        <ele>179.395189</ele>
        <time>2023-05-07T09:46:58.000Z</time>
      </trkpt>
      <trkpt lat="39.04727" lon="1.418388">
        <ele>180.089976</ele>
        <time>2023-05-07T09:47:01.000Z</time>
      </trkpt>
      <trkpt lat="39.047024" lon="1.417667">
        <ele>181.287342</ele>
        <time>2023-05-07T09:47:08.000Z</time>
      </trkpt>
      <trkpt lat="39.046412" lon="1.41552">
        <ele>184.872407</ele>
        <time>2023-05-07T09:47:28.000Z</time>
      </trkpt>
      <trkpt lat="39.046226" lon="1.414085">
        <ele>187.37637</ele>
        <time>2023-05-07T09:47:41.000Z</time>
      </trkpt>
      <trkpt lat="39.046104" lon="1.412943">
        <ele>190.464541</ele>
        <time>2023-05-07T09:47:51.000Z</time>
      </trkpt>
      <trkpt lat="39.046067" lon="1.412161">
        <ele>192.664241</ele>
        <time>2023-05-07T09:47:58.000Z</time>
      </trkpt>
      <trkpt lat="39.046035" lon="1.411856">
        <ele>193.512124</ele>
        <time>2023-05-07T09:48:01.000Z</time>
      </trkpt>
      <trkpt lat="39.046065" lon="1.411437">
        <ele>194.915789</ele>
        <time>2023-05-07T09:48:05.000Z</time>
      </trkpt>
      <trkpt lat="39.046142" lon="1.41097">
        <ele>196.660788</ele>
        <time>2023-05-07T09:48:09.000Z</time>
      </trkpt>
      <trkpt lat="39.046425" lon="1.409959">
        <ele>200.680926</ele>
        <time>2023-05-07T09:48:18.000Z</time>
      </trkpt>
      <trkpt lat="39.046557" lon="1.409783">
        <ele>201.539992</ele>
        <time>2023-05-07T09:48:20.000Z</time>
      </trkpt>
      <trkpt lat="39.046757" lon="1.409628">
        <ele>202.651949</ele>
        <time>2023-05-07T09:48:23.000Z</time>
      </trkpt>
      <trkpt lat="39.047715" lon="1.408961">
        <ele>207.479074</ele>
        <time>2023-05-07T09:48:35.000Z</time>
      </trkpt>
      <trkpt lat="39.047934" lon="1.408748">
        <ele>208.768343</ele>
        <time>2023-05-07T09:48:38.000Z</time>
      </trkpt>
      <trkpt lat="39.048006" lon="1.408616">
        <ele>209.313557</ele>
        <time>2023-05-07T09:48:39.000Z</time>
      </trkpt>
      <trkpt lat="39.04803" lon="1.408439">
        <ele>209.942162</ele>
        <time>2023-05-07T09:48:41.000Z</time>
      </trkpt>
      <trkpt lat="39.047995" lon="1.408241">
        <ele>210.665622</ele>
        <time>2023-05-07T09:48:43.000Z</time>
      </trkpt>
      <trkpt lat="39.04734" lon="1.406473">
        <ele>218.042682</ele>
        <time>2023-05-07T09:49:00.000Z</time>
      </trkpt>
      <trkpt lat="39.046864" lon="1.405176">
        <ele>222.994309</ele>
        <time>2023-05-07T09:49:12.000Z</time>
      </trkpt>
      <trkpt lat="39.046513" lon="1.403751">
        <ele>226.710076</ele>
        <time>2023-05-07T09:49:25.000Z</time>
      </trkpt>
      <trkpt lat="39.04641" lon="1.402991">
        <ele>225.5999</ele>
        <time>2023-05-07T09:49:32.000Z</time>
      </trkpt>
      <trkpt lat="39.046368" lon="1.402629">
        <ele>225.061586</ele>
        <time>2023-05-07T09:49:35.000Z</time>
      </trkpt>
      <trkpt lat="39.046261" lon="1.401968">
        <ele>224.09092</ele>
        <time>2023-05-07T09:49:41.000Z</time>
      </trkpt>
      <trkpt lat="39.04595" lon="1.400546">
        <ele>219.972589</ele>
        <time>2023-05-07T09:49:54.000Z</time>
      </trkpt>
      <trkpt lat="39.045763" lon="1.399211">
        <ele>216.219589</ele>
        <time>2023-05-07T09:50:06.000Z</time>
      </trkpt>
      <trkpt lat="39.045736" lon="1.398906">
        <ele>215.756384</ele>
        <time>2023-05-07T09:50:09.000Z</time>
      </trkpt>
      <trkpt lat="39.045712" lon="1.397532">
        <ele>213.645689</ele>
        <time>2023-05-07T09:50:21.000Z</time>
      </trkpt>
      <trkpt lat="39.045653" lon="1.396747">
        <ele>213.161544</ele>
        <time>2023-05-07T09:50:28.000Z</time>
      </trkpt>
      <trkpt lat="39.045536" lon="1.396326">
        <ele>213.254927</ele>
        <time>2023-05-07T09:50:32.000Z</time>
      </trkpt>
      <trkpt lat="39.045423" lon="1.396112">
        <ele>213.309005</ele>
        <time>2023-05-07T09:50:34.000Z</time>
      </trkpt>
      <trkpt lat="39.045224" lon="1.395809">
        <ele>213.396503</ele>
        <time>2023-05-07T09:50:37.000Z</time>
      </trkpt>
      <trkpt lat="39.045101" lon="1.395653">
        <ele>213.445028</ele>
        <time>2023-05-07T09:50:39.000Z</time>
      </trkpt>
      <trkpt lat="39.044956" lon="1.395553">
        <ele>213.491328</ele>
        <time>2023-05-07T09:50:41.000Z</time>
      </trkpt>
      <trkpt lat="39.044547" lon="1.395394">
        <ele>214.200122</ele>
        <time>2023-05-07T09:50:46.000Z</time>
      </trkpt>
      <trkpt lat="39.044225" lon="1.395393">
        <ele>215.807507</ele>
        <time>2023-05-07T09:50:50.000Z</time>
      </trkpt>
      <trkpt lat="39.043438" lon="1.395606">
        <ele>219.649589</ele>
        <time>2023-05-07T09:50:59.000Z</time>
      </trkpt>
      <trkpt lat="39.043262" lon="1.395608">
        <ele>220.423433</ele>
        <time>2023-05-07T09:51:01.000Z</time>
      </trkpt>
      <trkpt lat="39.043106" lon="1.395583">
        <ele>221.20626</ele>
        <time>2023-05-07T09:51:03.000Z</time>
      </trkpt>
      <trkpt lat="39.04285" lon="1.395414">
        <ele>222.812897</ele>
        <time>2023-05-07T09:51:06.000Z</time>
      </trkpt>
      <trkpt lat="39.042442" lon="1.394942">
        <ele>227.04194</ele>
        <time>2023-05-07T09:51:12.000Z</time>
      </trkpt>
      <trkpt lat="39.042146" lon="1.394604">
        <ele>229.969489</ele>
        <time>2023-05-07T09:51:16.000Z</time>
      </trkpt>
      <trkpt lat="39.041809" lon="1.394282">
        <ele>233.165655</ele>
        <time>2023-05-07T09:51:21.000Z</time>
      </trkpt>
      <trkpt lat="39.040979" lon="1.393782">
        <ele>237.368837</ele>
        <time>2023-05-07T09:51:31.000Z</time>
      </trkpt>
      <trkpt lat="39.039947" lon="1.393333">
        <ele>240.342484</ele>
        <time>2023-05-07T09:51:43.000Z</time>
      </trkpt>
      <trkpt lat="39.039775" lon="1.393177">
        <ele>240.532469</ele>
        <time>2023-05-07T09:51:45.000Z</time>
      </trkpt>
      <trkpt lat="39.039492" lon="1.392609">
        <ele>239.022149</ele>
        <time>2023-05-07T09:51:51.000Z</time>
      </trkpt>
      <trkpt lat="39.039356" lon="1.39242">
        <ele>238.459102</ele>
        <time>2023-05-07T09:51:53.000Z</time>
      </trkpt>
      <trkpt lat="39.03922" lon="1.392286">
        <ele>237.971945</ele>
        <time>2023-05-07T09:51:55.000Z</time>
      </trkpt>
      <trkpt lat="39.038876" lon="1.391872">
        <ele>236.600146</ele>
        <time>2023-05-07T09:52:00.000Z</time>
      </trkpt>
      <trkpt lat="39.038791" lon="1.391703">
        <ele>236.160617</ele>
        <time>2023-05-07T09:52:02.000Z</time>
      </trkpt>
      <trkpt lat="39.038735" lon="1.391509">
        <ele>235.680737</ele>
        <time>2023-05-07T09:52:04.000Z</time>
      </trkpt>
      <trkpt lat="39.038714" lon="1.391295">
        <ele>234.849125</ele>
        <time>2023-05-07T09:52:06.000Z</time>
      </trkpt>
      <trkpt lat="39.038734" lon="1.391036">
        <ele>233.75619</ele>
        <time>2023-05-07T09:52:08.000Z</time>
      </trkpt>
      <trkpt lat="39.038945" lon="1.390567">
        <ele>231.432361</ele>
        <time>2023-05-07T09:52:13.000Z</time>
      </trkpt>
      <trkpt lat="39.03904" lon="1.390319">
        <ele>230.266811</ele>
        <time>2023-05-07T09:52:15.000Z</time>
      </trkpt>
      <trkpt lat="39.039088" lon="1.390025">
        <ele>229.020639</ele>
        <time>2023-05-07T09:52:18.000Z</time>
      </trkpt>
      <trkpt lat="39.038884" lon="1.388548">
        <ele>222.078507</ele>
        <time>2023-05-07T09:52:31.000Z</time>
      </trkpt>
      <trkpt lat="39.038848" lon="1.387884">
        <ele>218.85169</ele>
        <time>2023-05-07T09:52:37.000Z</time>
      </trkpt>
      <trkpt lat="39.038889" lon="1.387335">
        <ele>216.053847</ele>
        <time>2023-05-07T09:52:42.000Z</time>
      </trkpt>
      <trkpt lat="39.039092" lon="1.385525">
        <ele>208.287254</ele>
        <time>2023-05-07T09:52:58.000Z</time>
      </trkpt>
      <trkpt lat="39.039086" lon="1.385324">
        <ele>207.456897</ele>
        <time>2023-05-07T09:53:00.000Z</time>
      </trkpt>
      <trkpt lat="39.039062" lon="1.385126">
        <ele>206.672267</ele>
        <time>2023-05-07T09:53:02.000Z</time>
      </trkpt>
      <trkpt lat="39.038973" lon="1.384894">
        <ele>205.571818</ele>
        <time>2023-05-07T09:53:04.000Z</time>
      </trkpt>
      <trkpt lat="39.038546" lon="1.384048">
        <ele>201.587392</ele>
        <time>2023-05-07T09:53:13.000Z</time>
      </trkpt>
      <trkpt lat="39.038335" lon="1.38352">
        <ele>199.310866</ele>
        <time>2023-05-07T09:53:18.000Z</time>
      </trkpt>
      <trkpt lat="39.038174" lon="1.383011">
        <ele>197.090338</ele>
        <time>2023-05-07T09:53:23.000Z</time>
      </trkpt>
      <trkpt lat="39.038197" lon="1.382877">
        <ele>196.550395</ele>
        <time>2023-05-07T09:53:24.000Z</time>
      </trkpt>
      <trkpt lat="39.036426" lon="1.381826">
        <ele>187.25099</ele>
        <time>2023-05-07T09:53:46.000Z</time>
      </trkpt>
      <trkpt lat="39.036231" lon="1.381709">
        <ele>186.565513</ele>
        <time>2023-05-07T09:53:48.000Z</time>
      </trkpt>
      <trkpt lat="39.03569" lon="1.381587">
        <ele>184.995884</ele>
        <time>2023-05-07T09:53:54.000Z</time>
      </trkpt>
      <trkpt lat="39.035361" lon="1.381549">
        <ele>184.06577</ele>
        <time>2023-05-07T09:53:58.000Z</time>
      </trkpt>
      <trkpt lat="39.034924" lon="1.381563">
        <ele>182.841783</ele>
        <time>2023-05-07T09:54:03.000Z</time>
      </trkpt>
      <trkpt lat="39.034062" lon="1.381748">
        <ele>181.419184</ele>
        <time>2023-05-07T09:54:13.000Z</time>
      </trkpt>
      <trkpt lat="39.033661" lon="1.381873">
        <ele>181.008717</ele>
        <time>2023-05-07T09:54:18.000Z</time>
      </trkpt>
      <trkpt lat="39.033197" lon="1.382026">
        <ele>180.531764</ele>
        <time>2023-05-07T09:54:23.000Z</time>
      </trkpt>
      <trkpt lat="39.030581" lon="1.383151">
        <ele>179.67693</ele>
        <time>2023-05-07T09:54:54.000Z</time>
      </trkpt>
      <trkpt lat="39.030188" lon="1.383239">
        <ele>179.541261</ele>
        <time>2023-05-07T09:54:58.000Z</time>
      </trkpt>
      <trkpt lat="39.029236" lon="1.383235">
        <ele>179.103187</ele>
        <time>2023-05-07T09:55:09.000Z</time>
      </trkpt>
      <trkpt lat="39.026544" lon="1.384001">
        <ele>176.262912</ele>
        <time>2023-05-07T09:55:40.000Z</time>
      </trkpt>
      <trkpt lat="39.025891" lon="1.384206">
        <ele>175.497464</ele>
        <time>2023-05-07T09:55:47.000Z</time>
      </trkpt>
      <trkpt lat="39.025451" lon="1.384484">
        <ele>175.006639</ele>
        <time>2023-05-07T09:55:52.000Z</time>
      </trkpt>
      <trkpt lat="39.024578" lon="1.385022">
        <ele>174.029029</ele>
        <time>2023-05-07T09:56:03.000Z</time>
      </trkpt>
      <trkpt lat="39.023486" lon="1.385465">
        <ele>173.006972</ele>
        <time>2023-05-07T09:56:16.000Z</time>
      </trkpt>
      <trkpt lat="39.022581" lon="1.385824">
        <ele>172.212648</ele>
        <time>2023-05-07T09:56:27.000Z</time>
      </trkpt>
      <trkpt lat="39.02237" lon="1.385903">
        <ele>172.003345</ele>
        <time>2023-05-07T09:56:29.000Z</time>
      </trkpt>
      <trkpt lat="39.021732" lon="1.386166">
        <ele>171.378801</ele>
        <time>2023-05-07T09:56:36.000Z</time>
      </trkpt>
      <trkpt lat="39.020595" lon="1.386622">
        <ele>170.187917</ele>
        <time>2023-05-07T09:56:49.000Z</time>
      </trkpt>
      <trkpt lat="39.02013" lon="1.386793">
        <ele>169.601602</ele>
        <time>2023-05-07T09:56:54.000Z</time>
      </trkpt>
      <trkpt lat="39.019177" lon="1.387237">
        <ele>168.37294</ele>
        <time>2023-05-07T09:57:05.000Z</time>
      </trkpt>
      <trkpt lat="39.018985" lon="1.387363">
        <ele>168.064268</ele>
        <time>2023-05-07T09:57:07.000Z</time>
      </trkpt>
      <trkpt lat="39.018972" lon="1.387368">
        <ele>168.038027</ele>
        <time>2023-05-07T09:57:07.000Z</time>
      </trkpt>
      <trkpt lat="39.018581" lon="1.387742">
        <ele>167.353369</ele>
        <time>2023-05-07T09:57:12.000Z</time>
      </trkpt>
      <trkpt lat="39.018241" lon="1.388073">
        <ele>166.725138</ele>
        <time>2023-05-07T09:57:17.000Z</time>
      </trkpt>
      <trkpt lat="39.017969" lon="1.388243">
        <ele>166.306028</ele>
        <time>2023-05-07T09:57:20.000Z</time>
      </trkpt>
      <trkpt lat="39.017093" lon="1.3886">
        <ele>164.79477</ele>
        <time>2023-05-07T09:57:30.000Z</time>
      </trkpt>
      <trkpt lat="39.016922" lon="1.388664">
        <ele>164.456542</ele>
        <time>2023-05-07T09:57:32.000Z</time>
      </trkpt>
      <trkpt lat="39.015403" lon="1.3893">
        <ele>161.561723</ele>
        <time>2023-05-07T09:57:50.000Z</time>
      </trkpt>
      <trkpt lat="39.014796" lon="1.389541">
        <ele>160.378104</ele>
        <time>2023-05-07T09:57:57.000Z</time>
      </trkpt>
      <trkpt lat="39.014501" lon="1.389662">
        <ele>159.814089</ele>
        <time>2023-05-07T09:58:00.000Z</time>
      </trkpt>
      <trkpt lat="39.013616" lon="1.390161">
        <ele>157.513693</ele>
        <time>2023-05-07T09:58:11.000Z</time>
      </trkpt>
      <trkpt lat="39.012314" lon="1.391049">
        <ele>153.517727</ele>
        <time>2023-05-07T09:58:27.000Z</time>
      </trkpt>
      <trkpt lat="39.011278" lon="1.391849">
        <ele>150.332567</ele>
        <time>2023-05-07T09:58:40.000Z</time>
      </trkpt>
      <trkpt lat="39.011183" lon="1.391942">
        <ele>150.041413</ele>
        <time>2023-05-07T09:58:41.000Z</time>
      </trkpt>
      <trkpt lat="39.010978" lon="1.392152">
        <ele>149.391029</ele>
        <time>2023-05-07T09:58:44.000Z</time>
      </trkpt>
      <trkpt lat="39.010062" lon="1.39369">
        <ele>147.044058</ele>
        <time>2023-05-07T09:59:01.000Z</time>
      </trkpt>
      <trkpt lat="39.01" lon="1.39378">
        <ele>146.909914</ele>
        <time>2023-05-07T09:59:02.000Z</time>
      </trkpt>
      <trkpt lat="39.009977" lon="1.393826">
        <ele>146.842378</ele>
        <time>2023-05-07T09:59:02.000Z</time>
      </trkpt>
      <trkpt lat="39.009784" lon="1.394076">
        <ele>146.033597</ele>
        <time>2023-05-07T09:59:05.000Z</time>
      </trkpt>
      <trkpt lat="39.009703" lon="1.394173">
        <ele>145.571499</ele>
        <time>2023-05-07T09:59:06.000Z</time>
      </trkpt>
      <trkpt lat="39.009464" lon="1.394497">
        <ele>144.137605</ele>
        <time>2023-05-07T09:59:10.000Z</time>
      </trkpt>
      <trkpt lat="39.008545" lon="1.393105">
        <ele>138.616132</ele>
        <time>2023-05-07T09:59:26.000Z</time>
      </trkpt>
      <trkpt lat="39.0085" lon="1.393045">
        <ele>138.390934</ele>
        <time>2023-05-07T09:59:27.000Z</time>
      </trkpt>
      <trkpt lat="39.007553" lon="1.391584">
        <ele>133.389535</ele>
        <time>2023-05-07T09:59:43.000Z</time>
      </trkpt>
      <trkpt lat="39.006929" lon="1.390579">
        <ele>131.537501</ele>
        <time>2023-05-07T09:59:54.000Z</time>
      </trkpt>
      <trkpt lat="39.006744" lon="1.390179">
        <ele>130.882257</ele>
        <time>2023-05-07T09:59:58.000Z</time>
      </trkpt>
      <trkpt lat="39.006582" lon="1.388756">
        <ele>128.6225</ele>
        <time>2023-05-07T10:00:10.000Z</time>
      </trkpt>
      <trkpt lat="39.006512" lon="1.38818">
        <ele>127.652049</ele>
        <time>2023-05-07T10:00:15.000Z</time>
      </trkpt>
      <trkpt lat="39.006161" lon="1.386944">
        <ele>125.971921</ele>
        <time>2023-05-07T10:00:26.000Z</time>
      </trkpt>
      <trkpt lat="39.005869" lon="1.386312">
        <ele>125.580065</ele>
        <time>2023-05-07T10:00:32.000Z</time>
      </trkpt>
      <trkpt lat="39.005659" lon="1.386049">
        <ele>125.384065</ele>
        <time>2023-05-07T10:00:35.000Z</time>
      </trkpt>
      <trkpt lat="39.004298" lon="1.384415">
        <ele>125.689133</ele>
        <time>2023-05-07T10:00:56.000Z</time>
      </trkpt>
      <trkpt lat="39.003483" lon="1.383521">
        <ele>125.401744</ele>
        <time>2023-05-07T10:01:08.000Z</time>
      </trkpt>
      <trkpt lat="39.00272" lon="1.382973">
        <ele>124.491895</ele>
        <time>2023-05-07T10:01:18.000Z</time>
      </trkpt>
      <trkpt lat="39.002465" lon="1.383405">
        <ele>123.964532</ele>
        <time>2023-05-07T10:01:23.000Z</time>
      </trkpt>
      <trkpt lat="39.002055" lon="1.384302">
        <ele>121.169564</ele>
        <time>2023-05-07T10:01:32.000Z</time>
      </trkpt>
      <trkpt lat="39.001512" lon="1.385214">
        <ele>118.105326</ele>
        <time>2023-05-07T10:01:42.000Z</time>
      </trkpt>
      <trkpt lat="39.001427" lon="1.38536">
        <ele>117.725582</ele>
        <time>2023-05-07T10:01:44.000Z</time>
      </trkpt>
      <trkpt lat="39.001139" lon="1.385829">
        <ele>116.540803</ele>
        <time>2023-05-07T10:01:49.000Z</time>
      </trkpt>
      <trkpt lat="38.999568" lon="1.38717">
        <ele>112.194884</ele>
        <time>2023-05-07T10:02:10.000Z</time>
      </trkpt>
      <trkpt lat="38.99931" lon="1.387792">
        <ele>111.219098</ele>
        <time>2023-05-07T10:02:16.000Z</time>
      </trkpt>
      <trkpt lat="38.998751" lon="1.388378">
        <ele>109.94122</ele>
        <time>2023-05-07T10:02:24.000Z</time>
      </trkpt>
      <trkpt lat="38.998019" lon="1.388531">
        <ele>108.944015</ele>
        <time>2023-05-07T10:02:32.000Z</time>
      </trkpt>
      <trkpt lat="38.997792" lon="1.388616">
        <ele>108.62796</ele>
        <time>2023-05-07T10:02:35.000Z</time>
      </trkpt>
      <trkpt lat="38.997125" lon="1.388943">
        <ele>107.687897</ele>
        <time>2023-05-07T10:02:43.000Z</time>
      </trkpt>
      <trkpt lat="38.996436" lon="1.389392">
        <ele>106.903567</ele>
        <time>2023-05-07T10:02:52.000Z</time>
      </trkpt>
      <trkpt lat="38.995698" lon="1.389788">
        <ele>106.12316</ele>
        <time>2023-05-07T10:03:01.000Z</time>
      </trkpt>
      <trkpt lat="38.995129" lon="1.390559">
        <ele>104.893981</ele>
        <time>2023-05-07T10:03:10.000Z</time>
      </trkpt>
      <trkpt lat="38.994303" lon="1.391577">
        <ele>103.046582</ele>
        <time>2023-05-07T10:03:23.000Z</time>
      </trkpt>
      <trkpt lat="38.993373" lon="1.392061">
        <ele>101.754877</ele>
        <time>2023-05-07T10:03:34.000Z</time>
      </trkpt>
      <trkpt lat="38.993162" lon="1.392142">
        <ele>101.457256</ele>
        <time>2023-05-07T10:03:36.000Z</time>
      </trkpt>
      <trkpt lat="38.992451" lon="1.39237">
        <ele>100.510581</ele>
        <time>2023-05-07T10:03:44.000Z</time>
      </trkpt>
      <trkpt lat="38.992017" lon="1.392641">
        <ele>99.757535</ele>
        <time>2023-05-07T10:03:49.000Z</time>
      </trkpt>
      <trkpt lat="38.990503" lon="1.393897">
        <ele>96.867508</ele>
        <time>2023-05-07T10:04:09.000Z</time>
      </trkpt>
      <trkpt lat="38.98992" lon="1.394226">
        <ele>95.755203</ele>
        <time>2023-05-07T10:04:16.000Z</time>
      </trkpt>
      <trkpt lat="38.989352" lon="1.39459">
        <ele>94.831909</ele>
        <time>2023-05-07T10:04:23.000Z</time>
      </trkpt>
      <trkpt lat="38.989314" lon="1.394607">
        <ele>94.857856</ele>
        <time>2023-05-07T10:04:23.000Z</time>
      </trkpt>
      <trkpt lat="38.988719" lon="1.394981">
        <ele>95.159559</ele>
        <time>2023-05-07T10:04:30.000Z</time>
      </trkpt>
      <trkpt lat="38.988165" lon="1.395481">
        <ele>95.470732</ele>
        <time>2023-05-07T10:04:38.000Z</time>
      </trkpt>
      <trkpt lat="38.987789" lon="1.395883">
        <ele>95.533623</ele>
        <time>2023-05-07T10:04:43.000Z</time>
      </trkpt>
      <trkpt lat="38.987735" lon="1.395939">
        <ele>95.493043</ele>
        <time>2023-05-07T10:04:44.000Z</time>
      </trkpt>
      <trkpt lat="38.987456" lon="1.396506">
        <ele>95.124067</ele>
        <time>2023-05-07T10:04:50.000Z</time>
      </trkpt>
      <trkpt lat="38.987167" lon="1.397053">
        <ele>94.767439</ele>
        <time>2023-05-07T10:04:56.000Z</time>
      </trkpt>
      <trkpt lat="38.986525" lon="1.398668">
        <ele>91.989419</ele>
        <time>2023-05-07T10:05:12.000Z</time>
      </trkpt>
      <trkpt lat="38.986458" lon="1.399011">
        <ele>91.184643</ele>
        <time>2023-05-07T10:05:15.000Z</time>
      </trkpt>
      <trkpt lat="38.986424" lon="1.399658">
        <ele>89.792277</ele>
        <time>2023-05-07T10:05:21.000Z</time>
      </trkpt>
      <trkpt lat="38.986286" lon="1.400599">
        <ele>88.494663</ele>
        <time>2023-05-07T10:05:29.000Z</time>
      </trkpt>
      <trkpt lat="38.985727" lon="1.401166">
        <ele>87.492631</ele>
        <time>2023-05-07T10:05:37.000Z</time>
      </trkpt>
      <trkpt lat="38.985481" lon="1.401434">
        <ele>87.026175</ele>
        <time>2023-05-07T10:05:41.000Z</time>
      </trkpt>
      <trkpt lat="38.98524" lon="1.401785">
        <ele>86.526014</ele>
        <time>2023-05-07T10:05:45.000Z</time>
      </trkpt>
      <trkpt lat="38.98511" lon="1.402079">
        <ele>86.171655</ele>
        <time>2023-05-07T10:05:48.000Z</time>
      </trkpt>
      <trkpt lat="38.984741" lon="1.402961">
        <ele>85.104831</ele>
        <time>2023-05-07T10:05:57.000Z</time>
      </trkpt>
      <trkpt lat="38.984247" lon="1.405532">
        <ele>80.654952</ele>
        <time>2023-05-07T10:06:20.000Z</time>
      </trkpt>
      <trkpt lat="38.98401" lon="1.406699">
        <ele>78.169438</ele>
        <time>2023-05-07T10:06:30.000Z</time>
      </trkpt>
      <trkpt lat="38.984064" lon="1.407466">
        <ele>76.466474</ele>
        <time>2023-05-07T10:06:37.000Z</time>
      </trkpt>
      <trkpt lat="38.984088" lon="1.40798">
        <ele>75.357222</ele>
        <time>2023-05-07T10:06:41.000Z</time>
      </trkpt>
      <trkpt lat="38.983525" lon="1.409093">
        <ele>73.440503</ele>
        <time>2023-05-07T10:06:52.000Z</time>
      </trkpt>
      <trkpt lat="38.98288" lon="1.410252">
        <ele>71.646618</ele>
        <time>2023-05-07T10:07:04.000Z</time>
      </trkpt>
      <trkpt lat="38.981834" lon="1.411568">
        <ele>69.645875</ele>
        <time>2023-05-07T10:07:20.000Z</time>
      </trkpt>
      <trkpt lat="38.980618" lon="1.413099">
        <ele>67.064424</ele>
        <time>2023-05-07T10:07:39.000Z</time>
      </trkpt>
      <trkpt lat="38.980173" lon="1.413682">
        <ele>66.814379</ele>
        <time>2023-05-07T10:07:46.000Z</time>
      </trkpt>
      <trkpt lat="38.979587" lon="1.414385">
        <ele>67.197579</ele>
        <time>2023-05-07T10:07:55.000Z</time>
      </trkpt>
      <trkpt lat="38.97946" lon="1.414488">
        <ele>67.274954</ele>
        <time>2023-05-07T10:07:57.000Z</time>
      </trkpt>
      <trkpt lat="38.979203" lon="1.414463">
        <ele>67.398488</ele>
        <time>2023-05-07T10:08:00.000Z</time>
      </trkpt>
      <trkpt lat="38.979171" lon="1.414451">
        <ele>67.413204</ele>
        <time>2023-05-07T10:08:00.000Z</time>
      </trkpt>
      <trkpt lat="38.979019" lon="1.414311">
        <ele>67.50163</ele>
        <time>2023-05-07T10:08:02.000Z</time>
      </trkpt>
      <trkpt lat="38.978935" lon="1.414168">
        <ele>67.837262</ele>
        <time>2023-05-07T10:08:04.000Z</time>
      </trkpt>
      <trkpt lat="38.977878" lon="1.411591">
        <ele>73.920243</ele>
        <time>2023-05-07T10:08:29.000Z</time>
      </trkpt>
      <trkpt lat="38.977857" lon="1.411533">
        <ele>74.062756</ele>
        <time>2023-05-07T10:08:30.000Z</time>
      </trkpt>
      <trkpt lat="38.977376" lon="1.410159">
        <ele>77.981122</ele>
        <time>2023-05-07T10:08:43.000Z</time>
      </trkpt>
      <trkpt lat="38.976978" lon="1.408964">
        <ele>83.011894</ele>
        <time>2023-05-07T10:08:54.000Z</time>
      </trkpt>
      <trkpt lat="38.976636" lon="1.407937">
        <ele>87.521103</ele>
        <time>2023-05-07T10:09:04.000Z</time>
      </trkpt>
      <trkpt lat="38.976605" lon="1.407847">
        <ele>88.107724</ele>
        <time>2023-05-07T10:09:05.000Z</time>
      </trkpt>
      <trkpt lat="38.976459" lon="1.407506">
        <ele>90.298277</ele>
        <time>2023-05-07T10:09:08.000Z</time>
      </trkpt>
      <trkpt lat="38.976347" lon="1.407289">
        <ele>91.871232</ele>
        <time>2023-05-07T10:09:10.000Z</time>
      </trkpt>
      <trkpt lat="38.976087" lon="1.406918">
        <ele>94.701757</ele>
        <time>2023-05-07T10:09:14.000Z</time>
      </trkpt>
      <trkpt lat="38.975837" lon="1.406611">
        <ele>97.224799</ele>
        <time>2023-05-07T10:09:18.000Z</time>
      </trkpt>
      <trkpt lat="38.975524" lon="1.406341">
        <ele>99.995693</ele>
        <time>2023-05-07T10:09:22.000Z</time>
      </trkpt>
      <trkpt lat="38.97517" lon="1.406117">
        <ele>102.275954</ele>
        <time>2023-05-07T10:09:26.000Z</time>
      </trkpt>
      <trkpt lat="38.974757" lon="1.405935">
        <ele>104.820298</ele>
        <time>2023-05-07T10:09:31.000Z</time>
      </trkpt>
      <trkpt lat="38.973483" lon="1.405386">
        <ele>112.116626</ele>
        <time>2023-05-07T10:09:46.000Z</time>
      </trkpt>
      <trkpt lat="38.973003" lon="1.405262">
        <ele>114.316486</ele>
        <time>2023-05-07T10:09:51.000Z</time>
      </trkpt>
      <trkpt lat="38.972701" lon="1.405248">
        <ele>115.623749</ele>
        <time>2023-05-07T10:09:54.000Z</time>
      </trkpt>
      <trkpt lat="38.972397" lon="1.405302">
        <ele>116.930153</ele>
        <time>2023-05-07T10:09:57.000Z</time>
      </trkpt>
      <trkpt lat="38.972141" lon="1.405379">
        <ele>118.15677</ele>
        <time>2023-05-07T10:10:00.000Z</time>
      </trkpt>
      <trkpt lat="38.971857" lon="1.405495">
        <ele>119.798969</ele>
        <time>2023-05-07T10:10:03.000Z</time>
      </trkpt>
      <trkpt lat="38.971053" lon="1.406083">
        <ele>125.525888</ele>
        <time>2023-05-07T10:10:13.000Z</time>
      </trkpt>
      <trkpt lat="38.970404" lon="1.406532">
        <ele>129.931339</ele>
        <time>2023-05-07T10:10:21.000Z</time>
      </trkpt>
      <trkpt lat="38.96993" lon="1.406785">
        <ele>132.162435</ele>
        <time>2023-05-07T10:10:27.000Z</time>
      </trkpt>
      <trkpt lat="38.96938" lon="1.406951">
        <ele>134.729009</ele>
        <time>2023-05-07T10:10:33.000Z</time>
      </trkpt>
      <trkpt lat="38.968839" lon="1.406981">
        <ele>137.16777</ele>
        <time>2023-05-07T10:10:39.000Z</time>
      </trkpt>
      <trkpt lat="38.967995" lon="1.406853">
        <ele>138.210887</ele>
        <time>2023-05-07T10:10:48.000Z</time>
      </trkpt>
      <trkpt lat="38.96764" lon="1.406763">
        <ele>138.535492</ele>
        <time>2023-05-07T10:10:52.000Z</time>
      </trkpt>
      <trkpt lat="38.966874" lon="1.406581">
        <ele>138.809303</ele>
        <time>2023-05-07T10:11:01.000Z</time>
      </trkpt>
      <trkpt lat="38.966309" lon="1.406387">
        <ele>136.942144</ele>
        <time>2023-05-07T10:11:08.000Z</time>
      </trkpt>
      <trkpt lat="38.96613" lon="1.406286">
        <ele>136.358403</ele>
        <time>2023-05-07T10:11:10.000Z</time>
      </trkpt>
      <trkpt lat="38.965945" lon="1.406183">
        <ele>135.716621</ele>
        <time>2023-05-07T10:11:12.000Z</time>
      </trkpt>
      <trkpt lat="38.965717" lon="1.405991">
        <ele>134.864113</ele>
        <time>2023-05-07T10:11:15.000Z</time>
      </trkpt>
      <trkpt lat="38.964883" lon="1.405233">
        <ele>129.725778</ele>
        <time>2023-05-07T10:11:26.000Z</time>
      </trkpt>
      <trkpt lat="38.964553" lon="1.404901">
        <ele>127.005516</ele>
        <time>2023-05-07T10:11:31.000Z</time>
      </trkpt>
      <trkpt lat="38.964264" lon="1.404507">
        <ele>124.36553</ele>
        <time>2023-05-07T10:11:36.000Z</time>
      </trkpt>
      <trkpt lat="38.963779" lon="1.403636">
        <ele>120.617332</ele>
        <time>2023-05-07T10:11:45.000Z</time>
      </trkpt>
      <trkpt lat="38.963487" lon="1.403119">
        <ele>119.182806</ele>
        <time>2023-05-07T10:11:51.000Z</time>
      </trkpt>
      <trkpt lat="38.963309" lon="1.402867">
        <ele>118.373268</ele>
        <time>2023-05-07T10:11:54.000Z</time>
      </trkpt>
      <trkpt lat="38.962907" lon="1.402347">
        <ele>116.682405</ele>
        <time>2023-05-07T10:12:00.000Z</time>
      </trkpt>
      <trkpt lat="38.962208" lon="1.401515">
        <ele>118.827042</ele>
        <time>2023-05-07T10:12:11.000Z</time>
      </trkpt>
      <trkpt lat="38.961799" lon="1.400982">
        <ele>120.172912</ele>
        <time>2023-05-07T10:12:17.000Z</time>
      </trkpt>
      <trkpt lat="38.961586" lon="1.400571">
        <ele>120.975342</ele>
        <time>2023-05-07T10:12:21.000Z</time>
      </trkpt>
      <trkpt lat="38.961476" lon="1.400243">
        <ele>121.414374</ele>
        <time>2023-05-07T10:12:24.000Z</time>
      </trkpt>
      <trkpt lat="38.961446" lon="1.399999">
        <ele>121.735725</ele>
        <time>2023-05-07T10:12:26.000Z</time>
      </trkpt>
      <trkpt lat="38.961436" lon="1.399734">
        <ele>122.084709</ele>
        <time>2023-05-07T10:12:28.000Z</time>
      </trkpt>
      <trkpt lat="38.96147" lon="1.399176">
        <ele>122.793334</ele>
        <time>2023-05-07T10:12:33.000Z</time>
      </trkpt>
      <trkpt lat="38.961235" lon="1.399148">
        <ele>123.189212</ele>
        <time>2023-05-07T10:12:36.000Z</time>
      </trkpt>
      <trkpt lat="38.960838" lon="1.398974">
        <ele>124.026656</ele>
        <time>2023-05-07T10:12:41.000Z</time>
      </trkpt>
      <trkpt lat="38.960616" lon="1.398845">
        <ele>124.880656</ele>
        <time>2023-05-07T10:12:44.000Z</time>
      </trkpt>
      <trkpt lat="38.960524" lon="1.398802">
        <ele>125.278907</ele>
        <time>2023-05-07T10:12:45.000Z</time>
      </trkpt>
      <trkpt lat="38.960412" lon="1.398698">
        <ele>125.72083</ele>
        <time>2023-05-07T10:12:47.000Z</time>
      </trkpt>
      <trkpt lat="38.960386" lon="1.398681">
        <ele>125.828669</ele>
        <time>2023-05-07T10:12:47.000Z</time>
      </trkpt>
      <trkpt lat="38.960319" lon="1.398574">
        <ele>126.213285</ele>
        <time>2023-05-07T10:12:48.000Z</time>
      </trkpt>
      <trkpt lat="38.960316" lon="1.398559">
        <ele>126.2801</ele>
        <time>2023-05-07T10:12:48.000Z</time>
      </trkpt>
      <trkpt lat="38.960473" lon="1.398158">
        <ele>127.490048</ele>
        <time>2023-05-07T10:12:52.000Z</time>
      </trkpt>
      <trkpt lat="38.960623" lon="1.397895">
        <ele>128.382308</ele>
        <time>2023-05-07T10:12:55.000Z</time>
      </trkpt>
      <trkpt lat="38.960632" lon="1.397882">
        <ele>128.423833</ele>
        <time>2023-05-07T10:12:55.000Z</time>
      </trkpt>
      <trkpt lat="38.961327" lon="1.396637">
        <ele>133.391716</ele>
        <time>2023-05-07T10:13:08.000Z</time>
      </trkpt>
      <trkpt lat="38.961558" lon="1.396172">
        <ele>135.277899</ele>
        <time>2023-05-07T10:13:13.000Z</time>
      </trkpt>
      <trkpt lat="38.962067" lon="1.395101">
        <ele>137.918895</ele>
        <time>2023-05-07T10:13:24.000Z</time>
      </trkpt>
      <trkpt lat="38.962208" lon="1.394777">
        <ele>137.646343</ele>
        <time>2023-05-07T10:13:27.000Z</time>
      </trkpt>
      <trkpt lat="38.962616" lon="1.394033">
        <ele>136.990881</ele>
        <time>2023-05-07T10:13:35.000Z</time>
      </trkpt>
      <trkpt lat="38.962738" lon="1.393762">
        <ele>136.76443</ele>
        <time>2023-05-07T10:13:38.000Z</time>
      </trkpt>
      <trkpt lat="38.963212" lon="1.392406">
        <ele>132.417311</ele>
        <time>2023-05-07T10:13:51.000Z</time>
      </trkpt>
      <trkpt lat="38.963376" lon="1.391764">
        <ele>130.06499</ele>
        <time>2023-05-07T10:13:57.000Z</time>
      </trkpt>
      <trkpt lat="38.963475" lon="1.391121">
        <ele>127.906613</ele>
        <time>2023-05-07T10:14:03.000Z</time>
      </trkpt>
      <trkpt lat="38.963646" lon="1.390505">
        <ele>125.947224</ele>
        <time>2023-05-07T10:14:09.000Z</time>
      </trkpt>
      <trkpt lat="38.963921" lon="1.389266">
        <ele>122.108744</ele>
        <time>2023-05-07T10:14:20.000Z</time>
      </trkpt>
      <trkpt lat="38.964176" lon="1.387958">
        <ele>120.100843</ele>
        <time>2023-05-07T10:14:32.000Z</time>
      </trkpt>
      <trkpt lat="38.964427" lon="1.386006">
        <ele>118.998488</ele>
        <time>2023-05-07T10:14:49.000Z</time>
      </trkpt>
      <trkpt lat="38.964565" lon="1.384402">
        <ele>119.880334</ele>
        <time>2023-05-07T10:15:03.000Z</time>
      </trkpt>
      <trkpt lat="38.964678" lon="1.382527">
        <ele>123.557323</ele>
        <time>2023-05-07T10:15:19.000Z</time>
      </trkpt>
      <trkpt lat="38.964727" lon="1.38174">
        <ele>124.713692</ele>
        <time>2023-05-07T10:15:26.000Z</time>
      </trkpt>
      <trkpt lat="38.964822" lon="1.380706">
        <ele>125.933288</ele>
        <time>2023-05-07T10:15:35.000Z</time>
      </trkpt>
      <trkpt lat="38.965" lon="1.379442">
        <ele>125.474861</ele>
        <time>2023-05-07T10:15:46.000Z</time>
      </trkpt>
      <trkpt lat="38.965282" lon="1.377806">
        <ele>121.017691</ele>
        <time>2023-05-07T10:16:00.000Z</time>
      </trkpt>
      <trkpt lat="38.965466" lon="1.376908">
        <ele>117.145836</ele>
        <time>2023-05-07T10:16:08.000Z</time>
      </trkpt>
      <trkpt lat="38.965743" lon="1.375763">
        <ele>111.785948</ele>
        <time>2023-05-07T10:16:18.000Z</time>
      </trkpt>
      <trkpt lat="38.96587" lon="1.375304">
        <ele>109.932266</ele>
        <time>2023-05-07T10:16:22.000Z</time>
      </trkpt>
      <trkpt lat="38.965975" lon="1.374889">
        <ele>108.647178</ele>
        <time>2023-05-07T10:16:26.000Z</time>
      </trkpt>
      <trkpt lat="38.966127" lon="1.374379">
        <ele>107.002847</ele>
        <time>2023-05-07T10:16:31.000Z</time>
      </trkpt>
      <trkpt lat="38.966749" lon="1.372263">
        <ele>101.513725</ele>
        <time>2023-05-07T10:16:51.000Z</time>
      </trkpt>
      <trkpt lat="38.967008" lon="1.37133">
        <ele>99.655679</ele>
        <time>2023-05-07T10:17:00.000Z</time>
      </trkpt>
      <trkpt lat="38.967358" lon="1.369936">
        <ele>96.406217</ele>
        <time>2023-05-07T10:17:13.000Z</time>
      </trkpt>
      <trkpt lat="38.967683" lon="1.368546">
        <ele>92.892278</ele>
        <time>2023-05-07T10:17:26.000Z</time>
      </trkpt>
      <trkpt lat="38.967875" lon="1.367591">
        <ele>90.023395</ele>
        <time>2023-05-07T10:17:35.000Z</time>
      </trkpt>
      <trkpt lat="38.968272" lon="1.365544">
        <ele>84.330169</ele>
        <time>2023-05-07T10:17:53.000Z</time>
      </trkpt>
      <trkpt lat="38.968394" lon="1.364871">
        <ele>82.595151</ele>
        <time>2023-05-07T10:17:59.000Z</time>
      </trkpt>
      <trkpt lat="38.968537" lon="1.364002">
        <ele>80.559824</ele>
        <time>2023-05-07T10:18:07.000Z</time>
      </trkpt>
      <trkpt lat="38.969051" lon="1.361283">
        <ele>74.502038</ele>
        <time>2023-05-07T10:18:31.000Z</time>
      </trkpt>
      <trkpt lat="38.969091" lon="1.361117">
        <ele>74.084764</ele>
        <time>2023-05-07T10:18:33.000Z</time>
      </trkpt>
      <trkpt lat="38.969634" lon="1.358518">
        <ele>67.715781</ele>
        <time>2023-05-07T10:18:56.000Z</time>
      </trkpt>
      <trkpt lat="38.969682" lon="1.358272">
        <ele>67.07551</ele>
        <time>2023-05-07T10:18:58.000Z</time>
      </trkpt>
      <trkpt lat="38.969957" lon="1.356953">
        <ele>64.88108</ele>
        <time>2023-05-07T10:19:10.000Z</time>
      </trkpt>
      <trkpt lat="38.970573" lon="1.354002">
        <ele>62.467596</ele>
        <time>2023-05-07T10:19:36.000Z</time>
      </trkpt>
      <trkpt lat="38.970682" lon="1.353454">
        <ele>62.155092</ele>
        <time>2023-05-07T10:19:41.000Z</time>
      </trkpt>
      <trkpt lat="38.970866" lon="1.352399">
        <ele>61.55617</ele>
        <time>2023-05-07T10:19:50.000Z</time>
      </trkpt>
      <trkpt lat="38.970917" lon="1.352089">
        <ele>61.381298</ele>
        <time>2023-05-07T10:19:53.000Z</time>
      </trkpt>
      <trkpt lat="38.970957" lon="1.351789">
        <ele>61.216614</ele>
        <time>2023-05-07T10:19:56.000Z</time>
      </trkpt>
      <trkpt lat="38.971075" lon="1.351048">
        <ele>60.793695</ele>
        <time>2023-05-07T10:20:03.000Z</time>
      </trkpt>
      <trkpt lat="38.971117" lon="1.350862">
        <ele>60.763389</ele>
        <time>2023-05-07T10:20:05.000Z</time>
      </trkpt>
      <trkpt lat="38.97119" lon="1.350719">
        <ele>60.779244</ele>
        <time>2023-05-07T10:20:06.000Z</time>
      </trkpt>
      <trkpt lat="38.971255" lon="1.350662">
        <ele>60.790065</ele>
        <time>2023-05-07T10:20:07.000Z</time>
      </trkpt>
      <trkpt lat="38.971294" lon="1.350563">
        <ele>60.800844</ele>
        <time>2023-05-07T10:20:08.000Z</time>
      </trkpt>
      <trkpt lat="38.971291" lon="1.350462">
        <ele>60.811223</ele>
        <time>2023-05-07T10:20:09.000Z</time>
      </trkpt>
      <trkpt lat="38.97127" lon="1.350358">
        <ele>60.82158</ele>
        <time>2023-05-07T10:20:10.000Z</time>
      </trkpt>
      <trkpt lat="38.97119" lon="1.350293">
        <ele>60.832354</ele>
        <time>2023-05-07T10:20:11.000Z</time>
      </trkpt>
      <trkpt lat="38.971105" lon="1.350248">
        <ele>60.844597</ele>
        <time>2023-05-07T10:20:12.000Z</time>
      </trkpt>
      <trkpt lat="38.971011" lon="1.350286">
        <ele>60.85686</ele>
        <time>2023-05-07T10:20:13.000Z</time>
      </trkpt>
      <trkpt lat="38.971" lon="1.350299">
        <ele>60.858819</ele>
        <time>2023-05-07T10:20:13.000Z</time>
      </trkpt>
      <trkpt lat="38.970952" lon="1.350326">
        <ele>60.865564</ele>
        <time>2023-05-07T10:20:14.000Z</time>
      </trkpt>
      <trkpt lat="38.970908" lon="1.350456">
        <ele>60.878843</ele>
        <time>2023-05-07T10:20:15.000Z</time>
      </trkpt>
      <trkpt lat="38.970935" lon="1.350607">
        <ele>60.894365</ele>
        <time>2023-05-07T10:20:16.000Z</time>
      </trkpt>
      <trkpt lat="38.970964" lon="1.350892">
        <ele>60.922594</ele>
        <time>2023-05-07T10:20:18.000Z</time>
      </trkpt>
      <trkpt lat="38.970949" lon="1.351207">
        <ele>60.953612</ele>
        <time>2023-05-07T10:20:21.000Z</time>
      </trkpt>
      <trkpt lat="38.970612" lon="1.353193">
        <ele>61.72894</ele>
        <time>2023-05-07T10:20:39.000Z</time>
      </trkpt>
      <trkpt lat="38.97035" lon="1.354519">
        <ele>62.423894</ele>
        <time>2023-05-07T10:20:51.000Z</time>
      </trkpt>
      <trkpt lat="38.970001" lon="1.356213">
        <ele>63.695479</ele>
        <time>2023-05-07T10:21:06.000Z</time>
      </trkpt>
      <trkpt lat="38.969576" lon="1.358261">
        <ele>67.4779</ele>
        <time>2023-05-07T10:21:24.000Z</time>
      </trkpt>
      <trkpt lat="38.969474" lon="1.358757">
        <ele>68.762358</ele>
        <time>2023-05-07T10:21:28.000Z</time>
      </trkpt>
      <trkpt lat="38.969043" lon="1.360088">
        <ele>72.462284</ele>
        <time>2023-05-07T10:21:40.000Z</time>
      </trkpt>
      <trkpt lat="38.968771" lon="1.361099">
        <ele>74.911337</ele>
        <time>2023-05-07T10:21:49.000Z</time>
      </trkpt>
      <trkpt lat="38.968631" lon="1.361817">
        <ele>76.54707</ele>
        <time>2023-05-07T10:21:55.000Z</time>
      </trkpt>
      <trkpt lat="38.968618" lon="1.361848">
        <ele>76.612262</ele>
        <time>2023-05-07T10:21:55.000Z</time>
      </trkpt>
      <trkpt lat="38.968601" lon="1.36196">
        <ele>76.864344</ele>
        <time>2023-05-07T10:21:56.000Z</time>
      </trkpt>
      <trkpt lat="38.968493" lon="1.362827">
        <ele>78.780746</ele>
        <time>2023-05-07T10:22:04.000Z</time>
      </trkpt>
      <trkpt lat="38.968405" lon="1.363598">
        <ele>80.353918</ele>
        <time>2023-05-07T10:22:11.000Z</time>
      </trkpt>
      <trkpt lat="38.968369" lon="1.364367">
        <ele>81.900467</ele>
        <time>2023-05-07T10:22:18.000Z</time>
      </trkpt>
      <trkpt lat="38.968244" lon="1.365108">
        <ele>83.606095</ele>
        <time>2023-05-07T10:22:25.000Z</time>
      </trkpt>
      <trkpt lat="38.968068" lon="1.36608">
        <ele>86.351383</ele>
        <time>2023-05-07T10:22:34.000Z</time>
      </trkpt>
      <trkpt lat="38.967736" lon="1.367776">
        <ele>91.404396</ele>
        <time>2023-05-07T10:22:49.000Z</time>
      </trkpt>
      <trkpt lat="38.967634" lon="1.368293">
        <ele>92.976748</ele>
        <time>2023-05-07T10:22:54.000Z</time>
      </trkpt>
      <trkpt lat="38.967463" lon="1.369035">
        <ele>95.306209</ele>
        <time>2023-05-07T10:23:01.000Z</time>
      </trkpt>
      <trkpt lat="38.967066" lon="1.370665">
        <ele>98.903615</ele>
        <time>2023-05-07T10:23:16.000Z</time>
      </trkpt>
      <trkpt lat="38.966662" lon="1.372181">
        <ele>101.820466</ele>
        <time>2023-05-07T10:23:30.000Z</time>
      </trkpt>
      <trkpt lat="38.966493" lon="1.372816">
        <ele>103.00268</ele>
        <time>2023-05-07T10:23:36.000Z</time>
      </trkpt>
      <trkpt lat="38.966269" lon="1.373589">
        <ele>104.437355</ele>
        <time>2023-05-07T10:23:43.000Z</time>
      </trkpt>
      <trkpt lat="38.966102" lon="1.374119">
        <ele>106.174025</ele>
        <time>2023-05-07T10:23:48.000Z</time>
      </trkpt>
      <trkpt lat="38.96586" lon="1.374938">
        <ele>109.300929</ele>
        <time>2023-05-07T10:23:56.000Z</time>
      </trkpt>
      <trkpt lat="38.965777" lon="1.375266">
        <ele>110.547448</ele>
        <time>2023-05-07T10:23:59.000Z</time>
      </trkpt>
      <trkpt lat="38.965709" lon="1.375466">
        <ele>111.348937</ele>
        <time>2023-05-07T10:24:01.000Z</time>
      </trkpt>
      <trkpt lat="38.965371" lon="1.376882">
        <ele>117.541619</ele>
        <time>2023-05-07T10:24:14.000Z</time>
      </trkpt>
      <trkpt lat="38.965018" lon="1.378634">
        <ele>124.241348</ele>
        <time>2023-05-07T10:24:30.000Z</time>
      </trkpt>
      <trkpt lat="38.964776" lon="1.380204">
        <ele>127.009587</ele>
        <time>2023-05-07T10:24:44.000Z</time>
      </trkpt>
      <trkpt lat="38.964675" lon="1.381128">
        <ele>126.064118</ele>
        <time>2023-05-07T10:24:52.000Z</time>
      </trkpt>
      <trkpt lat="38.964587" lon="1.382277">
        <ele>124.002978</ele>
        <time>2023-05-07T10:25:02.000Z</time>
      </trkpt>
      <trkpt lat="38.964547" lon="1.382949">
        <ele>122.841863</ele>
        <time>2023-05-07T10:25:08.000Z</time>
      </trkpt>
      <trkpt lat="38.964456" lon="1.384454">
        <ele>120.478797</ele>
        <time>2023-05-07T10:25:21.000Z</time>
      </trkpt>
      <trkpt lat="38.96439" lon="1.385276">
        <ele>119.609778</ele>
        <time>2023-05-07T10:25:28.000Z</time>
      </trkpt>
      <trkpt lat="38.964147" lon="1.387404">
        <ele>119.811565</ele>
        <time>2023-05-07T10:25:47.000Z</time>
      </trkpt>
      <trkpt lat="38.963915" lon="1.388814">
        <ele>122.369495</ele>
        <time>2023-05-07T10:25:59.000Z</time>
      </trkpt>
      <trkpt lat="38.963533" lon="1.390518">
        <ele>127.057723</ele>
        <time>2023-05-07T10:26:14.000Z</time>
      </trkpt>
      <trkpt lat="38.963325" lon="1.391338">
        <ele>129.982549</ele>
        <time>2023-05-07T10:26:21.000Z</time>
      </trkpt>
      <trkpt lat="38.963051" lon="1.3922">
        <ele>132.351014</ele>
        <time>2023-05-07T10:26:29.000Z</time>
      </trkpt>
      <trkpt lat="38.962606" lon="1.393534">
        <ele>134.945541</ele>
        <time>2023-05-07T10:26:42.000Z</time>
      </trkpt>
      <trkpt lat="38.962034" lon="1.395011">
        <ele>133.569999</ele>
        <time>2023-05-07T10:26:56.000Z</time>
      </trkpt>
      <trkpt lat="38.961446" lon="1.396301">
        <ele>130.530802</ele>
        <time>2023-05-07T10:27:09.000Z</time>
      </trkpt>
      <trkpt lat="38.960799" lon="1.397494">
        <ele>126.217422</ele>
        <time>2023-05-07T10:27:22.000Z</time>
      </trkpt>
      <trkpt lat="38.960154" lon="1.398604">
        <ele>121.954734</ele>
        <time>2023-05-07T10:27:34.000Z</time>
      </trkpt>
      <trkpt lat="38.959512" lon="1.399597">
        <ele>117.936485</ele>
        <time>2023-05-07T10:27:45.000Z</time>
      </trkpt>
      <trkpt lat="38.958346" lon="1.401403">
        <ele>110.672879</ele>
        <time>2023-05-07T10:28:05.000Z</time>
      </trkpt>
      <trkpt lat="38.957584" lon="1.402562">
        <ele>106.082118</ele>
        <time>2023-05-07T10:28:18.000Z</time>
      </trkpt>
      <trkpt lat="38.957449" lon="1.402755">
        <ele>105.284955</ele>
        <time>2023-05-07T10:28:20.000Z</time>
      </trkpt>
      <trkpt lat="38.957417" lon="1.402828">
        <ele>104.996141</ele>
        <time>2023-05-07T10:28:21.000Z</time>
      </trkpt>
      <trkpt lat="38.957318" lon="1.402973">
        <ele>104.427404</ele>
        <time>2023-05-07T10:28:23.000Z</time>
      </trkpt>
      <trkpt lat="38.957148" lon="1.403152">
        <ele>103.570967</ele>
        <time>2023-05-07T10:28:25.000Z</time>
      </trkpt>
      <trkpt lat="38.95704" lon="1.403255">
        <ele>102.821534</ele>
        <time>2023-05-07T10:28:26.000Z</time>
      </trkpt>
      <trkpt lat="38.95702" lon="1.403368">
        <ele>102.313745</ele>
        <time>2023-05-07T10:28:27.000Z</time>
      </trkpt>
      <trkpt lat="38.957023" lon="1.403407">
        <ele>102.075392</ele>
        <time>2023-05-07T10:28:27.000Z</time>
      </trkpt>
      <trkpt lat="38.957012" lon="1.403516">
        <ele>101.605235</ele>
        <time>2023-05-07T10:28:28.000Z</time>
      </trkpt>
      <trkpt lat="38.957003" lon="1.403525">
        <ele>101.578282</ele>
        <time>2023-05-07T10:28:28.000Z</time>
      </trkpt>
      <trkpt lat="38.957005" lon="1.403521">
        <ele>101.563933</ele>
        <time>2023-05-07T10:28:28.000Z</time>
      </trkpt>
      <trkpt lat="38.956949" lon="1.403657">
        <ele>100.950186</ele>
        <time>2023-05-07T10:28:29.000Z</time>
      </trkpt>
      <trkpt lat="38.956861" lon="1.403786">
        <ele>100.223845</ele>
        <time>2023-05-07T10:28:30.000Z</time>
      </trkpt>
      <trkpt lat="38.956714" lon="1.403988">
        <ele>98.996375</ele>
        <time>2023-05-07T10:28:32.000Z</time>
      </trkpt>
      <trkpt lat="38.956602" lon="1.40412">
        <ele>98.120677</ele>
        <time>2023-05-07T10:28:34.000Z</time>
      </trkpt>
      <trkpt lat="38.956596" lon="1.404119">
        <ele>98.089174</ele>
        <time>2023-05-07T10:28:34.000Z</time>
      </trkpt>
      <trkpt lat="38.956403" lon="1.404361">
        <ele>96.509572</ele>
        <time>2023-05-07T10:28:37.000Z</time>
      </trkpt>
      <trkpt lat="38.955726" lon="1.405058">
        <ele>91.385701</ele>
        <time>2023-05-07T10:28:47.000Z</time>
      </trkpt>
      <trkpt lat="38.955671" lon="1.405106">
        <ele>90.950399</ele>
        <time>2023-05-07T10:28:48.000Z</time>
      </trkpt>
      <trkpt lat="38.955667" lon="1.405105">
        <ele>90.933914</ele>
        <time>2023-05-07T10:28:48.000Z</time>
      </trkpt>
      <trkpt lat="38.955036" lon="1.405633">
        <ele>86.068908</ele>
        <time>2023-05-07T10:28:56.000Z</time>
      </trkpt>
      <trkpt lat="38.954893" lon="1.405741">
        <ele>84.960957</ele>
        <time>2023-05-07T10:28:58.000Z</time>
      </trkpt>
      <trkpt lat="38.954886" lon="1.405732">
        <ele>84.946998</ele>
        <time>2023-05-07T10:28:58.000Z</time>
      </trkpt>
      <trkpt lat="38.95413" lon="1.406251">
        <ele>80.0226</ele>
        <time>2023-05-07T10:29:08.000Z</time>
      </trkpt>
      <trkpt lat="38.953751" lon="1.406454">
        <ele>78.087504</ele>
        <time>2023-05-07T10:29:13.000Z</time>
      </trkpt>
      <trkpt lat="38.953696" lon="1.406475">
        <ele>77.787972</ele>
        <time>2023-05-07T10:29:14.000Z</time>
      </trkpt>
      <trkpt lat="38.953451" lon="1.40659">
        <ele>76.636901</ele>
        <time>2023-05-07T10:29:17.000Z</time>
      </trkpt>
      <trkpt lat="38.952371" lon="1.407016">
        <ele>72.054353</ele>
        <time>2023-05-07T10:29:30.000Z</time>
      </trkpt>
      <trkpt lat="38.952367" lon="1.407029">
        <ele>72.042332</ele>
        <time>2023-05-07T10:29:30.000Z</time>
      </trkpt>
      <trkpt lat="38.952177" lon="1.407101">
        <ele>71.453769</ele>
        <time>2023-05-07T10:29:32.000Z</time>
      </trkpt>
      <trkpt lat="38.951544" lon="1.407349">
        <ele>69.505511</ele>
        <time>2023-05-07T10:29:39.000Z</time>
      </trkpt>
      <trkpt lat="38.95129" lon="1.407447">
        <ele>68.726713</ele>
        <time>2023-05-07T10:29:42.000Z</time>
      </trkpt>
      <trkpt lat="38.950617" lon="1.407719">
        <ele>66.837191</ele>
        <time>2023-05-07T10:29:50.000Z</time>
      </trkpt>
      <trkpt lat="38.950288" lon="1.407878">
        <ele>65.928517</ele>
        <time>2023-05-07T10:29:54.000Z</time>
      </trkpt>
      <trkpt lat="38.950129" lon="1.407883">
        <ele>65.523254</ele>
        <time>2023-05-07T10:29:56.000Z</time>
      </trkpt>
      <trkpt lat="38.950056" lon="1.407866">
        <ele>65.361107</ele>
        <time>2023-05-07T10:29:57.000Z</time>
      </trkpt>
      <trkpt lat="38.949979" lon="1.407786">
        <ele>65.083903</ele>
        <time>2023-05-07T10:29:58.000Z</time>
      </trkpt>
      <trkpt lat="38.949948" lon="1.407779">
        <ele>64.996429</ele>
        <time>2023-05-07T10:29:58.000Z</time>
      </trkpt>
      <trkpt lat="38.949938" lon="1.407777">
        <ele>64.98855</ele>
        <time>2023-05-07T10:29:58.000Z</time>
      </trkpt>
      <trkpt lat="38.94986" lon="1.40775">
        <ele>64.806095</ele>
        <time>2023-05-07T10:29:59.000Z</time>
      </trkpt>
      <trkpt lat="38.949766" lon="1.40779">
        <ele>64.528615</ele>
        <time>2023-05-07T10:30:00.000Z</time>
      </trkpt>
      <trkpt lat="38.949714" lon="1.407837">
        <ele>64.393294</ele>
        <time>2023-05-07T10:30:01.000Z</time>
      </trkpt>
      <trkpt lat="38.949718" lon="1.407845">
        <ele>64.386863</ele>
        <time>2023-05-07T10:30:01.000Z</time>
      </trkpt>
      <trkpt lat="38.949675" lon="1.407898">
        <ele>64.251557</ele>
        <time>2023-05-07T10:30:02.000Z</time>
      </trkpt>
      <trkpt lat="38.949595" lon="1.408">
        <ele>63.966313</ele>
        <time>2023-05-07T10:30:03.000Z</time>
      </trkpt>
      <trkpt lat="38.949593" lon="1.408004">
        <ele>63.963098</ele>
        <time>2023-05-07T10:30:03.000Z</time>
      </trkpt>
      <trkpt lat="38.949603" lon="1.407998">
        <ele>63.94252</ele>
        <time>2023-05-07T10:30:03.000Z</time>
      </trkpt>
      <trkpt lat="38.949388" lon="1.408146">
        <ele>63.356426</ele>
        <time>2023-05-07T10:30:06.000Z</time>
      </trkpt>
      <trkpt lat="38.948887" lon="1.408422">
        <ele>61.906735</ele>
        <time>2023-05-07T10:30:12.000Z</time>
      </trkpt>
      <trkpt lat="38.948876" lon="1.408413">
        <ele>61.901116</ele>
        <time>2023-05-07T10:30:12.000Z</time>
      </trkpt>
      <trkpt lat="38.948756" lon="1.408478">
        <ele>61.535497</ele>
        <time>2023-05-07T10:30:13.000Z</time>
      </trkpt>
      <trkpt lat="38.945156" lon="1.410589">
        <ele>51.301537</ele>
        <time>2023-05-07T10:30:57.000Z</time>
      </trkpt>
      <trkpt lat="38.944431" lon="1.410985">
        <ele>49.364902</ele>
        <time>2023-05-07T10:31:06.000Z</time>
      </trkpt>
      <trkpt lat="38.944325" lon="1.411037">
        <ele>49.13767</ele>
        <time>2023-05-07T10:31:07.000Z</time>
      </trkpt>
      <trkpt lat="38.943489" lon="1.411505">
        <ele>47.236772</ele>
        <time>2023-05-07T10:31:17.000Z</time>
      </trkpt>
      <trkpt lat="38.943316" lon="1.411588">
        <ele>46.882914</ele>
        <time>2023-05-07T10:31:19.000Z</time>
      </trkpt>
      <trkpt lat="38.94323" lon="1.411647">
        <ele>46.680903</ele>
        <time>2023-05-07T10:31:20.000Z</time>
      </trkpt>
      <trkpt lat="38.942967" lon="1.41168">
        <ele>46.121421</ele>
        <time>2023-05-07T10:31:23.000Z</time>
      </trkpt>
      <trkpt lat="38.942839" lon="1.41164">
        <ele>45.861186</ele>
        <time>2023-05-07T10:31:24.000Z</time>
      </trkpt>
      <trkpt lat="38.942723" lon="1.411683">
        <ele>45.690013</ele>
        <time>2023-05-07T10:31:25.000Z</time>
      </trkpt>
      <trkpt lat="38.942658" lon="1.41174">
        <ele>45.590639</ele>
        <time>2023-05-07T10:31:26.000Z</time>
      </trkpt>
      <trkpt lat="38.942626" lon="1.411846">
        <ele>45.492667</ele>
        <time>2023-05-07T10:31:27.000Z</time>
      </trkpt>
      <trkpt lat="38.942469" lon="1.412018">
        <ele>45.252122</ele>
        <time>2023-05-07T10:31:29.000Z</time>
      </trkpt>
      <trkpt lat="38.942345" lon="1.412124">
        <ele>45.080449</ele>
        <time>2023-05-07T10:31:31.000Z</time>
      </trkpt>
      <trkpt lat="38.941723" lon="1.412516">
        <ele>44.262744</ele>
        <time>2023-05-07T10:31:39.000Z</time>
      </trkpt>
      <trkpt lat="38.938046" lon="1.414712">
        <ele>41.903371</ele>
        <time>2023-05-07T10:32:24.000Z</time>
      </trkpt>
      <trkpt lat="38.936903" lon="1.415384">
        <ele>41.271269</ele>
        <time>2023-05-07T10:32:38.000Z</time>
      </trkpt>
      <trkpt lat="38.935759" lon="1.416082">
        <ele>40.496549</ele>
        <time>2023-05-07T10:32:52.000Z</time>
      </trkpt>
      <trkpt lat="38.934578" lon="1.416779">
        <ele>39.460251</ele>
        <time>2023-05-07T10:33:06.000Z</time>
      </trkpt>
      <trkpt lat="38.934259" lon="1.416961">
        <ele>38.988378</ele>
        <time>2023-05-07T10:33:10.000Z</time>
      </trkpt>
      <trkpt lat="38.933377" lon="1.417495">
        <ele>37.671904</ele>
        <time>2023-05-07T10:33:21.000Z</time>
      </trkpt>
      <trkpt lat="38.932702" lon="1.417904">
        <ele>36.585884</ele>
        <time>2023-05-07T10:33:29.000Z</time>
      </trkpt>
      <trkpt lat="38.931442" lon="1.418673">
        <ele>34.5109</ele>
        <time>2023-05-07T10:33:45.000Z</time>
      </trkpt>
      <trkpt lat="38.929784" lon="1.419706">
        <ele>32.349898</ele>
        <time>2023-05-07T10:34:05.000Z</time>
      </trkpt>
      <trkpt lat="38.928958" lon="1.420223">
        <ele>31.481153</ele>
        <time>2023-05-07T10:34:15.000Z</time>
      </trkpt>
      <trkpt lat="38.928783" lon="1.420291">
        <ele>31.317383</ele>
        <time>2023-05-07T10:34:17.000Z</time>
      </trkpt>
      <trkpt lat="38.928575" lon="1.420315">
        <ele>31.115868</ele>
        <time>2023-05-07T10:34:19.000Z</time>
      </trkpt>
      <trkpt lat="38.928476" lon="1.420265">
        <ele>31.020313</ele>
        <time>2023-05-07T10:34:20.000Z</time>
      </trkpt>
      <trkpt lat="38.928372" lon="1.420274">
        <ele>30.927814</ele>
        <time>2023-05-07T10:34:21.000Z</time>
      </trkpt>
      <trkpt lat="38.928291" lon="1.420324">
        <ele>30.834651</ele>
        <time>2023-05-07T10:34:22.000Z</time>
      </trkpt>
      <trkpt lat="38.928193" lon="1.420452">
        <ele>30.679511</ele>
        <time>2023-05-07T10:34:24.000Z</time>
      </trkpt>
      <trkpt lat="38.928157" lon="1.420558">
        <ele>30.582945</ele>
        <time>2023-05-07T10:34:25.000Z</time>
      </trkpt>
      <trkpt lat="38.928048" lon="1.420736">
        <ele>30.359105</ele>
        <time>2023-05-07T10:34:27.000Z</time>
      </trkpt>
      <trkpt lat="38.927889" lon="1.420898">
        <ele>30.123498</ele>
        <time>2023-05-07T10:34:29.000Z</time>
      </trkpt>
      <trkpt lat="38.927572" lon="1.42109">
        <ele>29.709821</ele>
        <time>2023-05-07T10:34:33.000Z</time>
      </trkpt>
      <trkpt lat="38.926912" lon="1.421473">
        <ele>28.854962</ele>
        <time>2023-05-07T10:34:41.000Z</time>
      </trkpt>
      <trkpt lat="38.926452" lon="1.42176">
        <ele>28.225464</ele>
        <time>2023-05-07T10:34:47.000Z</time>
      </trkpt>
      <trkpt lat="38.925115" lon="1.422568">
        <ele>26.440092</ele>
        <time>2023-05-07T10:35:03.000Z</time>
      </trkpt>
      <trkpt lat="38.924731" lon="1.422799">
        <ele>25.858041</ele>
        <time>2023-05-07T10:35:08.000Z</time>
      </trkpt>
      <trkpt lat="38.924312" lon="1.423031">
        <ele>25.260759</ele>
        <time>2023-05-07T10:35:13.000Z</time>
      </trkpt>
      <trkpt lat="38.922985" lon="1.423825">
        <ele>23.114892</ele>
        <time>2023-05-07T10:35:29.000Z</time>
      </trkpt>
      <trkpt lat="38.922477" lon="1.424147">
        <ele>22.184419</ele>
        <time>2023-05-07T10:35:35.000Z</time>
      </trkpt>
      <trkpt lat="38.922299" lon="1.424248">
        <ele>21.872661</ele>
        <time>2023-05-07T10:35:37.000Z</time>
      </trkpt>
      <trkpt lat="38.922106" lon="1.424356">
        <ele>21.519042</ele>
        <time>2023-05-07T10:35:39.000Z</time>
      </trkpt>
      <trkpt lat="38.921828" lon="1.424529">
        <ele>21.015204</ele>
        <time>2023-05-07T10:35:42.000Z</time>
      </trkpt>
      <trkpt lat="38.921588" lon="1.424675">
        <ele>20.388765</ele>
        <time>2023-05-07T10:35:45.000Z</time>
      </trkpt>
      <trkpt lat="38.920624" lon="1.425237">
        <ele>17.898018</ele>
        <time>2023-05-07T10:35:57.000Z</time>
      </trkpt>
      <trkpt lat="38.920473" lon="1.425283">
        <ele>17.527561</ele>
        <time>2023-05-07T10:35:59.000Z</time>
      </trkpt>
      <trkpt lat="38.920292" lon="1.425271">
        <ele>17.109923</ele>
        <time>2023-05-07T10:36:01.000Z</time>
      </trkpt>
      <trkpt lat="38.920224" lon="1.425239">
        <ele>16.958317</ele>
        <time>2023-05-07T10:36:02.000Z</time>
      </trkpt>
      <trkpt lat="38.92014" lon="1.425227">
        <ele>16.741528</ele>
        <time>2023-05-07T10:36:03.000Z</time>
      </trkpt>
      <trkpt lat="38.920038" lon="1.425256">
        <ele>16.340947</ele>
        <time>2023-05-07T10:36:04.000Z</time>
      </trkpt>
      <trkpt lat="38.919941" lon="1.425338">
        <ele>15.942295</ele>
        <time>2023-05-07T10:36:05.000Z</time>
      </trkpt>
      <trkpt lat="38.919895" lon="1.42543">
        <ele>15.674915</ele>
        <time>2023-05-07T10:36:06.000Z</time>
      </trkpt>
      <trkpt lat="38.919874" lon="1.425561">
        <ele>15.311102</ele>
        <time>2023-05-07T10:36:07.000Z</time>
      </trkpt>
      <trkpt lat="38.919736" lon="1.425732">
        <ele>14.666827</ele>
        <time>2023-05-07T10:36:09.000Z</time>
      </trkpt>
      <trkpt lat="38.91955" lon="1.425882">
        <ele>13.941607</ele>
        <time>2023-05-07T10:36:11.000Z</time>
      </trkpt>
      <trkpt lat="38.918965" lon="1.426208">
        <ele>11.763984</ele>
        <time>2023-05-07T10:36:18.000Z</time>
      </trkpt>
      <trkpt lat="38.918692" lon="1.426401">
        <ele>10.704466</ele>
        <time>2023-05-07T10:36:21.000Z</time>
      </trkpt>
      <trkpt lat="38.918284" lon="1.426639">
        <ele>9.656594</ele>
        <time>2023-05-07T10:36:26.000Z</time>
      </trkpt>
      <trkpt lat="38.916278" lon="1.427819">
        <ele>6.878546</ele>
        <time>2023-05-07T10:36:51.000Z</time>
      </trkpt>
      <trkpt lat="38.916278" lon="1.427821">
        <ele>6.878532</ele>
        <time>2023-05-07T10:36:51.000Z</time>
      </trkpt>
      <trkpt lat="38.916271" lon="1.427819">
        <ele>6.878532</ele>
        <time>2023-05-07T10:36:51.000Z</time>
      </trkpt>
      <trkpt lat="38.916948" lon="1.427406">
        <ele>7.254653</ele>
        <time>2023-05-07T10:36:59.000Z</time>
      </trkpt>
      <trkpt lat="38.917628" lon="1.427007">
        <ele>8.901609</ele>
        <time>2023-05-07T10:37:07.000Z</time>
      </trkpt>
      <trkpt lat="38.918321" lon="1.426604">
        <ele>10.943717</ele>
        <time>2023-05-07T10:37:15.000Z</time>
      </trkpt>
      <trkpt lat="38.918996" lon="1.426193">
        <ele>12.938091</ele>
        <time>2023-05-07T10:37:23.000Z</time>
      </trkpt>
      <trkpt lat="38.919683" lon="1.425784">
        <ele>14.853196</ele>
        <time>2023-05-07T10:37:31.000Z</time>
      </trkpt>
      <trkpt lat="38.919681" lon="1.425787">
        <ele>14.853189</ele>
        <time>2023-05-07T10:37:31.000Z</time>
      </trkpt>
      <trkpt lat="38.919672" lon="1.425776">
        <ele>14.853192</ele>
        <time>2023-05-07T10:37:31.000Z</time>
      </trkpt>
      <trkpt lat="38.919796" lon="1.425649">
        <ele>15.280336</ele>
        <time>2023-05-07T10:37:33.000Z</time>
      </trkpt>
      <trkpt lat="38.919801" lon="1.425646">
        <ele>15.280329</ele>
        <time>2023-05-07T10:37:33.000Z</time>
      </trkpt>
      <trkpt lat="38.919803" lon="1.425636">
        <ele>15.280327</ele>
        <time>2023-05-07T10:37:33.000Z</time>
      </trkpt>
      <trkpt lat="38.919973" lon="1.425307">
        <ele>16.09018</ele>
        <time>2023-05-07T10:37:36.000Z</time>
      </trkpt>
      <trkpt lat="38.919989" lon="1.425302">
        <ele>16.090194</ele>
        <time>2023-05-07T10:37:36.000Z</time>
      </trkpt>
      <trkpt lat="38.919981" lon="1.425296">
        <ele>16.090185</ele>
        <time>2023-05-07T10:37:36.000Z</time>
      </trkpt>
      <trkpt lat="38.920145" lon="1.425232">
        <ele>16.543494</ele>
        <time>2023-05-07T10:37:38.000Z</time>
      </trkpt>
      <trkpt lat="38.920158" lon="1.425227">
        <ele>16.543489</ele>
        <time>2023-05-07T10:37:38.000Z</time>
      </trkpt>
      <trkpt lat="38.920152" lon="1.425223">
        <ele>16.543489</ele>
        <time>2023-05-07T10:37:38.000Z</time>
      </trkpt>
      <trkpt lat="38.920286" lon="1.425284">
        <ele>16.883071</ele>
        <time>2023-05-07T10:37:40.000Z</time>
      </trkpt>
      <trkpt lat="38.920285" lon="1.425279">
        <ele>16.883068</ele>
        <time>2023-05-07T10:37:40.000Z</time>
      </trkpt>
      <trkpt lat="38.920284" lon="1.425286">
        <ele>16.883071</ele>
        <time>2023-05-07T10:37:40.000Z</time>
      </trkpt>
      <trkpt lat="38.920684" lon="1.425199">
        <ele>17.641946</ele>
        <time>2023-05-07T10:37:45.000Z</time>
      </trkpt>
      <trkpt lat="38.920679" lon="1.425204">
        <ele>17.641951</ele>
        <time>2023-05-07T10:37:45.000Z</time>
      </trkpt>
      <trkpt lat="38.920678" lon="1.425199">
        <ele>17.641947</ele>
        <time>2023-05-07T10:37:45.000Z</time>
      </trkpt>
      <trkpt lat="38.921467" lon="1.42473">
        <ele>19.326362</ele>
        <time>2023-05-07T10:37:55.000Z</time>
      </trkpt>
      <trkpt lat="38.922266" lon="1.424252">
        <ele>20.885584</ele>
        <time>2023-05-07T10:38:05.000Z</time>
      </trkpt>
      <trkpt lat="38.923061" lon="1.423783">
        <ele>22.288034</ele>
        <time>2023-05-07T10:38:15.000Z</time>
      </trkpt>
      <trkpt lat="38.923868" lon="1.423293">
        <ele>23.66032</ele>
        <time>2023-05-07T10:38:25.000Z</time>
      </trkpt>
      <trkpt lat="38.924668" lon="1.422817">
        <ele>24.984649</ele>
        <time>2023-05-07T10:38:35.000Z</time>
      </trkpt>
      <trkpt lat="38.92546" lon="1.422339">
        <ele>26.298023</ele>
        <time>2023-05-07T10:38:45.000Z</time>
      </trkpt>
      <trkpt lat="38.926257" lon="1.421865">
        <ele>27.591197</ele>
        <time>2023-05-07T10:38:55.000Z</time>
      </trkpt>
      <trkpt lat="38.927048" lon="1.421394">
        <ele>28.864735</ele>
        <time>2023-05-07T10:39:05.000Z</time>
      </trkpt>
      <trkpt lat="38.927857" lon="1.420919">
        <ele>30.089716</ele>
        <time>2023-05-07T10:39:15.000Z</time>
      </trkpt>
      <trkpt lat="38.927844" lon="1.420925">
        <ele>30.089705</ele>
        <time>2023-05-07T10:39:15.000Z</time>
      </trkpt>
      <trkpt lat="38.928164" lon="1.420632">
        <ele>30.620203</ele>
        <time>2023-05-07T10:39:19.000Z</time>
      </trkpt>
      <trkpt lat="38.92815" lon="1.420638">
        <ele>30.620212</ele>
        <time>2023-05-07T10:39:19.000Z</time>
      </trkpt>
      <trkpt lat="38.928226" lon="1.420419">
        <ele>30.878012</ele>
        <time>2023-05-07T10:39:21.000Z</time>
      </trkpt>
      <trkpt lat="38.928228" lon="1.420418">
        <ele>30.878013</ele>
        <time>2023-05-07T10:39:21.000Z</time>
      </trkpt>
      <trkpt lat="38.928319" lon="1.420297">
        <ele>31.048991</ele>
        <time>2023-05-07T10:39:22.000Z</time>
      </trkpt>
      <trkpt lat="38.92832" lon="1.420311">
        <ele>31.048993</ele>
        <time>2023-05-07T10:39:22.000Z</time>
      </trkpt>
      <trkpt lat="38.928326" lon="1.420299">
        <ele>31.048994</ele>
        <time>2023-05-07T10:39:22.000Z</time>
      </trkpt>
      <trkpt lat="38.928486" lon="1.420275">
        <ele>31.247502</ele>
        <time>2023-05-07T10:39:24.000Z</time>
      </trkpt>
      <trkpt lat="38.928482" lon="1.42027">
        <ele>31.247503</ele>
        <time>2023-05-07T10:39:24.000Z</time>
      </trkpt>
      <trkpt lat="38.928482" lon="1.420264">
        <ele>31.247508</ele>
        <time>2023-05-07T10:39:24.000Z</time>
      </trkpt>
      <trkpt lat="38.928569" lon="1.420319">
        <ele>31.370795</ele>
        <time>2023-05-07T10:39:25.000Z</time>
      </trkpt>
      <trkpt lat="38.928565" lon="1.420321">
        <ele>31.370788</ele>
        <time>2023-05-07T10:39:25.000Z</time>
      </trkpt>
      <trkpt lat="38.928571" lon="1.420318">
        <ele>31.370785</ele>
        <time>2023-05-07T10:39:25.000Z</time>
      </trkpt>
      <trkpt lat="38.928771" lon="1.420299">
        <ele>31.600276</ele>
        <time>2023-05-07T10:39:27.000Z</time>
      </trkpt>
      <trkpt lat="38.928763" lon="1.420298">
        <ele>31.600277</ele>
        <time>2023-05-07T10:39:27.000Z</time>
      </trkpt>
      <trkpt lat="38.928765" lon="1.420292">
        <ele>31.600263</ele>
        <time>2023-05-07T10:39:27.000Z</time>
      </trkpt>
      <trkpt lat="38.928919" lon="1.420241">
        <ele>31.805721</ele>
        <time>2023-05-07T10:39:29.000Z</time>
      </trkpt>
      <trkpt lat="38.928924" lon="1.420237">
        <ele>31.805718</ele>
        <time>2023-05-07T10:39:29.000Z</time>
      </trkpt>
      <trkpt lat="38.929671" lon="1.419782">
        <ele>32.810148</ele>
        <time>2023-05-07T10:39:38.000Z</time>
      </trkpt>
      <trkpt lat="38.930417" lon="1.419332">
        <ele>33.813555</ele>
        <time>2023-05-07T10:39:47.000Z</time>
      </trkpt>
      <trkpt lat="38.931151" lon="1.418875">
        <ele>34.81698</ele>
        <time>2023-05-07T10:39:56.000Z</time>
      </trkpt>
      <trkpt lat="38.931908" lon="1.418414">
        <ele>35.83952</ele>
        <time>2023-05-07T10:40:05.000Z</time>
      </trkpt>
      <trkpt lat="38.932639" lon="1.417962">
        <ele>36.884612</ele>
        <time>2023-05-07T10:40:14.000Z</time>
      </trkpt>
      <trkpt lat="38.933396" lon="1.417489">
        <ele>37.84856</ele>
        <time>2023-05-07T10:40:23.000Z</time>
      </trkpt>
      <trkpt lat="38.934136" lon="1.417032">
        <ele>38.584901</ele>
        <time>2023-05-07T10:40:32.000Z</time>
      </trkpt>
      <trkpt lat="38.934128" lon="1.417032">
        <ele>38.584907</ele>
        <time>2023-05-07T10:40:32.000Z</time>
      </trkpt>
      <trkpt lat="38.934132" lon="1.417046">
        <ele>38.584901</ele>
        <time>2023-05-07T10:40:32.000Z</time>
      </trkpt>
      <trkpt lat="38.934945" lon="1.416552">
        <ele>39.35063</ele>
        <time>2023-05-07T10:40:42.000Z</time>
      </trkpt>
      <trkpt lat="38.935766" lon="1.416064">
        <ele>39.92362</ele>
        <time>2023-05-07T10:40:52.000Z</time>
      </trkpt>
      <trkpt lat="38.936583" lon="1.415584">
        <ele>40.499302</ele>
        <time>2023-05-07T10:41:02.000Z</time>
      </trkpt>
      <trkpt lat="38.937382" lon="1.415101">
        <ele>41.089475</ele>
        <time>2023-05-07T10:41:12.000Z</time>
      </trkpt>
      <trkpt lat="38.938209" lon="1.414608">
        <ele>41.675864</ele>
        <time>2023-05-07T10:41:22.000Z</time>
      </trkpt>
      <trkpt lat="38.939021" lon="1.414118">
        <ele>42.235365</ele>
        <time>2023-05-07T10:41:32.000Z</time>
      </trkpt>
      <trkpt lat="38.93984" lon="1.413634">
        <ele>42.810778</ele>
        <time>2023-05-07T10:41:42.000Z</time>
      </trkpt>
      <trkpt lat="38.940646" lon="1.413156">
        <ele>43.481292</ele>
        <time>2023-05-07T10:41:52.000Z</time>
      </trkpt>
      <trkpt lat="38.94145" lon="1.412665">
        <ele>44.221068</ele>
        <time>2023-05-07T10:42:02.000Z</time>
      </trkpt>
      <trkpt lat="38.942281" lon="1.41217">
        <ele>45.391487</ele>
        <time>2023-05-07T10:42:12.000Z</time>
      </trkpt>
      <trkpt lat="38.942265" lon="1.412181">
        <ele>45.391487</ele>
        <time>2023-05-07T10:42:12.000Z</time>
      </trkpt>
      <trkpt lat="38.942608" lon="1.411839">
        <ele>45.956529</ele>
        <time>2023-05-07T10:42:17.000Z</time>
      </trkpt>
      <trkpt lat="38.942621" lon="1.411834">
        <ele>45.956534</ele>
        <time>2023-05-07T10:42:17.000Z</time>
      </trkpt>
      <trkpt lat="38.942613" lon="1.411849">
        <ele>45.95654</ele>
        <time>2023-05-07T10:42:17.000Z</time>
      </trkpt>
      <trkpt lat="38.942723" lon="1.411669">
        <ele>46.171942</ele>
        <time>2023-05-07T10:42:19.000Z</time>
      </trkpt>
      <trkpt lat="38.942728" lon="1.411669">
        <ele>46.171947</ele>
        <time>2023-05-07T10:42:19.000Z</time>
      </trkpt>
      <trkpt lat="38.942845" lon="1.41163">
        <ele>46.34224</ele>
        <time>2023-05-07T10:42:20.000Z</time>
      </trkpt>
      <trkpt lat="38.942853" lon="1.411634">
        <ele>46.34224</ele>
        <time>2023-05-07T10:42:20.000Z</time>
      </trkpt>
      <trkpt lat="38.942856" lon="1.411636">
        <ele>46.342238</ele>
        <time>2023-05-07T10:42:20.000Z</time>
      </trkpt>
      <trkpt lat="38.943041" lon="1.411658">
        <ele>46.711903</ele>
        <time>2023-05-07T10:42:22.000Z</time>
      </trkpt>
      <trkpt lat="38.94305" lon="1.411674">
        <ele>46.711909</ele>
        <time>2023-05-07T10:42:22.000Z</time>
      </trkpt>
      <trkpt lat="38.94305" lon="1.411673">
        <ele>46.711897</ele>
        <time>2023-05-07T10:42:22.000Z</time>
      </trkpt>
      <trkpt lat="38.943321" lon="1.411598">
        <ele>47.292778</ele>
        <time>2023-05-07T10:42:25.000Z</time>
      </trkpt>
      <trkpt lat="38.943315" lon="1.411594">
        <ele>47.292768</ele>
        <time>2023-05-07T10:42:25.000Z</time>
      </trkpt>
      <trkpt lat="38.94405" lon="1.411183">
        <ele>48.933306</ele>
        <time>2023-05-07T10:42:34.000Z</time>
      </trkpt>
      <trkpt lat="38.944796" lon="1.410776">
        <ele>50.656756</ele>
        <time>2023-05-07T10:42:43.000Z</time>
      </trkpt>
      <trkpt lat="38.94553" lon="1.41037">
        <ele>52.571732</ele>
        <time>2023-05-07T10:42:52.000Z</time>
      </trkpt>
      <trkpt lat="38.945529" lon="1.410355">
        <ele>52.571727</ele>
        <time>2023-05-07T10:42:52.000Z</time>
      </trkpt>
      <trkpt lat="38.945532" lon="1.41036">
        <ele>52.579514</ele>
        <time>2023-05-07T10:42:52.000Z</time>
      </trkpt>
      <trkpt lat="38.945542" lon="1.410357">
        <ele>52.581367</ele>
        <time>2023-05-07T10:42:52.000Z</time>
      </trkpt>
      <trkpt lat="38.946207" lon="1.409973">
        <ele>54.333009</ele>
        <time>2023-05-07T10:43:00.000Z</time>
      </trkpt>
      <trkpt lat="38.946863" lon="1.409592">
        <ele>56.225362</ele>
        <time>2023-05-07T10:43:08.000Z</time>
      </trkpt>
      <trkpt lat="38.947549" lon="1.409198">
        <ele>58.12121</ele>
        <time>2023-05-07T10:43:16.000Z</time>
      </trkpt>
      <trkpt lat="38.948208" lon="1.408806">
        <ele>60.072692</ele>
        <time>2023-05-07T10:43:24.000Z</time>
      </trkpt>
      <trkpt lat="38.948885" lon="1.408413">
        <ele>62.074068</ele>
        <time>2023-05-07T10:43:32.000Z</time>
      </trkpt>
      <trkpt lat="38.948879" lon="1.408411">
        <ele>62.074058</ele>
        <time>2023-05-07T10:43:32.000Z</time>
      </trkpt>
      <trkpt lat="38.949593" lon="1.408">
        <ele>64.237516</ele>
        <time>2023-05-07T10:43:41.000Z</time>
      </trkpt>
      <trkpt lat="38.949598" lon="1.408005">
        <ele>64.237518</ele>
        <time>2023-05-07T10:43:41.000Z</time>
      </trkpt>
      <trkpt lat="38.949608" lon="1.408005">
        <ele>64.23752</ele>
        <time>2023-05-07T10:43:41.000Z</time>
      </trkpt>
      <trkpt lat="38.949714" lon="1.407845">
        <ele>64.695772</ele>
        <time>2023-05-07T10:43:43.000Z</time>
      </trkpt>
      <trkpt lat="38.949723" lon="1.407854">
        <ele>64.695769</ele>
        <time>2023-05-07T10:43:43.000Z</time>
      </trkpt>
      <trkpt lat="38.949717" lon="1.407848">
        <ele>64.695754</ele>
        <time>2023-05-07T10:43:43.000Z</time>
      </trkpt>
      <trkpt lat="38.949937" lon="1.407772">
        <ele>65.306324</ele>
        <time>2023-05-07T10:43:46.000Z</time>
      </trkpt>
      <trkpt lat="38.949936" lon="1.407779">
        <ele>65.306317</ele>
        <time>2023-05-07T10:43:46.000Z</time>
      </trkpt>
      <trkpt lat="38.949946" lon="1.407766">
        <ele>65.306328</ele>
        <time>2023-05-07T10:43:46.000Z</time>
      </trkpt>
      <trkpt lat="38.950063" lon="1.407862">
        <ele>65.689806</ele>
        <time>2023-05-07T10:43:48.000Z</time>
      </trkpt>
      <trkpt lat="38.950059" lon="1.407853">
        <ele>65.689792</ele>
        <time>2023-05-07T10:43:48.000Z</time>
      </trkpt>
      <trkpt lat="38.950324" lon="1.407842">
        <ele>66.415272</ele>
        <time>2023-05-07T10:43:51.000Z</time>
      </trkpt>
      <trkpt lat="38.950336" lon="1.40786">
        <ele>66.415279</ele>
        <time>2023-05-07T10:43:51.000Z</time>
      </trkpt>
      <trkpt lat="38.950778" lon="1.407667">
        <ele>67.709868</ele>
        <time>2023-05-07T10:43:56.000Z</time>
      </trkpt>
      <trkpt lat="38.95077" lon="1.407653">
        <ele>67.709878</ele>
        <time>2023-05-07T10:43:56.000Z</time>
      </trkpt>
      <trkpt lat="38.950785" lon="1.407654">
        <ele>67.709885</ele>
        <time>2023-05-07T10:43:56.000Z</time>
      </trkpt>
      <trkpt lat="38.951571" lon="1.407344">
        <ele>70.206757</ele>
        <time>2023-05-07T10:44:05.000Z</time>
      </trkpt>
      <trkpt lat="38.95237" lon="1.407011">
        <ele>72.920892</ele>
        <time>2023-05-07T10:44:14.000Z</time>
      </trkpt>
      <trkpt lat="38.952376" lon="1.407022">
        <ele>72.920883</ele>
        <time>2023-05-07T10:44:14.000Z</time>
      </trkpt>
      <trkpt lat="38.952374" lon="1.407025">
        <ele>72.920894</ele>
        <time>2023-05-07T10:44:14.000Z</time>
      </trkpt>
      <trkpt lat="38.952376" lon="1.407028">
        <ele>72.923411</ele>
        <time>2023-05-07T10:44:14.000Z</time>
      </trkpt>
      <trkpt lat="38.953054" lon="1.406741">
        <ele>75.568992</ele>
        <time>2023-05-07T10:44:22.000Z</time>
      </trkpt>
      <trkpt lat="38.953749" lon="1.406447">
        <ele>79.055441</ele>
        <time>2023-05-07T10:44:30.000Z</time>
      </trkpt>
      <trkpt lat="38.953755" lon="1.406438">
        <ele>79.055434</ele>
        <time>2023-05-07T10:44:30.000Z</time>
      </trkpt>
      <trkpt lat="38.953742" lon="1.406452">
        <ele>79.055443</ele>
        <time>2023-05-07T10:44:30.000Z</time>
      </trkpt>
      <trkpt lat="38.954316" lon="1.4061">
        <ele>82.117246</ele>
        <time>2023-05-07T10:44:37.000Z</time>
      </trkpt>
      <trkpt lat="38.954901" lon="1.405743">
        <ele>85.608328</ele>
        <time>2023-05-07T10:44:44.000Z</time>
      </trkpt>
      <trkpt lat="38.954884" lon="1.405742">
        <ele>85.608327</ele>
        <time>2023-05-07T10:44:44.000Z</time>
      </trkpt>
      <trkpt lat="38.954886" lon="1.405743">
        <ele>85.608331</ele>
        <time>2023-05-07T10:44:44.000Z</time>
      </trkpt>
      <trkpt lat="38.955276" lon="1.405424">
        <ele>88.33022</ele>
        <time>2023-05-07T10:44:49.000Z</time>
      </trkpt>
      <trkpt lat="38.955666" lon="1.405104">
        <ele>91.059576</ele>
        <time>2023-05-07T10:44:54.000Z</time>
      </trkpt>
      <trkpt lat="38.955675" lon="1.405116">
        <ele>91.059574</ele>
        <time>2023-05-07T10:44:54.000Z</time>
      </trkpt>
      <trkpt lat="38.956138" lon="1.404619">
        <ele>94.551511</ele>
        <time>2023-05-07T10:45:01.000Z</time>
      </trkpt>
      <trkpt lat="38.956604" lon="1.404116">
        <ele>97.650813</ele>
        <time>2023-05-07T10:45:08.000Z</time>
      </trkpt>
      <trkpt lat="38.956603" lon="1.404118">
        <ele>97.650817</ele>
        <time>2023-05-07T10:45:08.000Z</time>
      </trkpt>
      <trkpt lat="38.956606" lon="1.404124">
        <ele>97.65082</ele>
        <time>2023-05-07T10:45:08.000Z</time>
      </trkpt>
      <trkpt lat="38.956872" lon="1.403776">
        <ele>99.588091</ele>
        <time>2023-05-07T10:45:12.000Z</time>
      </trkpt>
      <trkpt lat="38.95686" lon="1.403771">
        <ele>99.588078</ele>
        <time>2023-05-07T10:45:12.000Z</time>
      </trkpt>
      <trkpt lat="38.956865" lon="1.403772">
        <ele>99.588087</ele>
        <time>2023-05-07T10:45:12.000Z</time>
      </trkpt>
      <trkpt lat="38.957003" lon="1.403516">
        <ele>100.831985</ele>
        <time>2023-05-07T10:45:15.000Z</time>
      </trkpt>
      <trkpt lat="38.957007" lon="1.403526">
        <ele>100.831984</ele>
        <time>2023-05-07T10:45:15.000Z</time>
      </trkpt>
      <trkpt lat="38.957013" lon="1.403526">
        <ele>100.831991</ele>
        <time>2023-05-07T10:45:15.000Z</time>
      </trkpt>
      <trkpt lat="38.957034" lon="1.403298">
        <ele>101.761347</ele>
        <time>2023-05-07T10:45:17.000Z</time>
      </trkpt>
      <trkpt lat="38.957034" lon="1.403289">
        <ele>101.761352</ele>
        <time>2023-05-07T10:45:17.000Z</time>
      </trkpt>
      <trkpt lat="38.957039" lon="1.403286">
        <ele>101.76135</ele>
        <time>2023-05-07T10:45:17.000Z</time>
      </trkpt>
      <trkpt lat="38.957152" lon="1.40316">
        <ele>102.579087</ele>
        <time>2023-05-07T10:45:19.000Z</time>
      </trkpt>
      <trkpt lat="38.957157" lon="1.403151">
        <ele>102.5791</ele>
        <time>2023-05-07T10:45:19.000Z</time>
      </trkpt>
      <trkpt lat="38.957158" lon="1.403145">
        <ele>102.579098</ele>
        <time>2023-05-07T10:45:19.000Z</time>
      </trkpt>
      <trkpt lat="38.957264" lon="1.403024">
        <ele>103.372541</ele>
        <time>2023-05-07T10:45:21.000Z</time>
      </trkpt>
      <trkpt lat="38.957269" lon="1.403014">
        <ele>103.372549</ele>
        <time>2023-05-07T10:45:21.000Z</time>
      </trkpt>
      <trkpt lat="38.95727" lon="1.403025">
        <ele>103.372532</ele>
        <time>2023-05-07T10:45:21.000Z</time>
      </trkpt>
      <trkpt lat="38.957809" lon="1.402217">
        <ele>106.862707</ele>
        <time>2023-05-07T10:45:30.000Z</time>
      </trkpt>
      <trkpt lat="38.958346" lon="1.401415">
        <ele>110.35537</ele>
        <time>2023-05-07T10:45:39.000Z</time>
      </trkpt>
      <trkpt lat="38.95835" lon="1.401408">
        <ele>110.355362</ele>
        <time>2023-05-07T10:45:39.000Z</time>
      </trkpt>
      <trkpt lat="38.958348" lon="1.401403">
        <ele>110.355358</ele>
        <time>2023-05-07T10:45:39.000Z</time>
      </trkpt>
      <trkpt lat="38.958461" lon="1.401061">
        <ele>111.511498</ele>
        <time>2023-05-07T10:45:42.000Z</time>
      </trkpt>
      <trkpt lat="38.958455" lon="1.401072">
        <ele>111.51149</ele>
        <time>2023-05-07T10:45:42.000Z</time>
      </trkpt>
      <trkpt lat="38.958466" lon="1.401061">
        <ele>111.511503</ele>
        <time>2023-05-07T10:45:42.000Z</time>
      </trkpt>
      <trkpt lat="38.958614" lon="1.400765">
        <ele>112.564446</ele>
        <time>2023-05-07T10:45:45.000Z</time>
      </trkpt>
      <trkpt lat="38.958615" lon="1.400766">
        <ele>112.56443</ele>
        <time>2023-05-07T10:45:45.000Z</time>
      </trkpt>
      <trkpt lat="38.958625" lon="1.400775">
        <ele>112.564444</ele>
        <time>2023-05-07T10:45:45.000Z</time>
      </trkpt>
      <trkpt lat="38.959" lon="1.400162">
        <ele>114.852391</ele>
        <time>2023-05-07T10:45:52.000Z</time>
      </trkpt>
      <trkpt lat="38.959373" lon="1.399548">
        <ele>117.142714</ele>
        <time>2023-05-07T10:45:59.000Z</time>
      </trkpt>
      <trkpt lat="38.959375" lon="1.399551">
        <ele>117.142726</ele>
        <time>2023-05-07T10:45:59.000Z</time>
      </trkpt>
      <trkpt lat="38.959383" lon="1.399558">
        <ele>117.142726</ele>
        <time>2023-05-07T10:45:59.000Z</time>
      </trkpt>
      <trkpt lat="38.959715" lon="1.399317">
        <ele>118.250039</ele>
        <time>2023-05-07T10:46:03.000Z</time>
      </trkpt>
      <trkpt lat="38.959712" lon="1.399318">
        <ele>118.250035</ele>
        <time>2023-05-07T10:46:03.000Z</time>
      </trkpt>
      <trkpt lat="38.959705" lon="1.399317">
        <ele>118.250034</ele>
        <time>2023-05-07T10:46:03.000Z</time>
      </trkpt>
      <trkpt lat="38.959829" lon="1.399152">
        <ele>118.665219</ele>
        <time>2023-05-07T10:46:05.000Z</time>
      </trkpt>
      <trkpt lat="38.959824" lon="1.399167">
        <ele>118.665222</ele>
        <time>2023-05-07T10:46:05.000Z</time>
      </trkpt>
      <trkpt lat="38.959986" lon="1.398906">
        <ele>119.287771</ele>
        <time>2023-05-07T10:46:08.000Z</time>
      </trkpt>
      <trkpt lat="38.959978" lon="1.398905">
        <ele>119.287759</ele>
        <time>2023-05-07T10:46:08.000Z</time>
      </trkpt>
      <trkpt lat="38.95998" lon="1.398897">
        <ele>119.287769</ele>
        <time>2023-05-07T10:46:08.000Z</time>
      </trkpt>
      <trkpt lat="38.960076" lon="1.398718">
        <ele>119.689593</ele>
        <time>2023-05-07T10:46:10.000Z</time>
      </trkpt>
      <trkpt lat="38.960081" lon="1.398725">
        <ele>119.689581</ele>
        <time>2023-05-07T10:46:10.000Z</time>
      </trkpt>
      <trkpt lat="38.960078" lon="1.39873">
        <ele>119.689575</ele>
        <time>2023-05-07T10:46:10.000Z</time>
      </trkpt>
      <trkpt lat="38.960137" lon="1.398774">
        <ele>119.852614</ele>
        <time>2023-05-07T10:46:11.000Z</time>
      </trkpt>
      <trkpt lat="38.960197" lon="1.398774">
        <ele>120.007509</ele>
        <time>2023-05-07T10:46:12.000Z</time>
      </trkpt>
      <trkpt lat="38.960214" lon="1.398769">
        <ele>120.057802</ele>
        <time>2023-05-07T10:46:12.000Z</time>
      </trkpt>
      <trkpt lat="38.960509" lon="1.398799">
        <ele>120.789667</ele>
        <time>2023-05-07T10:46:15.000Z</time>
      </trkpt>
      <trkpt lat="38.960628" lon="1.398847">
        <ele>121.063686</ele>
        <time>2023-05-07T10:46:16.000Z</time>
      </trkpt>
      <trkpt lat="38.960836" lon="1.39897">
        <ele>121.651264</ele>
        <time>2023-05-07T10:46:19.000Z</time>
      </trkpt>
      <trkpt lat="38.961239" lon="1.399152">
        <ele>121.859195</ele>
        <time>2023-05-07T10:46:24.000Z</time>
      </trkpt>
      <trkpt lat="38.961474" lon="1.399182">
        <ele>121.658326</ele>
        <time>2023-05-07T10:46:27.000Z</time>
      </trkpt>
      <trkpt lat="38.961438" lon="1.399732">
        <ele>121.298787</ele>
        <time>2023-05-07T10:46:32.000Z</time>
      </trkpt>
      <trkpt lat="38.961439" lon="1.399996">
        <ele>121.121714</ele>
        <time>2023-05-07T10:46:34.000Z</time>
      </trkpt>
      <trkpt lat="38.961486" lon="1.400242">
        <ele>120.958664</ele>
        <time>2023-05-07T10:46:36.000Z</time>
      </trkpt>
      <trkpt lat="38.961568" lon="1.400579">
        <ele>120.735893</ele>
        <time>2023-05-07T10:46:39.000Z</time>
      </trkpt>
      <trkpt lat="38.961793" lon="1.400995">
        <ele>120.167185</ele>
        <time>2023-05-07T10:46:43.000Z</time>
      </trkpt>
      <trkpt lat="38.962207" lon="1.401514">
        <ele>118.881145</ele>
        <time>2023-05-07T10:46:49.000Z</time>
      </trkpt>
      <trkpt lat="38.962904" lon="1.402356">
        <ele>116.811379</ele>
        <time>2023-05-07T10:47:00.000Z</time>
      </trkpt>
      <trkpt lat="38.963308" lon="1.402864">
        <ele>118.248528</ele>
        <time>2023-05-07T10:47:06.000Z</time>
      </trkpt>
      <trkpt lat="38.963485" lon="1.403127">
        <ele>119.140443</ele>
        <time>2023-05-07T10:47:09.000Z</time>
      </trkpt>
      <trkpt lat="38.963781" lon="1.403633">
        <ele>120.720923</ele>
        <time>2023-05-07T10:47:14.000Z</time>
      </trkpt>
      <trkpt lat="38.964261" lon="1.404503">
        <ele>124.341411</ele>
        <time>2023-05-07T10:47:23.000Z</time>
      </trkpt>
      <trkpt lat="38.964546" lon="1.40489">
        <ele>126.9621</ele>
        <time>2023-05-07T10:47:28.000Z</time>
      </trkpt>
      <trkpt lat="38.964887" lon="1.40523">
        <ele>129.66246</ele>
        <time>2023-05-07T10:47:33.000Z</time>
      </trkpt>
      <trkpt lat="38.96572" lon="1.406004">
        <ele>134.958716</ele>
        <time>2023-05-07T10:47:44.000Z</time>
      </trkpt>
      <trkpt lat="38.965948" lon="1.406175">
        <ele>135.755809</ele>
        <time>2023-05-07T10:47:47.000Z</time>
      </trkpt>
      <trkpt lat="38.966127" lon="1.406283">
        <ele>136.355899</ele>
        <time>2023-05-07T10:47:49.000Z</time>
      </trkpt>
      <trkpt lat="38.96631" lon="1.406382">
        <ele>136.901709</ele>
        <time>2023-05-07T10:47:51.000Z</time>
      </trkpt>
      <trkpt lat="38.966882" lon="1.406594">
        <ele>138.647525</ele>
        <time>2023-05-07T10:47:58.000Z</time>
      </trkpt>
      <trkpt lat="38.967635" lon="1.406767">
        <ele>138.578632</ele>
        <time>2023-05-07T10:48:07.000Z</time>
      </trkpt>
      <trkpt lat="38.967999" lon="1.406842">
        <ele>138.199293</ele>
        <time>2023-05-07T10:48:11.000Z</time>
      </trkpt>
      <trkpt lat="38.968829" lon="1.406981">
        <ele>137.294687</ele>
        <time>2023-05-07T10:48:20.000Z</time>
      </trkpt>
      <trkpt lat="38.969368" lon="1.406947">
        <ele>134.794079</ele>
        <time>2023-05-07T10:48:26.000Z</time>
      </trkpt>
      <trkpt lat="38.969941" lon="1.406788">
        <ele>132.138769</ele>
        <time>2023-05-07T10:48:33.000Z</time>
      </trkpt>
      <trkpt lat="38.970399" lon="1.406536">
        <ele>129.830518</ele>
        <time>2023-05-07T10:48:39.000Z</time>
      </trkpt>
      <trkpt lat="38.971045" lon="1.406079">
        <ele>125.552685</ele>
        <time>2023-05-07T10:48:47.000Z</time>
      </trkpt>
      <trkpt lat="38.971874" lon="1.405499">
        <ele>119.853505</ele>
        <time>2023-05-07T10:48:58.000Z</time>
      </trkpt>
      <trkpt lat="38.97214" lon="1.405374">
        <ele>118.118835</ele>
        <time>2023-05-07T10:49:01.000Z</time>
      </trkpt>
      <trkpt lat="38.972404" lon="1.40529">
        <ele>116.863088</ele>
        <time>2023-05-07T10:49:04.000Z</time>
      </trkpt>
      <trkpt lat="38.972691" lon="1.405254">
        <ele>115.572403</ele>
        <time>2023-05-07T10:49:07.000Z</time>
      </trkpt>
      <trkpt lat="38.972996" lon="1.405263">
        <ele>114.280886</ele>
        <time>2023-05-07T10:49:10.000Z</time>
      </trkpt>
      <trkpt lat="38.973479" lon="1.405379">
        <ele>112.107492</ele>
        <time>2023-05-07T10:49:15.000Z</time>
      </trkpt>
      <trkpt lat="38.97476" lon="1.405922">
        <ele>104.813129</ele>
        <time>2023-05-07T10:49:30.000Z</time>
      </trkpt>
      <trkpt lat="38.975173" lon="1.406125">
        <ele>102.201928</ele>
        <time>2023-05-07T10:49:35.000Z</time>
      </trkpt>
      <trkpt lat="38.975523" lon="1.406348">
        <ele>99.878185</ele>
        <time>2023-05-07T10:49:39.000Z</time>
      </trkpt>
      <trkpt lat="38.975842" lon="1.406611">
        <ele>97.265177</ele>
        <time>2023-05-07T10:49:43.000Z</time>
      </trkpt>
      <trkpt lat="38.976097" lon="1.406916">
        <ele>94.804784</ele>
        <time>2023-05-07T10:49:47.000Z</time>
      </trkpt>
      <trkpt lat="38.97635" lon="1.407287">
        <ele>92.04456</ele>
        <time>2023-05-07T10:49:51.000Z</time>
      </trkpt>
      <trkpt lat="38.976463" lon="1.40751">
        <ele>90.510659</ele>
        <time>2023-05-07T10:49:53.000Z</time>
      </trkpt>
      <trkpt lat="38.976645" lon="1.407944">
        <ele>87.802479</ele>
        <time>2023-05-07T10:49:57.000Z</time>
      </trkpt>
      <trkpt lat="38.977386" lon="1.410171">
        <ele>78.170849</ele>
        <time>2023-05-07T10:50:18.000Z</time>
      </trkpt>
      <trkpt lat="38.977848" lon="1.411534">
        <ele>74.023479</ele>
        <time>2023-05-07T10:50:31.000Z</time>
      </trkpt>
      <trkpt lat="38.977873" lon="1.411589">
        <ele>73.877014</ele>
        <time>2023-05-07T10:50:32.000Z</time>
      </trkpt>
      <trkpt lat="38.978927" lon="1.414168">
        <ele>67.151197</ele>
        <time>2023-05-07T10:50:57.000Z</time>
      </trkpt>
      <trkpt lat="38.978968" lon="1.414368">
        <ele>66.713486</ele>
        <time>2023-05-07T10:50:59.000Z</time>
      </trkpt>
      <trkpt lat="38.978985" lon="1.414539">
        <ele>66.389736</ele>
        <time>2023-05-07T10:51:00.000Z</time>
      </trkpt>
      <trkpt lat="38.978965" lon="1.414581">
        <ele>66.330931</ele>
        <time>2023-05-07T10:51:00.000Z</time>
      </trkpt>
      <trkpt lat="38.978977" lon="1.414689">
        <ele>66.178478</ele>
        <time>2023-05-07T10:51:01.000Z</time>
      </trkpt>
      <trkpt lat="38.979053" lon="1.414799">
        <ele>65.951972</ele>
        <time>2023-05-07T10:51:02.000Z</time>
      </trkpt>
      <trkpt lat="38.979088" lon="1.414821">
        <ele>65.900921</ele>
        <time>2023-05-07T10:51:02.000Z</time>
      </trkpt>
      <trkpt lat="38.979189" lon="1.414908">
        <ele>65.658464</ele>
        <time>2023-05-07T10:51:03.000Z</time>
      </trkpt>
      <trkpt lat="38.979285" lon="1.415056">
        <ele>65.378737</ele>
        <time>2023-05-07T10:51:05.000Z</time>
      </trkpt>
      <trkpt lat="38.980348" lon="1.41763">
        <ele>61.856284</ele>
        <time>2023-05-07T10:51:30.000Z</time>
      </trkpt>
      <trkpt lat="38.980929" lon="1.41907">
        <ele>61.601306</ele>
        <time>2023-05-07T10:51:44.000Z</time>
      </trkpt>
      <trkpt lat="38.981033" lon="1.419366">
        <ele>61.858545</ele>
        <time>2023-05-07T10:51:47.000Z</time>
      </trkpt>
      <trkpt lat="38.981096" lon="1.419591">
        <ele>62.064021</ele>
        <time>2023-05-07T10:51:49.000Z</time>
      </trkpt>
      <trkpt lat="38.981191" lon="1.420167">
        <ele>62.535005</ele>
        <time>2023-05-07T10:51:54.000Z</time>
      </trkpt>
      <trkpt lat="38.981213" lon="1.420756">
        <ele>63.349332</ele>
        <time>2023-05-07T10:51:59.000Z</time>
      </trkpt>
      <trkpt lat="38.98116" lon="1.421338">
        <ele>65.153123</ele>
        <time>2023-05-07T10:52:04.000Z</time>
      </trkpt>
      <trkpt lat="38.980987" lon="1.42241">
        <ele>68.465601</ele>
        <time>2023-05-07T10:52:13.000Z</time>
      </trkpt>
      <trkpt lat="38.98096" lon="1.422943">
        <ele>70.047985</ele>
        <time>2023-05-07T10:52:18.000Z</time>
      </trkpt>
      <trkpt lat="38.980952" lon="1.423262">
        <ele>70.864571</ele>
        <time>2023-05-07T10:52:21.000Z</time>
      </trkpt>
      <trkpt lat="38.98112" lon="1.425451">
        <ele>75.605288</ele>
        <time>2023-05-07T10:52:40.000Z</time>
      </trkpt>
      <trkpt lat="38.981198" lon="1.426842">
        <ele>74.617103</ele>
        <time>2023-05-07T10:52:52.000Z</time>
      </trkpt>
      <trkpt lat="38.981173" lon="1.427377">
        <ele>74.249558</ele>
        <time>2023-05-07T10:52:57.000Z</time>
      </trkpt>
      <trkpt lat="38.981112" lon="1.427663">
        <ele>73.811261</ele>
        <time>2023-05-07T10:53:00.000Z</time>
      </trkpt>
      <trkpt lat="38.981011" lon="1.427982">
        <ele>73.069502</ele>
        <time>2023-05-07T10:53:03.000Z</time>
      </trkpt>
      <trkpt lat="38.980904" lon="1.428267">
        <ele>72.408319</ele>
        <time>2023-05-07T10:53:06.000Z</time>
      </trkpt>
      <trkpt lat="38.980766" lon="1.428547">
        <ele>71.680702</ele>
        <time>2023-05-07T10:53:09.000Z</time>
      </trkpt>
      <trkpt lat="38.980616" lon="1.428777">
        <ele>71.069459</ele>
        <time>2023-05-07T10:53:12.000Z</time>
      </trkpt>
      <trkpt lat="38.980338" lon="1.429105">
        <ele>70.063536</ele>
        <time>2023-05-07T10:53:16.000Z</time>
      </trkpt>
      <trkpt lat="38.980152" lon="1.429268">
        <ele>69.461095</ele>
        <time>2023-05-07T10:53:19.000Z</time>
      </trkpt>
      <trkpt lat="38.979863" lon="1.42946">
        <ele>69.258534</ele>
        <time>2023-05-07T10:53:23.000Z</time>
      </trkpt>
      <trkpt lat="38.979632" lon="1.429584">
        <ele>69.23934</ele>
        <time>2023-05-07T10:53:26.000Z</time>
      </trkpt>
      <trkpt lat="38.978381" lon="1.43012">
        <ele>69.159546</ele>
        <time>2023-05-07T10:53:41.000Z</time>
      </trkpt>
      <trkpt lat="38.978138" lon="1.430251">
        <ele>69.288359</ele>
        <time>2023-05-07T10:53:44.000Z</time>
      </trkpt>
      <trkpt lat="38.977838" lon="1.430464">
        <ele>69.46331</ele>
        <time>2023-05-07T10:53:48.000Z</time>
      </trkpt>
      <trkpt lat="38.977556" lon="1.430761">
        <ele>69.647037</ele>
        <time>2023-05-07T10:53:52.000Z</time>
      </trkpt>
      <trkpt lat="38.97735" lon="1.431031">
        <ele>69.796435</ele>
        <time>2023-05-07T10:53:55.000Z</time>
      </trkpt>
      <trkpt lat="38.977083" lon="1.431552">
        <ele>70.037551</ele>
        <time>2023-05-07T10:54:00.000Z</time>
      </trkpt>
      <trkpt lat="38.976915" lon="1.432012">
        <ele>70.751212</ele>
        <time>2023-05-07T10:54:04.000Z</time>
      </trkpt>
      <trkpt lat="38.976871" lon="1.432281">
        <ele>71.156396</ele>
        <time>2023-05-07T10:54:06.000Z</time>
      </trkpt>
      <trkpt lat="38.976823" lon="1.432644">
        <ele>71.682072</ele>
        <time>2023-05-07T10:54:09.000Z</time>
      </trkpt>
      <trkpt lat="38.976813" lon="1.433528">
        <ele>72.941109</ele>
        <time>2023-05-07T10:54:17.000Z</time>
      </trkpt>
      <trkpt lat="38.976765" lon="1.435815">
        <ele>77.140561</ele>
        <time>2023-05-07T10:54:37.000Z</time>
      </trkpt>
      <trkpt lat="38.976771" lon="1.43601">
        <ele>77.506026</ele>
        <time>2023-05-07T10:54:39.000Z</time>
      </trkpt>
      <trkpt lat="38.976752" lon="1.436535">
        <ele>77.990399</ele>
        <time>2023-05-07T10:54:44.000Z</time>
      </trkpt>
      <trkpt lat="38.97671" lon="1.437249">
        <ele>78.408052</ele>
        <time>2023-05-07T10:54:50.000Z</time>
      </trkpt>
      <trkpt lat="38.976613" lon="1.437874">
        <ele>78.769769</ele>
        <time>2023-05-07T10:54:56.000Z</time>
      </trkpt>
      <trkpt lat="38.976526" lon="1.43834">
        <ele>79.057224</ele>
        <time>2023-05-07T10:55:00.000Z</time>
      </trkpt>
      <trkpt lat="38.976439" lon="1.438738">
        <ele>79.161887</ele>
        <time>2023-05-07T10:55:04.000Z</time>
      </trkpt>
      <trkpt lat="38.976329" lon="1.439315">
        <ele>79.274123</ele>
        <time>2023-05-07T10:55:09.000Z</time>
      </trkpt>
      <trkpt lat="38.976312" lon="1.439409">
        <ele>79.292167</ele>
        <time>2023-05-07T10:55:10.000Z</time>
      </trkpt>
      <trkpt lat="38.976111" lon="1.440402">
        <ele>79.484538</ele>
        <time>2023-05-07T10:55:19.000Z</time>
      </trkpt>
      <trkpt lat="38.976062" lon="1.440747">
        <ele>79.554872</ele>
        <time>2023-05-07T10:55:22.000Z</time>
      </trkpt>
      <trkpt lat="38.976057" lon="1.441042">
        <ele>79.620648</ele>
        <time>2023-05-07T10:55:25.000Z</time>
      </trkpt>
      <trkpt lat="38.976092" lon="1.441713">
        <ele>79.771413</ele>
        <time>2023-05-07T10:55:31.000Z</time>
      </trkpt>
      <trkpt lat="38.976104" lon="1.441985">
        <ele>79.829709</ele>
        <time>2023-05-07T10:55:33.000Z</time>
      </trkpt>
      <trkpt lat="38.976219" lon="1.443139">
        <ele>80.019171</ele>
        <time>2023-05-07T10:55:43.000Z</time>
      </trkpt>
      <trkpt lat="38.976107" lon="1.441975">
        <ele>79.81698</ele>
        <time>2023-05-07T10:55:53.000Z</time>
      </trkpt>
      <trkpt lat="38.976082" lon="1.441723">
        <ele>79.771512</ele>
        <time>2023-05-07T10:55:55.000Z</time>
      </trkpt>
      <trkpt lat="38.976054" lon="1.441047">
        <ele>79.653895</ele>
        <time>2023-05-07T10:56:01.000Z</time>
      </trkpt>
      <trkpt lat="38.976062" lon="1.44075">
        <ele>79.590911</ele>
        <time>2023-05-07T10:56:04.000Z</time>
      </trkpt>
      <trkpt lat="38.976108" lon="1.440393">
        <ele>79.513081</ele>
        <time>2023-05-07T10:56:07.000Z</time>
      </trkpt>
      <trkpt lat="38.976303" lon="1.4394">
        <ele>79.290527</ele>
        <time>2023-05-07T10:56:16.000Z</time>
      </trkpt>
      <trkpt lat="38.976321" lon="1.439308">
        <ele>79.269646</ele>
        <time>2023-05-07T10:56:17.000Z</time>
      </trkpt>
      <trkpt lat="38.97645" lon="1.438737">
        <ele>79.13617</ele>
        <time>2023-05-07T10:56:22.000Z</time>
      </trkpt>
      <trkpt lat="38.97653" lon="1.43835">
        <ele>78.968224</ele>
        <time>2023-05-07T10:56:25.000Z</time>
      </trkpt>
      <trkpt lat="38.976624" lon="1.43786">
        <ele>78.763907</ele>
        <time>2023-05-07T10:56:29.000Z</time>
      </trkpt>
      <trkpt lat="38.976707" lon="1.437256">
        <ele>78.506805</ele>
        <time>2023-05-07T10:56:34.000Z</time>
      </trkpt>
      <trkpt lat="38.976756" lon="1.436549">
        <ele>78.209931</ele>
        <time>2023-05-07T10:56:40.000Z</time>
      </trkpt>
      <trkpt lat="38.976763" lon="1.436002">
        <ele>77.328217</ele>
        <time>2023-05-07T10:56:45.000Z</time>
      </trkpt>
      <trkpt lat="38.976771" lon="1.435804">
        <ele>76.985676</ele>
        <time>2023-05-07T10:56:47.000Z</time>
      </trkpt>
      <trkpt lat="38.976805" lon="1.433527">
        <ele>73.034523</ele>
        <time>2023-05-07T10:57:07.000Z</time>
      </trkpt>
      <trkpt lat="38.976824" lon="1.432644">
        <ele>71.616643</ele>
        <time>2023-05-07T10:57:15.000Z</time>
      </trkpt>
      <trkpt lat="38.976862" lon="1.432289">
        <ele>71.024652</ele>
        <time>2023-05-07T10:57:18.000Z</time>
      </trkpt>
      <trkpt lat="38.976929" lon="1.432017">
        <ele>70.568346</ele>
        <time>2023-05-07T10:57:20.000Z</time>
      </trkpt>
      <trkpt lat="38.977071" lon="1.431555">
        <ele>70.163856</ele>
        <time>2023-05-07T10:57:24.000Z</time>
      </trkpt>
      <trkpt lat="38.977343" lon="1.431025">
        <ele>69.871392</ele>
        <time>2023-05-07T10:57:29.000Z</time>
      </trkpt>
      <trkpt lat="38.977549" lon="1.430757">
        <ele>69.690166</ele>
        <time>2023-05-07T10:57:32.000Z</time>
      </trkpt>
      <trkpt lat="38.977836" lon="1.430469">
        <ele>69.467339</ele>
        <time>2023-05-07T10:57:36.000Z</time>
      </trkpt>
      <trkpt lat="38.978141" lon="1.430261">
        <ele>69.255115</ele>
        <time>2023-05-07T10:57:40.000Z</time>
      </trkpt>
      <trkpt lat="38.97837" lon="1.430132">
        <ele>69.21038</ele>
        <time>2023-05-07T10:57:43.000Z</time>
      </trkpt>
      <trkpt lat="38.979627" lon="1.429577">
        <ele>69.039897</ele>
        <time>2023-05-07T10:57:58.000Z</time>
      </trkpt>
      <trkpt lat="38.979853" lon="1.429464">
        <ele>69.009977</ele>
        <time>2023-05-07T10:58:01.000Z</time>
      </trkpt>
      <trkpt lat="38.980153" lon="1.429262">
        <ele>69.816841</ele>
        <time>2023-05-07T10:58:05.000Z</time>
      </trkpt>
      <trkpt lat="38.980336" lon="1.429101">
        <ele>70.344374</ele>
        <time>2023-05-07T10:58:07.000Z</time>
      </trkpt>
      <trkpt lat="38.980619" lon="1.428774">
        <ele>71.225236</ele>
        <time>2023-05-07T10:58:11.000Z</time>
      </trkpt>
      <trkpt lat="38.98075" lon="1.428554">
        <ele>71.760482</ele>
        <time>2023-05-07T10:58:13.000Z</time>
      </trkpt>
      <trkpt lat="38.980905" lon="1.428259">
        <ele>72.39763</ele>
        <time>2023-05-07T10:58:16.000Z</time>
      </trkpt>
      <trkpt lat="38.981014" lon="1.427981">
        <ele>72.976605</ele>
        <time>2023-05-07T10:58:19.000Z</time>
      </trkpt>
      <trkpt lat="38.981103" lon="1.427652">
        <ele>73.51478</ele>
        <time>2023-05-07T10:58:22.000Z</time>
      </trkpt>
      <trkpt lat="38.981164" lon="1.427378">
        <ele>73.885476</ele>
        <time>2023-05-07T10:58:24.000Z</time>
      </trkpt>
      <trkpt lat="38.981196" lon="1.426858">
        <ele>74.537707</ele>
        <time>2023-05-07T10:58:29.000Z</time>
      </trkpt>
      <trkpt lat="38.981126" lon="1.425455">
        <ele>75.982755</ele>
        <time>2023-05-07T10:58:41.000Z</time>
      </trkpt>
      <trkpt lat="38.980951" lon="1.423268">
        <ele>71.063043</ele>
        <time>2023-05-07T10:59:00.000Z</time>
      </trkpt>
      <trkpt lat="38.980946" lon="1.422943">
        <ele>70.079467</ele>
        <time>2023-05-07T10:59:03.000Z</time>
      </trkpt>
      <trkpt lat="38.980991" lon="1.422409">
        <ele>68.413355</ele>
        <time>2023-05-07T10:59:08.000Z</time>
      </trkpt>
      <trkpt lat="38.981173" lon="1.421351">
        <ele>64.984143</ele>
        <time>2023-05-07T10:59:17.000Z</time>
      </trkpt>
      <trkpt lat="38.981219" lon="1.420747">
        <ele>63.505578</ele>
        <time>2023-05-07T10:59:22.000Z</time>
      </trkpt>
      <trkpt lat="38.981197" lon="1.420163">
        <ele>62.772574</ele>
        <time>2023-05-07T10:59:27.000Z</time>
      </trkpt>
      <trkpt lat="38.981095" lon="1.419597">
        <ele>62.065258</ele>
        <time>2023-05-07T10:59:32.000Z</time>
      </trkpt>
      <trkpt lat="38.98103" lon="1.419367">
        <ele>61.756666</ele>
        <time>2023-05-07T10:59:34.000Z</time>
      </trkpt>
      <trkpt lat="38.980945" lon="1.419073">
        <ele>61.370319</ele>
        <time>2023-05-07T10:59:37.000Z</time>
      </trkpt>
      <trkpt lat="38.980348" lon="1.417643">
        <ele>61.780014</ele>
        <time>2023-05-07T10:59:51.000Z</time>
      </trkpt>
      <trkpt lat="38.979293" lon="1.415047">
        <ele>64.156247</ele>
        <time>2023-05-07T11:00:16.000Z</time>
      </trkpt>
      <trkpt lat="38.979241" lon="1.414725">
        <ele>64.458537</ele>
        <time>2023-05-07T11:00:19.000Z</time>
      </trkpt>
      <trkpt lat="38.979248" lon="1.414701">
        <ele>64.482014</ele>
        <time>2023-05-07T11:00:19.000Z</time>
      </trkpt>
      <trkpt lat="38.979447" lon="1.414488">
        <ele>64.794585</ele>
        <time>2023-05-07T11:00:22.000Z</time>
      </trkpt>
      <trkpt lat="38.979584" lon="1.414378">
        <ele>64.996065</ele>
        <time>2023-05-07T11:00:24.000Z</time>
      </trkpt>
      <trkpt lat="38.980161" lon="1.413687">
        <ele>65.9939</ele>
        <time>2023-05-07T11:00:33.000Z</time>
      </trkpt>
      <trkpt lat="38.980628" lon="1.413095">
        <ele>66.801424</ele>
        <time>2023-05-07T11:00:40.000Z</time>
      </trkpt>
      <trkpt lat="38.981834" lon="1.41157">
        <ele>69.670145</ele>
        <time>2023-05-07T11:00:59.000Z</time>
      </trkpt>
      <trkpt lat="38.98288" lon="1.410258">
        <ele>71.592318</ele>
        <time>2023-05-07T11:01:15.000Z</time>
      </trkpt>
      <trkpt lat="38.983531" lon="1.409087">
        <ele>72.926726</ele>
        <time>2023-05-07T11:01:27.000Z</time>
      </trkpt>
      <trkpt lat="38.984092" lon="1.407978">
        <ele>74.097814</ele>
        <time>2023-05-07T11:01:38.000Z</time>
      </trkpt>
      <trkpt lat="38.984984" lon="1.407528">
        <ele>75.445447</ele>
        <time>2023-05-07T11:01:49.000Z</time>
      </trkpt>
      <trkpt lat="38.985826" lon="1.406086">
        <ele>78.133015</ele>
        <time>2023-05-07T11:02:05.000Z</time>
      </trkpt>
      <trkpt lat="38.98611" lon="1.405713">
        <ele>79.35317</ele>
        <time>2023-05-07T11:02:10.000Z</time>
      </trkpt>
      <trkpt lat="38.986175" lon="1.405644">
        <ele>79.639059</ele>
        <time>2023-05-07T11:02:11.000Z</time>
      </trkpt>
      <trkpt lat="38.986384" lon="1.405483">
        <ele>80.341487</ele>
        <time>2023-05-07T11:02:14.000Z</time>
      </trkpt>
      <trkpt lat="38.987311" lon="1.405106">
        <ele>83.884728</ele>
        <time>2023-05-07T11:02:25.000Z</time>
      </trkpt>
      <trkpt lat="38.98803" lon="1.404655">
        <ele>87.906291</ele>
        <time>2023-05-07T11:02:34.000Z</time>
      </trkpt>
      <trkpt lat="38.989752" lon="1.404256">
        <ele>95.965989</ele>
        <time>2023-05-07T11:02:53.000Z</time>
      </trkpt>
      <trkpt lat="38.993574" lon="1.40291">
        <ele>108.961573</ele>
        <time>2023-05-07T11:03:37.000Z</time>
      </trkpt>
      <trkpt lat="38.99392" lon="1.402678">
        <ele>110.060717</ele>
        <time>2023-05-07T11:03:41.000Z</time>
      </trkpt>
      <trkpt lat="38.994847" lon="1.403069">
        <ele>112.755863</ele>
        <time>2023-05-07T11:03:52.000Z</time>
      </trkpt>
      <trkpt lat="38.995512" lon="1.403087">
        <ele>114.540414</ele>
        <time>2023-05-07T11:03:59.000Z</time>
      </trkpt>
      <trkpt lat="38.996482" lon="1.402654">
        <ele>118.762708</ele>
        <time>2023-05-07T11:04:10.000Z</time>
      </trkpt>
      <trkpt lat="38.997545" lon="1.402168">
        <ele>123.841039</ele>
        <time>2023-05-07T11:04:23.000Z</time>
      </trkpt>
      <trkpt lat="38.997959" lon="1.401942">
        <ele>126.175344</ele>
        <time>2023-05-07T11:04:28.000Z</time>
      </trkpt>
      <trkpt lat="38.999085" lon="1.400366">
        <ele>133.664442</ele>
        <time>2023-05-07T11:04:47.000Z</time>
      </trkpt>
      <trkpt lat="39.000138" lon="1.399202">
        <ele>137.404127</ele>
        <time>2023-05-07T11:05:02.000Z</time>
      </trkpt>
      <trkpt lat="39.000294" lon="1.398995">
        <ele>137.422398</ele>
        <time>2023-05-07T11:05:04.000Z</time>
      </trkpt>
      <trkpt lat="39.000892" lon="1.398155">
        <ele>137.493134</ele>
        <time>2023-05-07T11:05:14.000Z</time>
      </trkpt>
      <trkpt lat="39.001213" lon="1.397816">
        <ele>137.526208</ele>
        <time>2023-05-07T11:05:19.000Z</time>
      </trkpt>
      <trkpt lat="39.001718" lon="1.397563">
        <ele>136.718905</ele>
        <time>2023-05-07T11:05:25.000Z</time>
      </trkpt>
      <trkpt lat="39.002957" lon="1.397005">
        <ele>134.28498</ele>
        <time>2023-05-07T11:05:40.000Z</time>
      </trkpt>
      <trkpt lat="39.003441" lon="1.39676">
        <ele>133.085667</ele>
        <time>2023-05-07T11:05:46.000Z</time>
      </trkpt>
      <trkpt lat="39.004104" lon="1.396272">
        <ele>131.265233</ele>
        <time>2023-05-07T11:05:54.000Z</time>
      </trkpt>
      <trkpt lat="39.004165" lon="1.396222">
        <ele>131.139281</ele>
        <time>2023-05-07T11:05:55.000Z</time>
      </trkpt>
      <trkpt lat="39.004922" lon="1.395643">
        <ele>129.788535</ele>
        <time>2023-05-07T11:06:05.000Z</time>
      </trkpt>
      <trkpt lat="39.005363" lon="1.395153">
        <ele>129.541188</ele>
        <time>2023-05-07T11:06:11.000Z</time>
      </trkpt>
      <trkpt lat="39.005939" lon="1.394986">
        <ele>129.285007</ele>
        <time>2023-05-07T11:06:18.000Z</time>
      </trkpt>
      <trkpt lat="39.007201" lon="1.394027">
        <ele>131.86078</ele>
        <time>2023-05-07T11:06:34.000Z</time>
      </trkpt>
      <trkpt lat="39.007253" lon="1.393999">
        <ele>131.97601</ele>
        <time>2023-05-07T11:06:35.000Z</time>
      </trkpt>
      <trkpt lat="39.008514" lon="1.39303">
        <ele>137.538638</ele>
        <time>2023-05-07T11:06:51.000Z</time>
      </trkpt>
      <trkpt lat="39.008547" lon="1.393108">
        <ele>137.849613</ele>
        <time>2023-05-07T11:06:52.000Z</time>
      </trkpt>
      <trkpt lat="39.009459" lon="1.394504">
        <ele>143.724943</ele>
        <time>2023-05-07T11:07:08.000Z</time>
      </trkpt>
      <trkpt lat="39.009718" lon="1.394178">
        <ele>144.97317</ele>
        <time>2023-05-07T11:07:12.000Z</time>
      </trkpt>
      <trkpt lat="39.009783" lon="1.394062">
        <ele>145.375407</ele>
        <time>2023-05-07T11:07:13.000Z</time>
      </trkpt>
      <trkpt lat="39.009968" lon="1.393829">
        <ele>146.281833</ele>
        <time>2023-05-07T11:07:16.000Z</time>
      </trkpt>
      <trkpt lat="39.010006" lon="1.393787">
        <ele>146.434251</ele>
        <time>2023-05-07T11:07:17.000Z</time>
      </trkpt>
      <trkpt lat="39.010057" lon="1.393695">
        <ele>146.736947</ele>
        <time>2023-05-07T11:07:18.000Z</time>
      </trkpt>
      <trkpt lat="39.010983" lon="1.392164">
        <ele>149.679085</ele>
        <time>2023-05-07T11:07:35.000Z</time>
      </trkpt>
      <trkpt lat="39.011198" lon="1.391946">
        <ele>150.098502</ele>
        <time>2023-05-07T11:07:38.000Z</time>
      </trkpt>
      <trkpt lat="39.011272" lon="1.391854">
        <ele>150.268951</ele>
        <time>2023-05-07T11:07:39.000Z</time>
      </trkpt>
      <trkpt lat="39.012309" lon="1.391048">
        <ele>153.495629</ele>
        <time>2023-05-07T11:07:52.000Z</time>
      </trkpt>
      <trkpt lat="39.013617" lon="1.390158">
        <ele>157.459886</ele>
        <time>2023-05-07T11:08:08.000Z</time>
      </trkpt>
      <trkpt lat="39.014508" lon="1.389669">
        <ele>159.784112</ele>
        <time>2023-05-07T11:08:19.000Z</time>
      </trkpt>
      <trkpt lat="39.014796" lon="1.38955">
        <ele>160.435061</ele>
        <time>2023-05-07T11:08:22.000Z</time>
      </trkpt>
      <trkpt lat="39.015393" lon="1.389293">
        <ele>161.604435</ele>
        <time>2023-05-07T11:08:29.000Z</time>
      </trkpt>
      <trkpt lat="39.016917" lon="1.388674">
        <ele>164.445035</ele>
        <time>2023-05-07T11:08:47.000Z</time>
      </trkpt>
      <trkpt lat="39.017087" lon="1.388589">
        <ele>164.763325</ele>
        <time>2023-05-07T11:08:49.000Z</time>
      </trkpt>
      <trkpt lat="39.017969" lon="1.388243">
        <ele>166.325275</ele>
        <time>2023-05-07T11:08:59.000Z</time>
      </trkpt>
      <trkpt lat="39.018233" lon="1.388066">
        <ele>166.760713</ele>
        <time>2023-05-07T11:09:02.000Z</time>
      </trkpt>
      <trkpt lat="39.018573" lon="1.387739">
        <ele>167.361772</ele>
        <time>2023-05-07T11:09:07.000Z</time>
      </trkpt>
      <trkpt lat="39.018967" lon="1.387373">
        <ele>168.016808</ele>
        <time>2023-05-07T11:09:12.000Z</time>
      </trkpt>
      <trkpt lat="39.018979" lon="1.387362">
        <ele>168.041919</ele>
        <time>2023-05-07T11:09:12.000Z</time>
      </trkpt>
      <trkpt lat="39.01917" lon="1.387227">
        <ele>168.350822</ele>
        <time>2023-05-07T11:09:14.000Z</time>
      </trkpt>
      <trkpt lat="39.020123" lon="1.386786">
        <ele>169.605129</ele>
        <time>2023-05-07T11:09:25.000Z</time>
      </trkpt>
      <trkpt lat="39.020586" lon="1.386617">
        <ele>170.143345</ele>
        <time>2023-05-07T11:09:30.000Z</time>
      </trkpt>
      <trkpt lat="39.021737" lon="1.386167">
        <ele>171.395759</ele>
        <time>2023-05-07T11:09:43.000Z</time>
      </trkpt>
      <trkpt lat="39.022368" lon="1.385912">
        <ele>172.00489</ele>
        <time>2023-05-07T11:09:50.000Z</time>
      </trkpt>
      <trkpt lat="39.022598" lon="1.385826">
        <ele>172.213245</ele>
        <time>2023-05-07T11:09:53.000Z</time>
      </trkpt>
      <trkpt lat="39.023483" lon="1.385457">
        <ele>173.031104</ele>
        <time>2023-05-07T11:10:03.000Z</time>
      </trkpt>
      <trkpt lat="39.024581" lon="1.385022">
        <ele>173.984514</ele>
        <time>2023-05-07T11:10:16.000Z</time>
      </trkpt>
      <trkpt lat="39.025448" lon="1.384474">
        <ele>174.994896</ele>
        <time>2023-05-07T11:10:27.000Z</time>
      </trkpt>
      <trkpt lat="39.025894" lon="1.384191">
        <ele>175.528872</ele>
        <time>2023-05-07T11:10:33.000Z</time>
      </trkpt>
      <trkpt lat="39.026542" lon="1.384017">
        <ele>176.275573</ele>
        <time>2023-05-07T11:10:40.000Z</time>
      </trkpt>
      <trkpt lat="39.029238" lon="1.383245">
        <ele>178.992752</ele>
        <time>2023-05-07T11:11:11.000Z</time>
      </trkpt>
      <trkpt lat="39.030182" lon="1.383253">
        <ele>179.623418</ele>
        <time>2023-05-07T11:11:21.000Z</time>
      </trkpt>
      <trkpt lat="39.030584" lon="1.383158">
        <ele>179.711801</ele>
        <time>2023-05-07T11:11:26.000Z</time>
      </trkpt>
      <trkpt lat="39.033202" lon="1.382035">
        <ele>180.380322</ele>
        <time>2023-05-07T11:11:57.000Z</time>
      </trkpt>
      <trkpt lat="39.033663" lon="1.381873">
        <ele>180.862792</ele>
        <time>2023-05-07T11:12:02.000Z</time>
      </trkpt>
      <trkpt lat="39.03407" lon="1.381749">
        <ele>181.481608</ele>
        <time>2023-05-07T11:12:07.000Z</time>
      </trkpt>
      <trkpt lat="39.034935" lon="1.381563">
        <ele>182.778423</ele>
        <time>2023-05-07T11:12:17.000Z</time>
      </trkpt>
      <trkpt lat="39.035366" lon="1.381532">
        <ele>183.830539</ele>
        <time>2023-05-07T11:12:22.000Z</time>
      </trkpt>
      <trkpt lat="39.035691" lon="1.381577">
        <ele>184.971058</ele>
        <time>2023-05-07T11:12:26.000Z</time>
      </trkpt>
      <trkpt lat="39.036226" lon="1.381712">
        <ele>186.895827</ele>
        <time>2023-05-07T11:12:32.000Z</time>
      </trkpt>
      <trkpt lat="39.036433" lon="1.381834">
        <ele>187.643024</ele>
        <time>2023-05-07T11:12:35.000Z</time>
      </trkpt>
      <trkpt lat="39.03818" lon="1.382874">
        <ele>196.560844</ele>
        <time>2023-05-07T11:12:56.000Z</time>
      </trkpt>
      <trkpt lat="39.03817" lon="1.382999">
        <ele>197.092972</ele>
        <time>2023-05-07T11:12:57.000Z</time>
      </trkpt>
      <trkpt lat="39.038352" lon="1.383531">
        <ele>199.297593</ele>
        <time>2023-05-07T11:13:02.000Z</time>
      </trkpt>
      <trkpt lat="39.038547" lon="1.384035">
        <ele>201.579943</ele>
        <time>2023-05-07T11:13:07.000Z</time>
      </trkpt>
      <trkpt lat="39.03897" lon="1.384894">
        <ele>205.548382</ele>
        <time>2023-05-07T11:13:16.000Z</time>
      </trkpt>
      <trkpt lat="39.039071" lon="1.385126">
        <ele>206.615916</ele>
        <time>2023-05-07T11:13:18.000Z</time>
      </trkpt>
      <trkpt lat="39.03909" lon="1.385325">
        <ele>207.377092</ele>
        <time>2023-05-07T11:13:20.000Z</time>
      </trkpt>
      <trkpt lat="39.039081" lon="1.38552">
        <ele>208.244283</ele>
        <time>2023-05-07T11:13:22.000Z</time>
      </trkpt>
      <trkpt lat="39.038879" lon="1.387329">
        <ele>216.081645</ele>
        <time>2023-05-07T11:13:38.000Z</time>
      </trkpt>
      <trkpt lat="39.038845" lon="1.387886">
        <ele>218.677953</ele>
        <time>2023-05-07T11:13:43.000Z</time>
      </trkpt>
      <trkpt lat="39.038901" lon="1.388537">
        <ele>221.922441</ele>
        <time>2023-05-07T11:13:49.000Z</time>
      </trkpt>
      <trkpt lat="39.03907" lon="1.390024">
        <ele>229.334983</ele>
        <time>2023-05-07T11:14:02.000Z</time>
      </trkpt>
      <trkpt lat="39.039032" lon="1.390319">
        <ele>230.450077</ele>
        <time>2023-05-07T11:14:05.000Z</time>
      </trkpt>
      <trkpt lat="39.038948" lon="1.390551">
        <ele>231.493032</ele>
        <time>2023-05-07T11:14:07.000Z</time>
      </trkpt>
      <trkpt lat="39.038732" lon="1.391043">
        <ele>233.572445</ele>
        <time>2023-05-07T11:14:12.000Z</time>
      </trkpt>
      <trkpt lat="39.038709" lon="1.391296">
        <ele>234.550422</ele>
        <time>2023-05-07T11:14:14.000Z</time>
      </trkpt>
      <trkpt lat="39.038735" lon="1.39151">
        <ele>235.388701</ele>
        <time>2023-05-07T11:14:16.000Z</time>
      </trkpt>
      <trkpt lat="39.038778" lon="1.391713">
        <ele>236.211249</ele>
        <time>2023-05-07T11:14:18.000Z</time>
      </trkpt>
      <trkpt lat="39.038863" lon="1.391878">
        <ele>236.964638</ele>
        <time>2023-05-07T11:14:20.000Z</time>
      </trkpt>
      <trkpt lat="39.039223" lon="1.392285">
        <ele>238.283298</ele>
        <time>2023-05-07T11:14:25.000Z</time>
      </trkpt>
      <trkpt lat="39.03936" lon="1.392414">
        <ele>238.543401</ele>
        <time>2023-05-07T11:14:27.000Z</time>
      </trkpt>
      <trkpt lat="39.039486" lon="1.392614">
        <ele>238.844022</ele>
        <time>2023-05-07T11:14:29.000Z</time>
      </trkpt>
      <trkpt lat="39.039791" lon="1.393176">
        <ele>239.6504</ele>
        <time>2023-05-07T11:14:35.000Z</time>
      </trkpt>
      <trkpt lat="39.039957" lon="1.393329">
        <ele>239.970322</ele>
        <time>2023-05-07T11:14:37.000Z</time>
      </trkpt>
      <trkpt lat="39.040974" lon="1.393794">
        <ele>237.284849</ele>
        <time>2023-05-07T11:14:49.000Z</time>
      </trkpt>
      <trkpt lat="39.041814" lon="1.394292">
        <ele>232.899552</ele>
        <time>2023-05-07T11:14:59.000Z</time>
      </trkpt>
      <trkpt lat="39.042155" lon="1.394613">
        <ele>230.265955</ele>
        <time>2023-05-07T11:15:04.000Z</time>
      </trkpt>
      <trkpt lat="39.042437" lon="1.394936">
        <ele>227.393437</ele>
        <time>2023-05-07T11:15:08.000Z</time>
      </trkpt>
      <trkpt lat="39.042856" lon="1.395409">
        <ele>223.243859</ele>
        <time>2023-05-07T11:15:14.000Z</time>
      </trkpt>
      <trkpt lat="39.043111" lon="1.395598">
        <ele>221.122628</ele>
        <time>2023-05-07T11:15:17.000Z</time>
      </trkpt>
      <trkpt lat="39.043271" lon="1.395609">
        <ele>219.900748</ele>
        <time>2023-05-07T11:15:19.000Z</time>
      </trkpt>
      <trkpt lat="39.043435" lon="1.395596">
        <ele>218.692892</ele>
        <time>2023-05-07T11:15:21.000Z</time>
      </trkpt>
      <trkpt lat="39.04421" lon="1.395392">
        <ele>216.055495</ele>
        <time>2023-05-07T11:15:30.000Z</time>
      </trkpt>
      <trkpt lat="39.044557" lon="1.395406">
        <ele>214.969669</ele>
        <time>2023-05-07T11:15:34.000Z</time>
      </trkpt>
      <trkpt lat="39.044958" lon="1.395546">
        <ele>213.638897</ele>
        <time>2023-05-07T11:15:39.000Z</time>
      </trkpt>
      <trkpt lat="39.045087" lon="1.395651">
        <ele>213.096943</ele>
        <time>2023-05-07T11:15:41.000Z</time>
      </trkpt>
      <trkpt lat="39.045223" lon="1.395796">
        <ele>212.872179</ele>
        <time>2023-05-07T11:15:43.000Z</time>
      </trkpt>
      <trkpt lat="39.045429" lon="1.396112">
        <ele>213.037099</ele>
        <time>2023-05-07T11:15:47.000Z</time>
      </trkpt>
      <trkpt lat="39.045545" lon="1.396327">
        <ele>213.139042</ele>
        <time>2023-05-07T11:15:49.000Z</time>
      </trkpt>
      <trkpt lat="39.045657" lon="1.396746">
        <ele>213.315071</ele>
        <time>2023-05-07T11:15:53.000Z</time>
      </trkpt>
      <trkpt lat="39.045716" lon="1.397532">
        <ele>213.632111</ele>
        <time>2023-05-07T11:16:00.000Z</time>
      </trkpt>
      <trkpt lat="39.045739" lon="1.398903">
        <ele>215.89373</ele>
        <time>2023-05-07T11:16:12.000Z</time>
      </trkpt>
      <trkpt lat="39.045749" lon="1.399219">
        <ele>216.498951</ele>
        <time>2023-05-07T11:16:15.000Z</time>
      </trkpt>
      <trkpt lat="39.04596" lon="1.400547">
        <ele>219.693157</ele>
        <time>2023-05-07T11:16:27.000Z</time>
      </trkpt>
      <trkpt lat="39.046255" lon="1.401969">
        <ele>224.44859</ele>
        <time>2023-05-07T11:16:40.000Z</time>
      </trkpt>
      <trkpt lat="39.046363" lon="1.402626">
        <ele>225.780202</ele>
        <time>2023-05-07T11:16:46.000Z</time>
      </trkpt>
      <trkpt lat="39.046412" lon="1.403">
        <ele>225.766968</ele>
        <time>2023-05-07T11:16:49.000Z</time>
      </trkpt>
      <trkpt lat="39.046505" lon="1.403752">
        <ele>225.739686</ele>
        <time>2023-05-07T11:16:56.000Z</time>
      </trkpt>
      <trkpt lat="39.046869" lon="1.405158">
        <ele>223.512157</ele>
        <time>2023-05-07T11:17:09.000Z</time>
      </trkpt>
      <trkpt lat="39.04734" lon="1.406485">
        <ele>217.792594</ele>
        <time>2023-05-07T11:17:22.000Z</time>
      </trkpt>
      <trkpt lat="39.04799" lon="1.408227">
        <ele>210.790214</ele>
        <time>2023-05-07T11:17:39.000Z</time>
      </trkpt>
      <trkpt lat="39.048025" lon="1.408432">
        <ele>210.050748</ele>
        <time>2023-05-07T11:17:41.000Z</time>
      </trkpt>
      <trkpt lat="39.048004" lon="1.40862">
        <ele>209.408243</ele>
        <time>2023-05-07T11:17:43.000Z</time>
      </trkpt>
      <trkpt lat="39.047951" lon="1.408744">
        <ele>208.850964</ele>
        <time>2023-05-07T11:17:44.000Z</time>
      </trkpt>
      <trkpt lat="39.047716" lon="1.408968">
        <ele>207.521291</ele>
        <time>2023-05-07T11:17:47.000Z</time>
      </trkpt>
      <trkpt lat="39.046758" lon="1.409622">
        <ele>202.516772</ele>
        <time>2023-05-07T11:17:59.000Z</time>
      </trkpt>
      <trkpt lat="39.046558" lon="1.409778">
        <ele>201.433444</ele>
        <time>2023-05-07T11:18:02.000Z</time>
      </trkpt>
      <trkpt lat="39.046442" lon="1.409955">
        <ele>200.597122</ele>
        <time>2023-05-07T11:18:04.000Z</time>
      </trkpt>
      <trkpt lat="39.046142" lon="1.410976">
        <ele>196.757317</ele>
        <time>2023-05-07T11:18:13.000Z</time>
      </trkpt>
      <trkpt lat="39.046064" lon="1.411434">
        <ele>195.09601</ele>
        <time>2023-05-07T11:18:17.000Z</time>
      </trkpt>
      <trkpt lat="39.046049" lon="1.411853">
        <ele>193.588846</ele>
        <time>2023-05-07T11:18:21.000Z</time>
      </trkpt>
      <trkpt lat="39.046067" lon="1.412161">
        <ele>192.527171</ele>
        <time>2023-05-07T11:18:24.000Z</time>
      </trkpt>
      <trkpt lat="39.046092" lon="1.412935">
        <ele>190.39944</ele>
        <time>2023-05-07T11:18:31.000Z</time>
      </trkpt>
      <trkpt lat="39.046223" lon="1.414071">
        <ele>187.566339</ele>
        <time>2023-05-07T11:18:41.000Z</time>
      </trkpt>
      <trkpt lat="39.046409" lon="1.415517">
        <ele>184.834731</ele>
        <time>2023-05-07T11:18:54.000Z</time>
      </trkpt>
      <trkpt lat="39.04702" lon="1.417668">
        <ele>181.220633</ele>
        <time>2023-05-07T11:19:14.000Z</time>
      </trkpt>
      <trkpt lat="39.047265" lon="1.418389">
        <ele>179.837411</ele>
        <time>2023-05-07T11:19:21.000Z</time>
      </trkpt>
      <trkpt lat="39.047381" lon="1.418653">
        <ele>179.290407</ele>
        <time>2023-05-07T11:19:24.000Z</time>
      </trkpt>
      <trkpt lat="39.047531" lon="1.419035">
        <ele>178.540763</ele>
        <time>2023-05-07T11:19:28.000Z</time>
      </trkpt>
      <trkpt lat="39.04795" lon="1.419843">
        <ele>176.438179</ele>
        <time>2023-05-07T11:19:36.000Z</time>
      </trkpt>
      <trkpt lat="39.048065" lon="1.420146">
        <ele>175.704661</ele>
        <time>2023-05-07T11:19:39.000Z</time>
      </trkpt>
      <trkpt lat="39.048171" lon="1.42045">
        <ele>175.008387</ele>
        <time>2023-05-07T11:19:42.000Z</time>
      </trkpt>
      <trkpt lat="39.048374" lon="1.421193">
        <ele>173.546882</ele>
        <time>2023-05-07T11:19:49.000Z</time>
      </trkpt>
      <trkpt lat="39.048768" lon="1.422619">
        <ele>172.215133</ele>
        <time>2023-05-07T11:20:02.000Z</time>
      </trkpt>
      <trkpt lat="39.048936" lon="1.423265">
        <ele>171.710251</ele>
        <time>2023-05-07T11:20:08.000Z</time>
      </trkpt>
      <trkpt lat="39.049038" lon="1.423399">
        <ele>171.81444</ele>
        <time>2023-05-07T11:20:10.000Z</time>
      </trkpt>
      <trkpt lat="39.048952" lon="1.423269">
        <ele>171.918629</ele>
        <time>2023-05-07T11:20:11.000Z</time>
      </trkpt>
      <trkpt lat="39.048752" lon="1.422636">
        <ele>172.299686</ele>
        <time>2023-05-07T11:20:17.000Z</time>
      </trkpt>
      <trkpt lat="39.048359" lon="1.42119">
        <ele>173.606811</ele>
        <time>2023-05-07T11:20:30.000Z</time>
      </trkpt>
      <trkpt lat="39.048162" lon="1.420442">
        <ele>175.149742</ele>
        <time>2023-05-07T11:20:37.000Z</time>
      </trkpt>
      <trkpt lat="39.048055" lon="1.420154">
        <ele>175.788204</ele>
        <time>2023-05-07T11:20:40.000Z</time>
      </trkpt>
      <trkpt lat="39.047939" lon="1.419843">
        <ele>176.460812</ele>
        <time>2023-05-07T11:20:43.000Z</time>
      </trkpt>
      <trkpt lat="39.047524" lon="1.41903">
        <ele>178.384675</ele>
        <time>2023-05-07T11:20:51.000Z</time>
      </trkpt>
      <trkpt lat="39.047373" lon="1.418666">
        <ele>179.192049</ele>
        <time>2023-05-07T11:20:55.000Z</time>
      </trkpt>
      <trkpt lat="39.047282" lon="1.418391">
        <ele>179.799498</ele>
        <time>2023-05-07T11:20:58.000Z</time>
      </trkpt>
      <trkpt lat="39.047021" lon="1.417671">
        <ele>181.335605</ele>
        <time>2023-05-07T11:21:05.000Z</time>
      </trkpt>
      <trkpt lat="39.046414" lon="1.415527">
        <ele>184.722193</ele>
        <time>2023-05-07T11:21:25.000Z</time>
      </trkpt>
      <trkpt lat="39.046218" lon="1.414082">
        <ele>187.648972</ele>
        <time>2023-05-07T11:21:38.000Z</time>
      </trkpt>
      <trkpt lat="39.04611" lon="1.412942">
        <ele>190.192102</ele>
        <time>2023-05-07T11:21:48.000Z</time>
      </trkpt>
      <trkpt lat="39.046067" lon="1.412156">
        <ele>192.687211</ele>
        <time>2023-05-07T11:21:55.000Z</time>
      </trkpt>
      <trkpt lat="39.046043" lon="1.41186">
        <ele>193.694112</ele>
        <time>2023-05-07T11:21:58.000Z</time>
      </trkpt>
      <trkpt lat="39.04606" lon="1.411427">
        <ele>195.123536</ele>
        <time>2023-05-07T11:22:02.000Z</time>
      </trkpt>
      <trkpt lat="39.046131" lon="1.410979">
        <ele>196.699137</ele>
        <time>2023-05-07T11:22:06.000Z</time>
      </trkpt>
      <trkpt lat="39.046442" lon="1.409952">
        <ele>200.56226</ele>
        <time>2023-05-07T11:22:16.000Z</time>
      </trkpt>
      <trkpt lat="39.046556" lon="1.409782">
        <ele>201.421055</ele>
        <time>2023-05-07T11:22:18.000Z</time>
      </trkpt>
      <trkpt lat="39.046756" lon="1.409634">
        <ele>202.53349</ele>
        <time>2023-05-07T11:22:21.000Z</time>
      </trkpt>
      <trkpt lat="39.047711" lon="1.40897">
        <ele>207.601433</ele>
        <time>2023-05-07T11:22:33.000Z</time>
      </trkpt>
      <trkpt lat="39.047944" lon="1.408754">
        <ele>208.873042</ele>
        <time>2023-05-07T11:22:36.000Z</time>
      </trkpt>
      <trkpt lat="39.048013" lon="1.408624">
        <ele>209.41079</ele>
        <time>2023-05-07T11:22:37.000Z</time>
      </trkpt>
      <trkpt lat="39.048024" lon="1.408445">
        <ele>210.03076</ele>
        <time>2023-05-07T11:22:39.000Z</time>
      </trkpt>
      <trkpt lat="39.047982" lon="1.408228">
        <ele>210.744321</ele>
        <time>2023-05-07T11:22:41.000Z</time>
      </trkpt>
      <trkpt lat="39.047341" lon="1.406477">
        <ele>217.906954</ele>
        <time>2023-05-07T11:22:58.000Z</time>
      </trkpt>
      <trkpt lat="39.046858" lon="1.405175">
        <ele>223.816732</ele>
        <time>2023-05-07T11:23:10.000Z</time>
      </trkpt>
      <trkpt lat="39.046504" lon="1.403742">
        <ele>225.799925</ele>
        <time>2023-05-07T11:23:23.000Z</time>
      </trkpt>
      <trkpt lat="39.046405" lon="1.402994">
        <ele>226.727761</ele>
        <time>2023-05-07T11:23:30.000Z</time>
      </trkpt>
      <trkpt lat="39.046361" lon="1.402635">
        <ele>226.135046</ele>
        <time>2023-05-07T11:23:33.000Z</time>
      </trkpt>
      <trkpt lat="39.046254" lon="1.401974">
        <ele>224.11892</ele>
        <time>2023-05-07T11:23:39.000Z</time>
      </trkpt>
      <trkpt lat="39.045957" lon="1.400546">
        <ele>219.690716</ele>
        <time>2023-05-07T11:23:52.000Z</time>
      </trkpt>
      <trkpt lat="39.045749" lon="1.399218">
        <ele>216.505416</ele>
        <time>2023-05-07T11:24:04.000Z</time>
      </trkpt>
      <trkpt lat="39.045731" lon="1.398906">
        <ele>215.79058</ele>
        <time>2023-05-07T11:24:07.000Z</time>
      </trkpt>
      <trkpt lat="39.045721" lon="1.39752">
        <ele>213.820495</ele>
        <time>2023-05-07T11:24:19.000Z</time>
      </trkpt>
      <trkpt lat="39.045657" lon="1.396741">
        <ele>213.222124</ele>
        <time>2023-05-07T11:24:26.000Z</time>
      </trkpt>
      <trkpt lat="39.045545" lon="1.396342">
        <ele>212.889891</ele>
        <time>2023-05-07T11:24:30.000Z</time>
      </trkpt>
      <trkpt lat="39.045423" lon="1.396121">
        <ele>212.697507</ele>
        <time>2023-05-07T11:24:32.000Z</time>
      </trkpt>
      <trkpt lat="39.045231" lon="1.395812">
        <ele>213.302168</ele>
        <time>2023-05-07T11:24:35.000Z</time>
      </trkpt>
      <trkpt lat="39.045098" lon="1.395658">
        <ele>213.68051</ele>
        <time>2023-05-07T11:24:37.000Z</time>
      </trkpt>
      <trkpt lat="39.044951" lon="1.395536">
        <ele>214.041552</ele>
        <time>2023-05-07T11:24:39.000Z</time>
      </trkpt>
      <trkpt lat="39.044562" lon="1.395403">
        <ele>214.928092</ele>
        <time>2023-05-07T11:24:43.000Z</time>
      </trkpt>
      <trkpt lat="39.044222" lon="1.395392">
        <ele>215.651461</ele>
        <time>2023-05-07T11:24:47.000Z</time>
      </trkpt>
      <trkpt lat="39.043423" lon="1.395604">
        <ele>219.270768</ele>
        <time>2023-05-07T11:24:56.000Z</time>
      </trkpt>
      <trkpt lat="39.043272" lon="1.395609">
        <ele>220.39602</ele>
        <time>2023-05-07T11:24:58.000Z</time>
      </trkpt>
      <trkpt lat="39.043103" lon="1.3956">
        <ele>221.53436</ele>
        <time>2023-05-07T11:25:00.000Z</time>
      </trkpt>
      <trkpt lat="39.042853" lon="1.39541">
        <ele>223.510534</ele>
        <time>2023-05-07T11:25:03.000Z</time>
      </trkpt>
      <trkpt lat="39.042438" lon="1.394948">
        <ele>227.376358</ele>
        <time>2023-05-07T11:25:09.000Z</time>
      </trkpt>
      <trkpt lat="39.042159" lon="1.394597">
        <ele>229.908097</ele>
        <time>2023-05-07T11:25:13.000Z</time>
      </trkpt>
      <trkpt lat="39.0418" lon="1.394296">
        <ele>232.426639</ele>
        <time>2023-05-07T11:25:18.000Z</time>
      </trkpt>
      <trkpt lat="39.040973" lon="1.393796">
        <ele>237.931571</ele>
        <time>2023-05-07T11:25:28.000Z</time>
      </trkpt>
      <trkpt lat="39.039957" lon="1.393342">
        <ele>239.501958</ele>
        <time>2023-05-07T11:25:40.000Z</time>
      </trkpt>
      <trkpt lat="39.03979" lon="1.393168">
        <ele>239.433175</ele>
        <time>2023-05-07T11:25:42.000Z</time>
      </trkpt>
      <trkpt lat="39.039504" lon="1.392607">
        <ele>239.259815</ele>
        <time>2023-05-07T11:25:48.000Z</time>
      </trkpt>
      <trkpt lat="39.039372" lon="1.392412">
        <ele>239.195204</ele>
        <time>2023-05-07T11:25:50.000Z</time>
      </trkpt>
      <trkpt lat="39.039234" lon="1.392289">
        <ele>238.809014</ele>
        <time>2023-05-07T11:25:52.000Z</time>
      </trkpt>
      <trkpt lat="39.038873" lon="1.391881">
        <ele>236.676951</ele>
        <time>2023-05-07T11:25:57.000Z</time>
      </trkpt>
      <trkpt lat="39.038789" lon="1.391718">
        <ele>235.993815</ele>
        <time>2023-05-07T11:25:59.000Z</time>
      </trkpt>
      <trkpt lat="39.03873" lon="1.391498">
        <ele>235.247958</ele>
        <time>2023-05-07T11:26:01.000Z</time>
      </trkpt>
      <trkpt lat="39.038712" lon="1.391286">
        <ele>234.487851</ele>
        <time>2023-05-07T11:26:03.000Z</time>
      </trkpt>
      <trkpt lat="39.038741" lon="1.391033">
        <ele>233.601087</ele>
        <time>2023-05-07T11:26:05.000Z</time>
      </trkpt>
      <trkpt lat="39.038938" lon="1.39055">
        <ele>231.715596</ele>
        <time>2023-05-07T11:26:10.000Z</time>
      </trkpt>
      <trkpt lat="39.039035" lon="1.390314">
        <ele>230.618978</ele>
        <time>2023-05-07T11:26:12.000Z</time>
      </trkpt>
      <trkpt lat="39.039084" lon="1.390025">
        <ele>229.197812</ele>
        <time>2023-05-07T11:26:15.000Z</time>
      </trkpt>
      <trkpt lat="39.03889" lon="1.388536">
        <ele>221.852984</ele>
        <time>2023-05-07T11:26:28.000Z</time>
      </trkpt>
      <trkpt lat="39.038858" lon="1.387896">
        <ele>218.775077</ele>
        <time>2023-05-07T11:26:34.000Z</time>
      </trkpt>
      <trkpt lat="39.038885" lon="1.387337">
        <ele>216.236481</ele>
        <time>2023-05-07T11:26:39.000Z</time>
      </trkpt>
      <trkpt lat="39.039088" lon="1.385514">
        <ele>208.18924</ele>
        <time>2023-05-07T11:26:55.000Z</time>
      </trkpt>
      <trkpt lat="39.039101" lon="1.385316">
        <ele>207.384341</ele>
        <time>2023-05-07T11:26:57.000Z</time>
      </trkpt>
      <trkpt lat="39.039066" lon="1.385132">
        <ele>206.623761</ele>
        <time>2023-05-07T11:26:59.000Z</time>
      </trkpt>
      <trkpt lat="39.038971" lon="1.38488">
        <ele>205.557056</ele>
        <time>2023-05-07T11:27:01.000Z</time>
      </trkpt>
      <trkpt lat="39.038539" lon="1.384049">
        <ele>201.591679</ele>
        <time>2023-05-07T11:27:10.000Z</time>
      </trkpt>
      <trkpt lat="39.038353" lon="1.383522">
        <ele>199.313968</ele>
        <time>2023-05-07T11:27:15.000Z</time>
      </trkpt>
      <trkpt lat="39.038178" lon="1.383003">
        <ele>197.095864</ele>
        <time>2023-05-07T11:27:20.000Z</time>
      </trkpt>
      <trkpt lat="39.038195" lon="1.382876">
        <ele>196.55649</ele>
        <time>2023-05-07T11:27:21.000Z</time>
      </trkpt>
      <trkpt lat="39.036424" lon="1.38183">
        <ele>187.727058</ele>
        <time>2023-05-07T11:27:43.000Z</time>
      </trkpt>
      <trkpt lat="39.036231" lon="1.381716">
        <ele>186.875355</ele>
        <time>2023-05-07T11:27:45.000Z</time>
      </trkpt>
      <trkpt lat="39.035678" lon="1.38159">
        <ele>184.681395</ele>
        <time>2023-05-07T11:27:51.000Z</time>
      </trkpt>
      <trkpt lat="39.035361" lon="1.381538">
        <ele>183.756559</ele>
        <time>2023-05-07T11:27:55.000Z</time>
      </trkpt>
      <trkpt lat="39.03493" lon="1.381575">
        <ele>182.950117</ele>
        <time>2023-05-07T11:28:00.000Z</time>
      </trkpt>
      <trkpt lat="39.034072" lon="1.381759">
        <ele>181.333268</ele>
        <time>2023-05-07T11:28:10.000Z</time>
      </trkpt>
      <trkpt lat="39.033667" lon="1.381881">
        <ele>180.700919</ele>
        <time>2023-05-07T11:28:15.000Z</time>
      </trkpt>
      <trkpt lat="39.033193" lon="1.382025">
        <ele>180.509499</ele>
        <time>2023-05-07T11:28:20.000Z</time>
      </trkpt>
      <trkpt lat="39.03059" lon="1.383149">
        <ele>179.74326</ele>
        <time>2023-05-07T11:28:51.000Z</time>
      </trkpt>
      <trkpt lat="39.030187" lon="1.383237">
        <ele>179.605708</ele>
        <time>2023-05-07T11:28:56.000Z</time>
      </trkpt>
      <trkpt lat="39.02924" lon="1.383246">
        <ele>178.982605</ele>
        <time>2023-05-07T11:29:07.000Z</time>
      </trkpt>
      <trkpt lat="39.026545" lon="1.384018">
        <ele>176.28145</ele>
        <time>2023-05-07T11:29:38.000Z</time>
      </trkpt>
      <trkpt lat="39.025886" lon="1.384204">
        <ele>175.5129</ele>
        <time>2023-05-07T11:29:46.000Z</time>
      </trkpt>
      <trkpt lat="39.025446" lon="1.38448">
        <ele>174.961888</ele>
        <time>2023-05-07T11:29:51.000Z</time>
      </trkpt>
      <trkpt lat="39.024578" lon="1.385021">
        <ele>174.023347</ele>
        <time>2023-05-07T11:30:02.000Z</time>
      </trkpt>
      <trkpt lat="39.02349" lon="1.385455">
        <ele>173.042312</ele>
        <time>2023-05-07T11:30:15.000Z</time>
      </trkpt>
      <trkpt lat="39.022582" lon="1.385811">
        <ele>172.202501</ele>
        <time>2023-05-07T11:30:26.000Z</time>
      </trkpt>
      <trkpt lat="39.022368" lon="1.385903">
        <ele>171.99682</ele>
        <time>2023-05-07T11:30:29.000Z</time>
      </trkpt>
      <trkpt lat="39.02173" lon="1.38616">
        <ele>171.395466</ele>
        <time>2023-05-07T11:30:36.000Z</time>
      </trkpt>
      <trkpt lat="39.020585" lon="1.386607">
        <ele>170.15193</ele>
        <time>2023-05-07T11:30:49.000Z</time>
      </trkpt>
      <trkpt lat="39.020133" lon="1.386792">
        <ele>169.649521</ele>
        <time>2023-05-07T11:30:54.000Z</time>
      </trkpt>
      <trkpt lat="39.019176" lon="1.387229">
        <ele>168.343212</ele>
        <time>2023-05-07T11:31:05.000Z</time>
      </trkpt>
      <trkpt lat="39.018978" lon="1.387374">
        <ele>168.04464</ele>
        <time>2023-05-07T11:31:08.000Z</time>
      </trkpt>
      <trkpt lat="39.018966" lon="1.387377">
        <ele>168.020375</ele>
        <time>2023-05-07T11:31:08.000Z</time>
      </trkpt>
      <trkpt lat="39.018578" lon="1.387741">
        <ele>167.387266</ele>
        <time>2023-05-07T11:31:13.000Z</time>
      </trkpt>
      <trkpt lat="39.018226" lon="1.388064">
        <ele>166.749382</ele>
        <time>2023-05-07T11:31:18.000Z</time>
      </trkpt>
      <trkpt lat="39.01797" lon="1.388245">
        <ele>166.282036</ele>
        <time>2023-05-07T11:31:21.000Z</time>
      </trkpt>
      <trkpt lat="39.017104" lon="1.388598">
        <ele>164.793561</ele>
        <time>2023-05-07T11:31:31.000Z</time>
      </trkpt>
      <trkpt lat="39.016913" lon="1.388676">
        <ele>164.49025</ele>
        <time>2023-05-07T11:31:33.000Z</time>
      </trkpt>
      <trkpt lat="39.015396" lon="1.38929">
        <ele>161.605535</ele>
        <time>2023-05-07T11:31:51.000Z</time>
      </trkpt>
      <trkpt lat="39.014786" lon="1.389541">
        <ele>160.34665</ele>
        <time>2023-05-07T11:31:58.000Z</time>
      </trkpt>
      <trkpt lat="39.014498" lon="1.38966">
        <ele>159.679139</ele>
        <time>2023-05-07T11:32:01.000Z</time>
      </trkpt>
      <trkpt lat="39.013622" lon="1.390158">
        <ele>157.564012</ele>
        <time>2023-05-07T11:32:12.000Z</time>
      </trkpt>
      <trkpt lat="39.012306" lon="1.391049">
        <ele>153.409704</ele>
        <time>2023-05-07T11:32:29.000Z</time>
      </trkpt>
      <trkpt lat="39.011277" lon="1.391858">
        <ele>150.514054</ele>
        <time>2023-05-07T11:32:42.000Z</time>
      </trkpt>
      <trkpt lat="39.011193" lon="1.391929">
        <ele>150.313109</ele>
        <time>2023-05-07T11:32:43.000Z</time>
      </trkpt>
      <trkpt lat="39.01098" lon="1.39216">
        <ele>149.818604</ele>
        <time>2023-05-07T11:32:46.000Z</time>
      </trkpt>
      <trkpt lat="39.010048" lon="1.393696">
        <ele>146.494794</ele>
        <time>2023-05-07T11:33:03.000Z</time>
      </trkpt>
      <trkpt lat="39.010001" lon="1.393782">
        <ele>146.266506</ele>
        <time>2023-05-07T11:33:04.000Z</time>
      </trkpt>
      <trkpt lat="39.00997" lon="1.393825">
        <ele>146.151565</ele>
        <time>2023-05-07T11:33:05.000Z</time>
      </trkpt>
      <trkpt lat="39.009784" lon="1.39407">
        <ele>145.467962</ele>
        <time>2023-05-07T11:33:08.000Z</time>
      </trkpt>
      <trkpt lat="39.009713" lon="1.39418">
        <ele>145.164603</ele>
        <time>2023-05-07T11:33:09.000Z</time>
      </trkpt>
      <trkpt lat="39.009449" lon="1.394497">
        <ele>144.223228</ele>
        <time>2023-05-07T11:33:13.000Z</time>
      </trkpt>
      <trkpt lat="39.008561" lon="1.393102">
        <ele>138.643064</ele>
        <time>2023-05-07T11:33:29.000Z</time>
      </trkpt>
      <trkpt lat="39.008504" lon="1.393043">
        <ele>138.362919</ele>
        <time>2023-05-07T11:33:30.000Z</time>
      </trkpt>
      <trkpt lat="39.007565" lon="1.391578">
        <ele>133.832725</ele>
        <time>2023-05-07T11:33:46.000Z</time>
      </trkpt>
      <trkpt lat="39.006927" lon="1.390583">
        <ele>131.494325</ele>
        <time>2023-05-07T11:33:57.000Z</time>
      </trkpt>
      <trkpt lat="39.00674" lon="1.390178">
        <ele>130.774368</ele>
        <time>2023-05-07T11:34:01.000Z</time>
      </trkpt>
      <trkpt lat="39.006575" lon="1.388755">
        <ele>128.530932</ele>
        <time>2023-05-07T11:34:13.000Z</time>
      </trkpt>
      <trkpt lat="39.006509" lon="1.388187">
        <ele>127.70151</ele>
        <time>2023-05-07T11:34:18.000Z</time>
      </trkpt>
      <trkpt lat="39.006152" lon="1.386956">
        <ele>125.967338</ele>
        <time>2023-05-07T11:34:29.000Z</time>
      </trkpt>
      <trkpt lat="39.00588" lon="1.386318">
        <ele>125.081989</ele>
        <time>2023-05-07T11:34:35.000Z</time>
      </trkpt>
      <trkpt lat="39.005661" lon="1.386056">
        <ele>125.145422</ele>
        <time>2023-05-07T11:34:38.000Z</time>
      </trkpt>
      <trkpt lat="39.0043" lon="1.384416">
        <ele>125.53786</ele>
        <time>2023-05-07T11:34:59.000Z</time>
      </trkpt>
      <trkpt lat="39.003485" lon="1.383517">
        <ele>125.720732</ele>
        <time>2023-05-07T11:35:11.000Z</time>
      </trkpt>
      <trkpt lat="39.002708" lon="1.382984">
        <ele>124.406886</ele>
        <time>2023-05-07T11:35:21.000Z</time>
      </trkpt>
      <trkpt lat="39.002463" lon="1.383402">
        <ele>123.381745</ele>
        <time>2023-05-07T11:35:26.000Z</time>
      </trkpt>
      <trkpt lat="39.002054" lon="1.384304">
        <ele>121.341388</ele>
        <time>2023-05-07T11:35:35.000Z</time>
      </trkpt>
      <trkpt lat="39.001511" lon="1.385223">
        <ele>118.421035</ele>
        <time>2023-05-07T11:35:45.000Z</time>
      </trkpt>
      <trkpt lat="39.001416" lon="1.385362">
        <ele>117.979217</ele>
        <time>2023-05-07T11:35:47.000Z</time>
      </trkpt>
      <trkpt lat="39.001131" lon="1.385834">
        <ele>116.456943</ele>
        <time>2023-05-07T11:35:52.000Z</time>
      </trkpt>
      <trkpt lat="38.999564" lon="1.387181">
        <ele>112.147722</ele>
        <time>2023-05-07T11:36:13.000Z</time>
      </trkpt>
      <trkpt lat="38.999315" lon="1.387792">
        <ele>111.178759</ele>
        <time>2023-05-07T11:36:19.000Z</time>
      </trkpt>
      <trkpt lat="38.998756" lon="1.388379">
        <ele>110.00005</ele>
        <time>2023-05-07T11:36:27.000Z</time>
      </trkpt>
      <trkpt lat="38.998011" lon="1.388531">
        <ele>108.798068</ele>
        <time>2023-05-07T11:36:35.000Z</time>
      </trkpt>
      <trkpt lat="38.997786" lon="1.38863">
        <ele>108.538859</ele>
        <time>2023-05-07T11:36:38.000Z</time>
      </trkpt>
      <trkpt lat="38.997131" lon="1.38893">
        <ele>107.807011</ele>
        <time>2023-05-07T11:36:46.000Z</time>
      </trkpt>
      <trkpt lat="38.996435" lon="1.389386">
        <ele>106.985102</ele>
        <time>2023-05-07T11:36:55.000Z</time>
      </trkpt>
      <trkpt lat="38.995713" lon="1.38979">
        <ele>105.980853</ele>
        <time>2023-05-07T11:37:04.000Z</time>
      </trkpt>
      <trkpt lat="38.995131" lon="1.390565">
        <ele>104.873487</ele>
        <time>2023-05-07T11:37:13.000Z</time>
      </trkpt>
      <trkpt lat="38.994305" lon="1.391582">
        <ele>103.176848</ele>
        <time>2023-05-07T11:37:26.000Z</time>
      </trkpt>
      <trkpt lat="38.993372" lon="1.392072">
        <ele>101.637422</ele>
        <time>2023-05-07T11:37:37.000Z</time>
      </trkpt>
      <trkpt lat="38.993155" lon="1.392144">
        <ele>101.344975</ele>
        <time>2023-05-07T11:37:39.000Z</time>
      </trkpt>
      <trkpt lat="38.992456" lon="1.392375">
        <ele>100.445396</ele>
        <time>2023-05-07T11:37:47.000Z</time>
      </trkpt>
      <trkpt lat="38.99203" lon="1.392648">
        <ele>99.845203</ele>
        <time>2023-05-07T11:37:52.000Z</time>
      </trkpt>
      <trkpt lat="38.990519" lon="1.393902">
        <ele>96.692229</ele>
        <time>2023-05-07T11:38:12.000Z</time>
      </trkpt>
      <trkpt lat="38.989913" lon="1.394238">
        <ele>95.87131</ele>
        <time>2023-05-07T11:38:19.000Z</time>
      </trkpt>
      <trkpt lat="38.989361" lon="1.394588">
        <ele>95.400348</ele>
        <time>2023-05-07T11:38:26.000Z</time>
      </trkpt>
      <trkpt lat="38.989312" lon="1.394609">
        <ele>95.357386</ele>
        <time>2023-05-07T11:38:27.000Z</time>
      </trkpt>
      <trkpt lat="38.988716" lon="1.394975">
        <ele>94.857836</ele>
        <time>2023-05-07T11:38:34.000Z</time>
      </trkpt>
      <trkpt lat="38.988162" lon="1.395482">
        <ele>95.112025</ele>
        <time>2023-05-07T11:38:42.000Z</time>
      </trkpt>
      <trkpt lat="38.98779" lon="1.39589">
        <ele>95.403886</ele>
        <time>2023-05-07T11:38:47.000Z</time>
      </trkpt>
      <trkpt lat="38.987748" lon="1.395949">
        <ele>95.43844</ele>
        <time>2023-05-07T11:38:48.000Z</time>
      </trkpt>
      <trkpt lat="38.987454" lon="1.3965">
        <ele>95.752635</ele>
        <time>2023-05-07T11:38:54.000Z</time>
      </trkpt>
      <trkpt lat="38.987166" lon="1.397062">
        <ele>95.039541</ele>
        <time>2023-05-07T11:39:00.000Z</time>
      </trkpt>
      <trkpt lat="38.986528" lon="1.398667">
        <ele>91.900623</ele>
        <time>2023-05-07T11:39:16.000Z</time>
      </trkpt>
      <trkpt lat="38.986451" lon="1.399024">
        <ele>91.250686</ele>
        <time>2023-05-07T11:39:19.000Z</time>
      </trkpt>
      <trkpt lat="38.986428" lon="1.39965">
        <ele>90.123196</ele>
        <time>2023-05-07T11:39:24.000Z</time>
      </trkpt>
      <trkpt lat="38.986293" lon="1.400588">
        <ele>88.415461</ele>
        <time>2023-05-07T11:39:32.000Z</time>
      </trkpt>
      <trkpt lat="38.985723" lon="1.401168">
        <ele>87.306443</ele>
        <time>2023-05-07T11:39:40.000Z</time>
      </trkpt>
      <trkpt lat="38.985474" lon="1.401434">
        <ele>86.97238</ele>
        <time>2023-05-07T11:39:44.000Z</time>
      </trkpt>
      <trkpt lat="38.985228" lon="1.401793">
        <ele>86.608731</ele>
        <time>2023-05-07T11:39:48.000Z</time>
      </trkpt>
      <trkpt lat="38.985104" lon="1.402083">
        <ele>86.347051</ele>
        <time>2023-05-07T11:39:51.000Z</time>
      </trkpt>
      <trkpt lat="38.984732" lon="1.402965">
        <ele>85.218916</ele>
        <time>2023-05-07T11:40:00.000Z</time>
      </trkpt>
      <trkpt lat="38.984235" lon="1.405532">
        <ele>80.608591</ele>
        <time>2023-05-07T11:40:23.000Z</time>
      </trkpt>
      <trkpt lat="38.984016" lon="1.406683">
        <ele>78.033084</ele>
        <time>2023-05-07T11:40:33.000Z</time>
      </trkpt>
      <trkpt lat="38.984064" lon="1.407466">
        <ele>76.502591</ele>
        <time>2023-05-07T11:40:40.000Z</time>
      </trkpt>
      <trkpt lat="38.984093" lon="1.407975">
        <ele>75.591568</ele>
        <time>2023-05-07T11:40:44.000Z</time>
      </trkpt>
      <trkpt lat="38.983533" lon="1.409096">
        <ele>73.221441</ele>
        <time>2023-05-07T11:40:56.000Z</time>
      </trkpt>
      <trkpt lat="38.982879" lon="1.410247">
        <ele>71.709902</ele>
        <time>2023-05-07T11:41:08.000Z</time>
      </trkpt>
      <trkpt lat="38.981842" lon="1.411557">
        <ele>69.582731</ele>
        <time>2023-05-07T11:41:24.000Z</time>
      </trkpt>
      <trkpt lat="38.980631" lon="1.4131">
        <ele>67.366264</ele>
        <time>2023-05-07T11:41:43.000Z</time>
      </trkpt>
      <trkpt lat="38.980162" lon="1.413686">
        <ele>66.853779</ele>
        <time>2023-05-07T11:41:50.000Z</time>
      </trkpt>
      <trkpt lat="38.979596" lon="1.414383">
        <ele>66.903372</ele>
        <time>2023-05-07T11:41:59.000Z</time>
      </trkpt>
      <trkpt lat="38.979451" lon="1.414476">
        <ele>67.174367</ele>
        <time>2023-05-07T11:42:01.000Z</time>
      </trkpt>
      <trkpt lat="38.979201" lon="1.41447">
        <ele>67.606951</ele>
        <time>2023-05-07T11:42:04.000Z</time>
      </trkpt>
      <trkpt lat="38.979178" lon="1.414455">
        <ele>67.658485</ele>
        <time>2023-05-07T11:42:04.000Z</time>
      </trkpt>
      <trkpt lat="38.979013" lon="1.414313">
        <ele>67.968186</ele>
        <time>2023-05-07T11:42:06.000Z</time>
      </trkpt>
      <trkpt lat="38.978932" lon="1.414167">
        <ele>68.222022</ele>
        <time>2023-05-07T11:42:08.000Z</time>
      </trkpt>
      <trkpt lat="38.977863" lon="1.411586">
        <ele>73.778363</ele>
        <time>2023-05-07T11:42:33.000Z</time>
      </trkpt>
      <trkpt lat="38.977847" lon="1.411532">
        <ele>73.899524</ele>
        <time>2023-05-07T11:42:33.000Z</time>
      </trkpt>
      <trkpt lat="38.97738" lon="1.410164">
        <ele>78.299831</ele>
        <time>2023-05-07T11:42:46.000Z</time>
      </trkpt>
      <trkpt lat="38.976978" lon="1.408951">
        <ele>82.695064</ele>
        <time>2023-05-07T11:42:57.000Z</time>
      </trkpt>
      <trkpt lat="38.976646" lon="1.407927">
        <ele>88.087662</ele>
        <time>2023-05-07T11:43:07.000Z</time>
      </trkpt>
      <trkpt lat="38.976599" lon="1.407854">
        <ele>88.584529</ele>
        <time>2023-05-07T11:43:08.000Z</time>
      </trkpt>
      <trkpt lat="38.976472" lon="1.407509">
        <ele>90.439895</ele>
        <time>2023-05-07T11:43:11.000Z</time>
      </trkpt>
      <trkpt lat="38.976349" lon="1.407279">
        <ele>91.772192</ele>
        <time>2023-05-07T11:43:13.000Z</time>
      </trkpt>
      <trkpt lat="38.976098" lon="1.406908">
        <ele>94.34824</ele>
        <time>2023-05-07T11:43:17.000Z</time>
      </trkpt>
      <trkpt lat="38.975844" lon="1.406624">
        <ele>96.807977</ele>
        <time>2023-05-07T11:43:21.000Z</time>
      </trkpt>
      <trkpt lat="38.975531" lon="1.406335">
        <ele>99.509325</ele>
        <time>2023-05-07T11:43:25.000Z</time>
      </trkpt>
      <trkpt lat="38.975185" lon="1.406134">
        <ele>102.315519</ele>
        <time>2023-05-07T11:43:29.000Z</time>
      </trkpt>
      <trkpt lat="38.97477" lon="1.405939">
        <ele>105.468881</ele>
        <time>2023-05-07T11:43:34.000Z</time>
      </trkpt>
      <trkpt lat="38.973489" lon="1.405374">
        <ele>111.775838</ele>
        <time>2023-05-07T11:43:49.000Z</time>
      </trkpt>
      <trkpt lat="38.97299" lon="1.405262">
        <ele>114.056287</ele>
        <time>2023-05-07T11:43:55.000Z</time>
      </trkpt>
      <trkpt lat="38.972701" lon="1.405255">
        <ele>115.630345</ele>
        <time>2023-05-07T11:43:58.000Z</time>
      </trkpt>
      <trkpt lat="38.972398" lon="1.405289">
        <ele>117.212549</ele>
        <time>2023-05-07T11:44:01.000Z</time>
      </trkpt>
      <trkpt lat="38.972139" lon="1.405374">
        <ele>118.698145</ele>
        <time>2023-05-07T11:44:04.000Z</time>
      </trkpt>
      <trkpt lat="38.971861" lon="1.40551">
        <ele>120.207396</ele>
        <time>2023-05-07T11:44:07.000Z</time>
      </trkpt>
      <trkpt lat="38.971041" lon="1.406079">
        <ele>125.314152</ele>
        <time>2023-05-07T11:44:17.000Z</time>
      </trkpt>
      <trkpt lat="38.97039" lon="1.406548">
        <ele>129.676121</ele>
        <time>2023-05-07T11:44:25.000Z</time>
      </trkpt>
      <trkpt lat="38.969938" lon="1.406776">
        <ele>132.60961</ele>
        <time>2023-05-07T11:44:30.000Z</time>
      </trkpt>
      <trkpt lat="38.969383" lon="1.406957">
        <ele>135.027289</ele>
        <time>2023-05-07T11:44:36.000Z</time>
      </trkpt>
      <trkpt lat="38.968837" lon="1.406985">
        <ele>136.465904</ele>
        <time>2023-05-07T11:44:42.000Z</time>
      </trkpt>
      <trkpt lat="38.967987" lon="1.406846">
        <ele>138.692729</ele>
        <time>2023-05-07T11:44:52.000Z</time>
      </trkpt>
      <trkpt lat="38.967643" lon="1.406761">
        <ele>138.771099</ele>
        <time>2023-05-07T11:44:56.000Z</time>
      </trkpt>
      <trkpt lat="38.966877" lon="1.40659">
        <ele>138.094098</ele>
        <time>2023-05-07T11:45:05.000Z</time>
      </trkpt>
      <trkpt lat="38.966308" lon="1.406375">
        <ele>137.58333</ele>
        <time>2023-05-07T11:45:12.000Z</time>
      </trkpt>
      <trkpt lat="38.96613" lon="1.40628">
        <ele>137.414015</ele>
        <time>2023-05-07T11:45:14.000Z</time>
      </trkpt>
      <trkpt lat="38.965948" lon="1.406178">
        <ele>136.35978</ele>
        <time>2023-05-07T11:45:16.000Z</time>
      </trkpt>
      <trkpt lat="38.965723" lon="1.405993">
        <ele>134.959427</ele>
        <time>2023-05-07T11:45:19.000Z</time>
      </trkpt>
      <trkpt lat="38.964885" lon="1.40524">
        <ele>129.604417</ele>
        <time>2023-05-07T11:45:30.000Z</time>
      </trkpt>
      <trkpt lat="38.964535" lon="1.404899">
        <ele>127.316652</ele>
        <time>2023-05-07T11:45:35.000Z</time>
      </trkpt>
      <trkpt lat="38.964261" lon="1.404505">
        <ele>124.951094</ele>
        <time>2023-05-07T11:45:40.000Z</time>
      </trkpt>
      <trkpt lat="38.963785" lon="1.40363">
        <ele>120.167083</ele>
        <time>2023-05-07T11:45:49.000Z</time>
      </trkpt>
      <trkpt lat="38.963499" lon="1.403129">
        <ele>117.824526</ele>
        <time>2023-05-07T11:45:54.000Z</time>
      </trkpt>
      <trkpt lat="38.963319" lon="1.402865">
        <ele>117.886984</ele>
        <time>2023-05-07T11:45:57.000Z</time>
      </trkpt>
      <trkpt lat="38.962905" lon="1.402355">
        <ele>118.017441</ele>
        <time>2023-05-07T11:46:03.000Z</time>
      </trkpt>
      <trkpt lat="38.962219" lon="1.401511">
        <ele>118.369624</ele>
        <time>2023-05-07T11:46:14.000Z</time>
      </trkpt>
      <trkpt lat="38.961782" lon="1.400985">
        <ele>119.768695</ele>
        <time>2023-05-07T11:46:21.000Z</time>
      </trkpt>
      <trkpt lat="38.961571" lon="1.400572">
        <ele>120.682873</ele>
        <time>2023-05-07T11:46:25.000Z</time>
      </trkpt>
      <trkpt lat="38.961474" lon="1.400252">
        <ele>121.320971</ele>
        <time>2023-05-07T11:46:28.000Z</time>
      </trkpt>
      <trkpt lat="38.961453" lon="1.399994">
        <ele>121.78803</ele>
        <time>2023-05-07T11:46:30.000Z</time>
      </trkpt>
      <trkpt lat="38.961433" lon="1.399723">
        <ele>122.295251</ele>
        <time>2023-05-07T11:46:32.000Z</time>
      </trkpt>
      <trkpt lat="38.961465" lon="1.399178">
        <ele>123.164259</ele>
        <time>2023-05-07T11:46:37.000Z</time>
      </trkpt>
      <trkpt lat="38.961235" lon="1.399151">
        <ele>123.628278</ele>
        <time>2023-05-07T11:46:40.000Z</time>
      </trkpt>
      <trkpt lat="38.96084" lon="1.398972">
        <ele>124.417242</ele>
        <time>2023-05-07T11:46:45.000Z</time>
      </trkpt>
      <trkpt lat="38.960618" lon="1.398851">
        <ele>124.876983</ele>
        <time>2023-05-07T11:46:48.000Z</time>
      </trkpt>
      <trkpt lat="38.960521" lon="1.398807">
        <ele>125.091374</ele>
        <time>2023-05-07T11:46:49.000Z</time>
      </trkpt>
      <trkpt lat="38.96041" lon="1.398698">
        <ele>125.329284</ele>
        <time>2023-05-07T11:46:51.000Z</time>
      </trkpt>
      <trkpt lat="38.96038" lon="1.398693">
        <ele>125.387337</ele>
        <time>2023-05-07T11:46:51.000Z</time>
      </trkpt>
      <trkpt lat="38.960328" lon="1.398568">
        <ele>125.594387</ele>
        <time>2023-05-07T11:46:52.000Z</time>
      </trkpt>
      <trkpt lat="38.96032" lon="1.398554">
        <ele>125.63035</ele>
        <time>2023-05-07T11:46:52.000Z</time>
      </trkpt>
      <trkpt lat="38.960472" lon="1.398164">
        <ele>126.817148</ele>
        <time>2023-05-07T11:46:56.000Z</time>
      </trkpt>
      <trkpt lat="38.960615" lon="1.397906">
        <ele>128.051982</ele>
        <time>2023-05-07T11:46:59.000Z</time>
      </trkpt>
      <trkpt lat="38.960632" lon="1.397894">
        <ele>128.109464</ele>
        <time>2023-05-07T11:46:59.000Z</time>
      </trkpt>
      <trkpt lat="38.961326" lon="1.396636">
        <ele>134.041641</ele>
        <time>2023-05-07T11:47:12.000Z</time>
      </trkpt>
      <trkpt lat="38.961554" lon="1.396183">
        <ele>135.394719</ele>
        <time>2023-05-07T11:47:17.000Z</time>
      </trkpt>
      <trkpt lat="38.962061" lon="1.395095">
        <ele>137.576607</ele>
        <time>2023-05-07T11:47:28.000Z</time>
      </trkpt>
      <trkpt lat="38.962203" lon="1.394776">
        <ele>138.235034</ele>
        <time>2023-05-07T11:47:31.000Z</time>
      </trkpt>
      <trkpt lat="38.962625" lon="1.394036">
        <ele>137.336926</ele>
        <time>2023-05-07T11:47:39.000Z</time>
      </trkpt>
      <trkpt lat="38.962737" lon="1.393748">
        <ele>136.517939</ele>
        <time>2023-05-07T11:47:42.000Z</time>
      </trkpt>
      <trkpt lat="38.963204" lon="1.392407">
        <ele>132.596842</ele>
        <time>2023-05-07T11:47:55.000Z</time>
      </trkpt>
      <trkpt lat="38.963369" lon="1.391758">
        <ele>130.231776</ele>
        <time>2023-05-07T11:48:01.000Z</time>
      </trkpt>
      <trkpt lat="38.96347" lon="1.391119">
        <ele>127.962401</ele>
        <time>2023-05-07T11:48:07.000Z</time>
      </trkpt>
      <trkpt lat="38.96365" lon="1.390494">
        <ele>125.677223</ele>
        <time>2023-05-07T11:48:13.000Z</time>
      </trkpt>
      <trkpt lat="38.963933" lon="1.389275">
        <ele>122.506563</ele>
        <time>2023-05-07T11:48:24.000Z</time>
      </trkpt>
      <trkpt lat="38.964163" lon="1.387958">
        <ele>119.625007</ele>
        <time>2023-05-07T11:48:36.000Z</time>
      </trkpt>
      <trkpt lat="38.964424" lon="1.38601">
        <ele>118.744489</ele>
        <time>2023-05-07T11:48:53.000Z</time>
      </trkpt>
      <trkpt lat="38.964566" lon="1.384401">
        <ele>120.276007</ele>
        <time>2023-05-07T11:49:07.000Z</time>
      </trkpt>
      <trkpt lat="38.964669" lon="1.382529">
        <ele>123.339539</ele>
        <time>2023-05-07T11:49:23.000Z</time>
      </trkpt>
      <trkpt lat="38.964729" lon="1.381732">
        <ele>124.956887</ele>
        <time>2023-05-07T11:49:30.000Z</time>
      </trkpt>
      <trkpt lat="38.96483" lon="1.380717">
        <ele>125.999709</ele>
        <time>2023-05-07T11:49:39.000Z</time>
      </trkpt>
      <trkpt lat="38.964987" lon="1.379444">
        <ele>125.273074</ele>
        <time>2023-05-07T11:49:50.000Z</time>
      </trkpt>
      <trkpt lat="38.965278" lon="1.377797">
        <ele>120.687572</ele>
        <time>2023-05-07T11:50:05.000Z</time>
      </trkpt>
      <trkpt lat="38.965457" lon="1.376911">
        <ele>116.986793</ele>
        <time>2023-05-07T11:50:13.000Z</time>
      </trkpt>
      <trkpt lat="38.965752" lon="1.375765">
        <ele>112.190367</ele>
        <time>2023-05-07T11:50:23.000Z</time>
      </trkpt>
      <trkpt lat="38.96586" lon="1.3753">
        <ele>110.304052</ele>
        <time>2023-05-07T11:50:27.000Z</time>
      </trkpt>
      <trkpt lat="38.965989" lon="1.374892">
        <ele>108.594345</ele>
        <time>2023-05-07T11:50:31.000Z</time>
      </trkpt>
      <trkpt lat="38.966141" lon="1.374372">
        <ele>106.470667</ele>
        <time>2023-05-07T11:50:36.000Z</time>
      </trkpt>
      <trkpt lat="38.966751" lon="1.372261">
        <ele>101.39146</ele>
        <time>2023-05-07T11:50:55.000Z</time>
      </trkpt>
      <trkpt lat="38.967012" lon="1.371336">
        <ele>99.544774</ele>
        <time>2023-05-07T11:51:04.000Z</time>
      </trkpt>
      <trkpt lat="38.96736" lon="1.369939">
        <ele>96.668852</ele>
        <time>2023-05-07T11:51:17.000Z</time>
      </trkpt>
      <trkpt lat="38.967674" lon="1.368544">
        <ele>92.735379</ele>
        <time>2023-05-07T11:51:30.000Z</time>
      </trkpt>
      <trkpt lat="38.967879" lon="1.367594">
        <ele>90.03891</ele>
        <time>2023-05-07T11:51:39.000Z</time>
      </trkpt>
      <trkpt lat="38.968265" lon="1.365533">
        <ele>84.159166</ele>
        <time>2023-05-07T11:51:57.000Z</time>
      </trkpt>
      <trkpt lat="38.968389" lon="1.36486">
        <ele>82.618269</ele>
        <time>2023-05-07T11:52:03.000Z</time>
      </trkpt>
      <trkpt lat="38.968534" lon="1.363988">
        <ele>80.635749</ele>
        <time>2023-05-07T11:52:11.000Z</time>
      </trkpt>
      <trkpt lat="38.969057" lon="1.361276">
        <ele>74.62179</ele>
        <time>2023-05-07T11:52:35.000Z</time>
      </trkpt>
      <trkpt lat="38.9691" lon="1.3611">
        <ele>74.245327</ele>
        <time>2023-05-07T11:52:37.000Z</time>
      </trkpt>
      <trkpt lat="38.969629" lon="1.358531">
        <ele>67.71364</ele>
        <time>2023-05-07T11:53:00.000Z</time>
      </trkpt>
      <trkpt lat="38.969683" lon="1.358274">
        <ele>67.227641</ele>
        <time>2023-05-07T11:53:02.000Z</time>
      </trkpt>
      <trkpt lat="38.969962" lon="1.356953">
        <ele>64.750561</ele>
        <time>2023-05-07T11:53:14.000Z</time>
      </trkpt>
      <trkpt lat="38.970567" lon="1.35402">
        <ele>62.474638</ele>
        <time>2023-05-07T11:53:40.000Z</time>
      </trkpt>
      <trkpt lat="38.970679" lon="1.353463">
        <ele>62.138104</ele>
        <time>2023-05-07T11:53:45.000Z</time>
      </trkpt>
      <trkpt lat="38.970866" lon="1.352408">
        <ele>61.500533</ele>
        <time>2023-05-07T11:53:54.000Z</time>
      </trkpt>
      <trkpt lat="38.970915" lon="1.352085">
        <ele>61.326836</ele>
        <time>2023-05-07T11:53:57.000Z</time>
      </trkpt>
      <trkpt lat="38.970954" lon="1.351791">
        <ele>61.233525</ele>
        <time>2023-05-07T11:54:00.000Z</time>
      </trkpt>
      <trkpt lat="38.971068" lon="1.351048">
        <ele>60.993923</ele>
        <time>2023-05-07T11:54:07.000Z</time>
      </trkpt>
      <trkpt lat="38.971117" lon="1.350858">
        <ele>60.930302</ele>
        <time>2023-05-07T11:54:09.000Z</time>
      </trkpt>
      <trkpt lat="38.971189" lon="1.350724">
        <ele>60.880318</ele>
        <time>2023-05-07T11:54:10.000Z</time>
      </trkpt>
      <trkpt lat="38.971247" lon="1.350653">
        <ele>60.846242</ele>
        <time>2023-05-07T11:54:11.000Z</time>
      </trkpt>
      <trkpt lat="38.971293" lon="1.350555">
        <ele>60.812331</ele>
        <time>2023-05-07T11:54:12.000Z</time>
      </trkpt>
      <trkpt lat="38.971295" lon="1.350446">
        <ele>60.779662</ele>
        <time>2023-05-07T11:54:13.000Z</time>
      </trkpt>
      <trkpt lat="38.971269" lon="1.350352">
        <ele>60.74702</ele>
        <time>2023-05-07T11:54:14.000Z</time>
      </trkpt>
      <trkpt lat="38.971203" lon="1.350278">
        <ele>60.713081</ele>
        <time>2023-05-07T11:54:15.000Z</time>
      </trkpt>
      <trkpt lat="38.971113" lon="1.350251">
        <ele>60.674506</ele>
        <time>2023-05-07T11:54:16.000Z</time>
      </trkpt>
      <trkpt lat="38.971023" lon="1.350288">
        <ele>60.635867</ele>
        <time>2023-05-07T11:54:17.000Z</time>
      </trkpt>
      <trkpt lat="38.970999" lon="1.350297">
        <ele>60.629751</ele>
        <time>2023-05-07T11:54:17.000Z</time>
      </trkpt>
      <trkpt lat="38.970967" lon="1.350341">
        <ele>60.621311</ele>
        <time>2023-05-07T11:54:18.000Z</time>
      </trkpt>
      <trkpt lat="38.970919" lon="1.350463">
        <ele>60.674432</ele>
        <time>2023-05-07T11:54:19.000Z</time>
      </trkpt>
      <trkpt lat="38.97094" lon="1.350608">
        <ele>60.736494</ele>
        <time>2023-05-07T11:54:20.000Z</time>
      </trkpt>
      <trkpt lat="38.970972" lon="1.350889">
        <ele>60.849396</ele>
        <time>2023-05-07T11:54:22.000Z</time>
      </trkpt>
      <trkpt lat="38.970944" lon="1.35119">
        <ele>60.973425</ele>
        <time>2023-05-07T11:54:25.000Z</time>
      </trkpt>
      <trkpt lat="38.970612" lon="1.353203">
        <ele>61.76542</ele>
        <time>2023-05-07T11:54:43.000Z</time>
      </trkpt>
      <trkpt lat="38.970351" lon="1.354533">
        <ele>62.259713</ele>
        <time>2023-05-07T11:54:55.000Z</time>
      </trkpt>
      <trkpt lat="38.970018" lon="1.356212">
        <ele>63.920613</ele>
        <time>2023-05-07T11:55:10.000Z</time>
      </trkpt>
      <trkpt lat="38.969582" lon="1.358258">
        <ele>67.724158</ele>
        <time>2023-05-07T11:55:28.000Z</time>
      </trkpt>
      <trkpt lat="38.969466" lon="1.358743">
        <ele>68.868792</ele>
        <time>2023-05-07T11:55:32.000Z</time>
      </trkpt>
      <trkpt lat="38.969049" lon="1.360078">
        <ele>72.32303</ele>
        <time>2023-05-07T11:55:44.000Z</time>
      </trkpt>
      <trkpt lat="38.96878" lon="1.361095">
        <ele>74.944228</ele>
        <time>2023-05-07T11:55:53.000Z</time>
      </trkpt>
      <trkpt lat="38.968624" lon="1.361821">
        <ele>76.613282</ele>
        <time>2023-05-07T11:56:00.000Z</time>
      </trkpt>
      <trkpt lat="38.968633" lon="1.36185">
        <ele>76.673341</ele>
        <time>2023-05-07T11:56:00.000Z</time>
      </trkpt>
      <trkpt lat="38.968608" lon="1.361957">
        <ele>76.905532</ele>
        <time>2023-05-07T11:56:01.000Z</time>
      </trkpt>
      <trkpt lat="38.968498" lon="1.36283">
        <ele>78.706384</ele>
        <time>2023-05-07T11:56:09.000Z</time>
      </trkpt>
      <trkpt lat="38.9684" lon="1.363604">
        <ele>80.275931</ele>
        <time>2023-05-07T11:56:16.000Z</time>
      </trkpt>
      <trkpt lat="38.968366" lon="1.364364">
        <ele>82.003282</ele>
        <time>2023-05-07T11:56:23.000Z</time>
      </trkpt>
      <trkpt lat="38.968242" lon="1.365098">
        <ele>83.763032</ele>
        <time>2023-05-07T11:56:29.000Z</time>
      </trkpt>
      <trkpt lat="38.968077" lon="1.366069">
        <ele>86.108914</ele>
        <time>2023-05-07T11:56:38.000Z</time>
      </trkpt>
      <trkpt lat="38.967731" lon="1.36779">
        <ele>91.577769</ele>
        <time>2023-05-07T11:56:53.000Z</time>
      </trkpt>
      <trkpt lat="38.967628" lon="1.368285">
        <ele>93.167291</ele>
        <time>2023-05-07T11:56:57.000Z</time>
      </trkpt>
      <trkpt lat="38.967458" lon="1.369029">
        <ele>95.108497</ele>
        <time>2023-05-07T11:57:04.000Z</time>
      </trkpt>
      <trkpt lat="38.967072" lon="1.370671">
        <ele>99.159368</ele>
        <time>2023-05-07T11:57:19.000Z</time>
      </trkpt>
      <trkpt lat="38.96666" lon="1.37217">
        <ele>101.59597</ele>
        <time>2023-05-07T11:57:33.000Z</time>
      </trkpt>
      <trkpt lat="38.966492" lon="1.372823">
        <ele>102.811728</ele>
        <time>2023-05-07T11:57:39.000Z</time>
      </trkpt>
      <trkpt lat="38.966267" lon="1.373591">
        <ele>104.879785</ele>
        <time>2023-05-07T11:57:46.000Z</time>
      </trkpt>
      <trkpt lat="38.966096" lon="1.374123">
        <ele>106.320907</ele>
        <time>2023-05-07T11:57:51.000Z</time>
      </trkpt>
      <trkpt lat="38.965863" lon="1.374941">
        <ele>108.769952</ele>
        <time>2023-05-07T11:57:59.000Z</time>
      </trkpt>
      <trkpt lat="38.965779" lon="1.375271">
        <ele>110.289377</ele>
        <time>2023-05-07T11:58:02.000Z</time>
      </trkpt>
      <trkpt lat="38.965716" lon="1.375482">
        <ele>111.266346</ele>
        <time>2023-05-07T11:58:04.000Z</time>
      </trkpt>
      <trkpt lat="38.965367" lon="1.376889">
        <ele>117.738211</ele>
        <time>2023-05-07T11:58:17.000Z</time>
      </trkpt>
      <trkpt lat="38.96502" lon="1.378636">
        <ele>124.372346</ele>
        <time>2023-05-07T11:58:33.000Z</time>
      </trkpt>
      <trkpt lat="38.964784" lon="1.380208">
        <ele>126.301884</ele>
        <time>2023-05-07T11:58:47.000Z</time>
      </trkpt>
      <trkpt lat="38.964677" lon="1.381134">
        <ele>125.976465</ele>
        <time>2023-05-07T11:58:55.000Z</time>
      </trkpt>
      <trkpt lat="38.964579" lon="1.382275">
        <ele>124.279867</ele>
        <time>2023-05-07T11:59:05.000Z</time>
      </trkpt>
      <trkpt lat="38.964556" lon="1.382952">
        <ele>122.858616</ele>
        <time>2023-05-07T11:59:11.000Z</time>
      </trkpt>
      <trkpt lat="38.964456" lon="1.384454">
        <ele>120.518516</ele>
        <time>2023-05-07T11:59:24.000Z</time>
      </trkpt>
      <trkpt lat="38.964397" lon="1.385284">
        <ele>119.9059</ele>
        <time>2023-05-07T11:59:31.000Z</time>
      </trkpt>
      <trkpt lat="38.964152" lon="1.387401">
        <ele>120.21213</ele>
        <time>2023-05-07T11:59:50.000Z</time>
      </trkpt>
      <trkpt lat="38.963902" lon="1.388827">
        <ele>122.125085</ele>
        <time>2023-05-07T12:00:03.000Z</time>
      </trkpt>
      <trkpt lat="38.963539" lon="1.390516">
        <ele>126.971867</ele>
        <time>2023-05-07T12:00:18.000Z</time>
      </trkpt>
      <trkpt lat="38.963327" lon="1.391326">
        <ele>129.631861</ele>
        <time>2023-05-07T12:00:25.000Z</time>
      </trkpt>
      <trkpt lat="38.963062" lon="1.392202">
        <ele>132.524899</ele>
        <time>2023-05-07T12:00:33.000Z</time>
      </trkpt>
      <trkpt lat="38.962603" lon="1.393547">
        <ele>134.575783</ele>
        <time>2023-05-07T12:00:46.000Z</time>
      </trkpt>
      <trkpt lat="38.962041" lon="1.395007">
        <ele>134.218306</ele>
        <time>2023-05-07T12:01:00.000Z</time>
      </trkpt>
      <trkpt lat="38.961437" lon="1.396285">
        <ele>130.30541</ele>
        <time>2023-05-07T12:01:13.000Z</time>
      </trkpt>
      <trkpt lat="38.960807" lon="1.397488">
        <ele>126.20245</ele>
        <time>2023-05-07T12:01:26.000Z</time>
      </trkpt>
      <trkpt lat="38.960161" lon="1.398605">
        <ele>122.001063</ele>
        <time>2023-05-07T12:01:38.000Z</time>
      </trkpt>
      <trkpt lat="38.95951" lon="1.399596">
        <ele>117.945892</ele>
        <time>2023-05-07T12:01:49.000Z</time>
      </trkpt>
      <trkpt lat="38.958347" lon="1.401413">
        <ele>110.73424</ele>
        <time>2023-05-07T12:02:09.000Z</time>
      </trkpt>
      <trkpt lat="38.957579" lon="1.402549">
        <ele>106.024324</ele>
        <time>2023-05-07T12:02:22.000Z</time>
      </trkpt>
      <trkpt lat="38.957463" lon="1.402749">
        <ele>105.09854</ele>
        <time>2023-05-07T12:02:24.000Z</time>
      </trkpt>
      <trkpt lat="38.957414" lon="1.402825">
        <ele>104.763144</ele>
        <time>2023-05-07T12:02:25.000Z</time>
      </trkpt>
      <trkpt lat="38.957322" lon="1.402981">
        <ele>104.102642</ele>
        <time>2023-05-07T12:02:27.000Z</time>
      </trkpt>
      <trkpt lat="38.957144" lon="1.403156">
        <ele>103.123298</ele>
        <time>2023-05-07T12:02:29.000Z</time>
      </trkpt>
      <trkpt lat="38.957043" lon="1.403254">
        <ele>102.519451</ele>
        <time>2023-05-07T12:02:30.000Z</time>
      </trkpt>
      <trkpt lat="38.957009" lon="1.403367">
        <ele>102.110328</ele>
        <time>2023-05-07T12:02:31.000Z</time>
      </trkpt>
      <trkpt lat="38.957018" lon="1.403413">
        <ele>101.918268</ele>
        <time>2023-05-07T12:02:31.000Z</time>
      </trkpt>
      <trkpt lat="38.95701" lon="1.403526">
        <ele>101.539457</ele>
        <time>2023-05-07T12:02:32.000Z</time>
      </trkpt>
      <trkpt lat="38.957006" lon="1.403519">
        <ele>101.517734</ele>
        <time>2023-05-07T12:02:32.000Z</time>
      </trkpt>
      <trkpt lat="38.957004" lon="1.403532">
        <ele>101.506186</ele>
        <time>2023-05-07T12:02:32.000Z</time>
      </trkpt>
      <trkpt lat="38.956954" lon="1.403658">
        <ele>101.011672</ele>
        <time>2023-05-07T12:02:33.000Z</time>
      </trkpt>
      <trkpt lat="38.956869" lon="1.403782">
        <ele>100.426439</ele>
        <time>2023-05-07T12:02:34.000Z</time>
      </trkpt>
      <trkpt lat="38.956725" lon="1.403977">
        <ele>99.437444</ele>
        <time>2023-05-07T12:02:36.000Z</time>
      </trkpt>
      <trkpt lat="38.956612" lon="1.404129">
        <ele>98.557711</ele>
        <time>2023-05-07T12:02:38.000Z</time>
      </trkpt>
      <trkpt lat="38.956613" lon="1.404131">
        <ele>98.521726</ele>
        <time>2023-05-07T12:02:38.000Z</time>
      </trkpt>
      <trkpt lat="38.956403" lon="1.404373">
        <ele>96.718367</ele>
        <time>2023-05-07T12:02:41.000Z</time>
      </trkpt>
      <trkpt lat="38.955722" lon="1.405054">
        <ele>91.179615</ele>
        <time>2023-05-07T12:02:51.000Z</time>
      </trkpt>
      <trkpt lat="38.955674" lon="1.405113">
        <ele>90.748213</ele>
        <time>2023-05-07T12:02:52.000Z</time>
      </trkpt>
      <trkpt lat="38.955666" lon="1.405103">
        <ele>90.731858</ele>
        <time>2023-05-07T12:02:52.000Z</time>
      </trkpt>
      <trkpt lat="38.955048" lon="1.405627">
        <ele>86.076804</ele>
        <time>2023-05-07T12:03:00.000Z</time>
      </trkpt>
      <trkpt lat="38.954893" lon="1.405743">
        <ele>85.090424</ele>
        <time>2023-05-07T12:03:02.000Z</time>
      </trkpt>
      <trkpt lat="38.954899" lon="1.405735">
        <ele>85.077993</ele>
        <time>2023-05-07T12:03:02.000Z</time>
      </trkpt>
      <trkpt lat="38.954128" lon="1.406247">
        <ele>80.094544</ele>
        <time>2023-05-07T12:03:12.000Z</time>
      </trkpt>
      <trkpt lat="38.953742" lon="1.406443">
        <ele>77.697229</ele>
        <time>2023-05-07T12:03:17.000Z</time>
      </trkpt>
      <trkpt lat="38.953691" lon="1.406472">
        <ele>77.32614</ele>
        <time>2023-05-07T12:03:18.000Z</time>
      </trkpt>
      <trkpt lat="38.953467" lon="1.406596">
        <ele>76.340465</ele>
        <time>2023-05-07T12:03:21.000Z</time>
      </trkpt>
      <trkpt lat="38.952361" lon="1.407013">
        <ele>72.117018</ele>
        <time>2023-05-07T12:03:34.000Z</time>
      </trkpt>
      <trkpt lat="38.952365" lon="1.407019">
        <ele>72.101918</ele>
        <time>2023-05-07T12:03:34.000Z</time>
      </trkpt>
      <trkpt lat="38.952182" lon="1.407097">
        <ele>71.36227</ele>
        <time>2023-05-07T12:03:36.000Z</time>
      </trkpt>
      <trkpt lat="38.95155" lon="1.407343">
        <ele>69.384944</ele>
        <time>2023-05-07T12:03:43.000Z</time>
      </trkpt>
      <trkpt lat="38.951281" lon="1.407442">
        <ele>68.705653</ele>
        <time>2023-05-07T12:03:46.000Z</time>
      </trkpt>
      <trkpt lat="38.950626" lon="1.40773">
        <ele>66.890706</ele>
        <time>2023-05-07T12:03:54.000Z</time>
      </trkpt>
      <trkpt lat="38.950289" lon="1.407874">
        <ele>65.970121</ele>
        <time>2023-05-07T12:03:58.000Z</time>
      </trkpt>
      <trkpt lat="38.950128" lon="1.407884">
        <ele>65.556158</ele>
        <time>2023-05-07T12:04:00.000Z</time>
      </trkpt>
      <trkpt lat="38.950069" lon="1.407854">
        <ele>65.38981</ele>
        <time>2023-05-07T12:04:01.000Z</time>
      </trkpt>
      <trkpt lat="38.949974" lon="1.407782">
        <ele>65.105414</ele>
        <time>2023-05-07T12:04:02.000Z</time>
      </trkpt>
      <trkpt lat="38.949931" lon="1.407775">
        <ele>65.015677</ele>
        <time>2023-05-07T12:04:02.000Z</time>
      </trkpt>
      <trkpt lat="38.949935" lon="1.407773">
        <ele>65.007592</ele>
        <time>2023-05-07T12:04:02.000Z</time>
      </trkpt>
      <trkpt lat="38.949866" lon="1.407748">
        <ele>64.820405</ele>
        <time>2023-05-07T12:04:03.000Z</time>
      </trkpt>
      <trkpt lat="38.949764" lon="1.407792">
        <ele>64.535699</ele>
        <time>2023-05-07T12:04:04.000Z</time>
      </trkpt>
      <trkpt lat="38.949718" lon="1.407844">
        <ele>64.396882</ele>
        <time>2023-05-07T12:04:05.000Z</time>
      </trkpt>
      <trkpt lat="38.949725" lon="1.40784">
        <ele>64.390273</ele>
        <time>2023-05-07T12:04:05.000Z</time>
      </trkpt>
      <trkpt lat="38.949692" lon="1.407904">
        <ele>64.251472</ele>
        <time>2023-05-07T12:04:06.000Z</time>
      </trkpt>
      <trkpt lat="38.949597" lon="1.407999">
        <ele>63.958819</ele>
        <time>2023-05-07T12:04:07.000Z</time>
      </trkpt>
      <trkpt lat="38.949595" lon="1.407995">
        <ele>63.955521</ele>
        <time>2023-05-07T12:04:07.000Z</time>
      </trkpt>
      <trkpt lat="38.949589" lon="1.407997">
        <ele>63.934419</ele>
        <time>2023-05-07T12:04:07.000Z</time>
      </trkpt>
      <trkpt lat="38.949401" lon="1.408151">
        <ele>63.335991</ele>
        <time>2023-05-07T12:04:09.000Z</time>
      </trkpt>
      <trkpt lat="38.94888" lon="1.408421">
        <ele>61.892296</ele>
        <time>2023-05-07T12:04:15.000Z</time>
      </trkpt>
      <trkpt lat="38.948879" lon="1.40842">
        <ele>61.886714</ele>
        <time>2023-05-07T12:04:15.000Z</time>
      </trkpt>
      <trkpt lat="38.948742" lon="1.408481">
        <ele>61.522606</ele>
        <time>2023-05-07T12:04:17.000Z</time>
      </trkpt>
      <trkpt lat="38.945148" lon="1.410593">
        <ele>51.280602</ele>
        <time>2023-05-07T12:05:01.000Z</time>
      </trkpt>
      <trkpt lat="38.944425" lon="1.410987">
        <ele>49.448138</ele>
        <time>2023-05-07T12:05:10.000Z</time>
      </trkpt>
      <trkpt lat="38.944327" lon="1.411044">
        <ele>49.191266</ele>
        <time>2023-05-07T12:05:11.000Z</time>
      </trkpt>
      <trkpt lat="38.943473" lon="1.4115">
        <ele>47.184906</ele>
        <time>2023-05-07T12:05:21.000Z</time>
      </trkpt>
      <trkpt lat="38.943319" lon="1.411598">
        <ele>46.892954</ele>
        <time>2023-05-07T12:05:23.000Z</time>
      </trkpt>
      <trkpt lat="38.943232" lon="1.411641">
        <ele>46.726277</ele>
        <time>2023-05-07T12:05:24.000Z</time>
      </trkpt>
      <trkpt lat="38.94297" lon="1.411682">
        <ele>46.264689</ele>
        <time>2023-05-07T12:05:27.000Z</time>
      </trkpt>
      <trkpt lat="38.942834" lon="1.411629">
        <ele>46.049978</ele>
        <time>2023-05-07T12:05:29.000Z</time>
      </trkpt>
      <trkpt lat="38.942728" lon="1.411676">
        <ele>45.836339</ele>
        <time>2023-05-07T12:05:30.000Z</time>
      </trkpt>
      <trkpt lat="38.942659" lon="1.411749">
        <ele>45.692243</ele>
        <time>2023-05-07T12:05:31.000Z</time>
      </trkpt>
      <trkpt lat="38.942615" lon="1.411833">
        <ele>45.550194</ele>
        <time>2023-05-07T12:05:32.000Z</time>
      </trkpt>
      <trkpt lat="38.942472" lon="1.412018">
        <ele>45.201401</ele>
        <time>2023-05-07T12:05:34.000Z</time>
      </trkpt>
      <trkpt lat="38.942358" lon="1.412139">
        <ele>44.952491</ele>
        <time>2023-05-07T12:05:36.000Z</time>
      </trkpt>
      <trkpt lat="38.941725" lon="1.412511">
        <ele>44.19657</ele>
        <time>2023-05-07T12:05:44.000Z</time>
      </trkpt>
      <trkpt lat="38.938038" lon="1.414713">
        <ele>41.903463</ele>
        <time>2023-05-07T12:06:29.000Z</time>
      </trkpt>
      <trkpt lat="38.936899" lon="1.415373">
        <ele>41.267064</ele>
        <time>2023-05-07T12:06:43.000Z</time>
      </trkpt>
      <trkpt lat="38.935755" lon="1.416079">
        <ele>40.555552</ele>
        <time>2023-05-07T12:06:57.000Z</time>
      </trkpt>
      <trkpt lat="38.934569" lon="1.416788">
        <ele>39.343471</ele>
        <time>2023-05-07T12:07:12.000Z</time>
      </trkpt>
      <trkpt lat="38.934244" lon="1.416962">
        <ele>38.998953</ele>
        <time>2023-05-07T12:07:16.000Z</time>
      </trkpt>
      <trkpt lat="38.933381" lon="1.417487">
        <ele>37.701239</ele>
        <time>2023-05-07T12:07:27.000Z</time>
      </trkpt>
      <trkpt lat="38.932698" lon="1.417906">
        <ele>36.566651</ele>
        <time>2023-05-07T12:07:35.000Z</time>
      </trkpt>
      <trkpt lat="38.931443" lon="1.418676">
        <ele>34.592516</ele>
        <time>2023-05-07T12:07:50.000Z</time>
      </trkpt>
      <trkpt lat="38.92978" lon="1.419716">
        <ele>32.385078</ele>
        <time>2023-05-07T12:08:11.000Z</time>
      </trkpt>
      <trkpt lat="38.92896" lon="1.420235">
        <ele>31.422713</ele>
        <time>2023-05-07T12:08:21.000Z</time>
      </trkpt>
      <trkpt lat="38.928785" lon="1.42029">
        <ele>31.252193</ele>
        <time>2023-05-07T12:08:23.000Z</time>
      </trkpt>
      <trkpt lat="38.928567" lon="1.420318">
        <ele>31.042399</ele>
        <time>2023-05-07T12:08:25.000Z</time>
      </trkpt>
      <trkpt lat="38.92847" lon="1.420273">
        <ele>30.942925</ele>
        <time>2023-05-07T12:08:26.000Z</time>
      </trkpt>
      <trkpt lat="38.92838" lon="1.420274">
        <ele>30.846617</ele>
        <time>2023-05-07T12:08:27.000Z</time>
      </trkpt>
      <trkpt lat="38.928283" lon="1.420324">
        <ele>30.749627</ele>
        <time>2023-05-07T12:08:28.000Z</time>
      </trkpt>
      <trkpt lat="38.928186" lon="1.420457">
        <ele>30.605337</ele>
        <time>2023-05-07T12:08:30.000Z</time>
      </trkpt>
      <trkpt lat="38.92816" lon="1.42056">
        <ele>30.525875</ele>
        <time>2023-05-07T12:08:31.000Z</time>
      </trkpt>
      <trkpt lat="38.928033" lon="1.420735">
        <ele>30.341645</ele>
        <time>2023-05-07T12:08:33.000Z</time>
      </trkpt>
      <trkpt lat="38.927881" lon="1.420899">
        <ele>30.147752</ele>
        <time>2023-05-07T12:08:35.000Z</time>
      </trkpt>
      <trkpt lat="38.927573" lon="1.421081">
        <ele>29.807292</ele>
        <time>2023-05-07T12:08:39.000Z</time>
      </trkpt>
      <trkpt lat="38.926921" lon="1.421468">
        <ele>28.895131</ele>
        <time>2023-05-07T12:08:47.000Z</time>
      </trkpt>
      <trkpt lat="38.926439" lon="1.421747">
        <ele>28.228493</ele>
        <time>2023-05-07T12:08:53.000Z</time>
      </trkpt>
      <trkpt lat="38.925115" lon="1.422556">
        <ele>26.403828</ele>
        <time>2023-05-07T12:09:09.000Z</time>
      </trkpt>
      <trkpt lat="38.924727" lon="1.422798">
        <ele>25.879779</ele>
        <time>2023-05-07T12:09:14.000Z</time>
      </trkpt>
      <trkpt lat="38.924314" lon="1.423031">
        <ele>25.342593</ele>
        <time>2023-05-07T12:09:19.000Z</time>
      </trkpt>
      <trkpt lat="38.922976" lon="1.423833">
        <ele>23.145813</ele>
        <time>2023-05-07T12:09:35.000Z</time>
      </trkpt>
      <trkpt lat="38.922478" lon="1.424148">
        <ele>22.20853</ele>
        <time>2023-05-07T12:09:41.000Z</time>
      </trkpt>
      <trkpt lat="38.922298" lon="1.424238">
        <ele>21.848903</ele>
        <time>2023-05-07T12:09:43.000Z</time>
      </trkpt>
      <trkpt lat="38.922096" lon="1.42435">
        <ele>21.440935</ele>
        <time>2023-05-07T12:09:45.000Z</time>
      </trkpt>
      <trkpt lat="38.92183" lon="1.424518">
        <ele>20.870975</ele>
        <time>2023-05-07T12:09:48.000Z</time>
      </trkpt>
      <trkpt lat="38.92159" lon="1.424664">
        <ele>20.361229</ele>
        <time>2023-05-07T12:09:51.000Z</time>
      </trkpt>
      <trkpt lat="38.920624" lon="1.425246">
        <ele>17.872963</ele>
        <time>2023-05-07T12:10:03.000Z</time>
      </trkpt>
      <trkpt lat="38.92046" lon="1.425277">
        <ele>17.415586</ele>
        <time>2023-05-07T12:10:05.000Z</time>
      </trkpt>
      <trkpt lat="38.920294" lon="1.425286">
        <ele>16.89996</ele>
        <time>2023-05-07T12:10:07.000Z</time>
      </trkpt>
      <trkpt lat="38.920222" lon="1.425237">
        <ele>16.712779</ele>
        <time>2023-05-07T12:10:08.000Z</time>
      </trkpt>
      <trkpt lat="38.920154" lon="1.425232">
        <ele>16.487716</ele>
        <time>2023-05-07T12:10:09.000Z</time>
      </trkpt>
      <trkpt lat="38.920041" lon="1.425251">
        <ele>16.147733</ele>
        <time>2023-05-07T12:10:10.000Z</time>
      </trkpt>
      <trkpt lat="38.919941" lon="1.425338">
        <ele>15.809368</ele>
        <time>2023-05-07T12:10:11.000Z</time>
      </trkpt>
      <trkpt lat="38.919887" lon="1.425419">
        <ele>15.58241</ele>
        <time>2023-05-07T12:10:12.000Z</time>
      </trkpt>
      <trkpt lat="38.919867" lon="1.425555">
        <ele>15.273623</ele>
        <time>2023-05-07T12:10:13.000Z</time>
      </trkpt>
      <trkpt lat="38.919736" lon="1.425743">
        <ele>14.726789</ele>
        <time>2023-05-07T12:10:15.000Z</time>
      </trkpt>
      <trkpt lat="38.919546" lon="1.42588">
        <ele>14.111236</ele>
        <time>2023-05-07T12:10:17.000Z</time>
      </trkpt>
      <trkpt lat="38.918969" lon="1.42622">
        <ele>11.844821</ele>
        <time>2023-05-07T12:10:24.000Z</time>
      </trkpt>
      <trkpt lat="38.918676" lon="1.426396">
        <ele>10.715703</ele>
        <time>2023-05-07T12:10:28.000Z</time>
      </trkpt>
      <trkpt lat="38.918286" lon="1.426648">
        <ele>9.158685</ele>
        <time>2023-05-07T12:10:33.000Z</time>
      </trkpt>
      <trkpt lat="38.916281" lon="1.427816">
        <ele>2.95707</ele>
        <time>2023-05-07T12:10:57.000Z</time>
      </trkpt>
      <trkpt lat="38.916142" lon="1.427859">
        <ele>2.940316</ele>
        <time>2023-05-07T12:10:59.000Z</time>
      </trkpt>
      <trkpt lat="38.915974" lon="1.427849">
        <ele>2.953123</ele>
        <time>2023-05-07T12:11:01.000Z</time>
      </trkpt>
      <trkpt lat="38.915939" lon="1.427828">
        <ele>2.955403</ele>
        <time>2023-05-07T12:11:01.000Z</time>
      </trkpt>
      <trkpt lat="38.915802" lon="1.427719">
        <ele>2.967861</ele>
        <time>2023-05-07T12:11:03.000Z</time>
      </trkpt>
      <trkpt lat="38.915701" lon="1.427585">
        <ele>2.976919</ele>
        <time>2023-05-07T12:11:05.000Z</time>
      </trkpt>
      <trkpt lat="38.915425" lon="1.426962">
        <ele>3.018062</ele>
        <time>2023-05-07T12:11:11.000Z</time>
      </trkpt>
      <trkpt lat="38.915098" lon="1.426362">
        <ele>3.058412</ele>
        <time>2023-05-07T12:11:17.000Z</time>
      </trkpt>
      <trkpt lat="38.914861" lon="1.425934">
        <ele>3.366843</ele>
        <time>2023-05-07T12:11:22.000Z</time>
      </trkpt>
      <trkpt lat="38.914732" lon="1.425725">
        <ele>3.535829</ele>
        <time>2023-05-07T12:11:24.000Z</time>
      </trkpt>
      <trkpt lat="38.914492" lon="1.425392">
        <ele>3.821384</ele>
        <time>2023-05-07T12:11:28.000Z</time>
      </trkpt>
      <trkpt lat="38.914297" lon="1.425133">
        <ele>4.048873</ele>
        <time>2023-05-07T12:11:31.000Z</time>
      </trkpt>
      <trkpt lat="38.914064" lon="1.424863">
        <ele>4.303635</ele>
        <time>2023-05-07T12:11:34.000Z</time>
      </trkpt>
      <trkpt lat="38.913737" lon="1.424515">
        <ele>4.613287</ele>
        <time>2023-05-07T12:11:39.000Z</time>
      </trkpt>
      <trkpt lat="38.913708" lon="1.424475">
        <ele>4.650691</ele>
        <time>2023-05-07T12:11:39.000Z</time>
      </trkpt>
      <trkpt lat="38.913609" lon="1.424328">
        <ele>4.738429</ele>
        <time>2023-05-07T12:11:41.000Z</time>
      </trkpt>
      <trkpt lat="38.913571" lon="1.42425">
        <ele>4.778913</ele>
        <time>2023-05-07T12:11:42.000Z</time>
      </trkpt>
      <trkpt lat="38.913517" lon="1.424096">
        <ele>4.866802</ele>
        <time>2023-05-07T12:11:43.000Z</time>
      </trkpt>
      <trkpt lat="38.913511" lon="1.424072">
        <ele>4.880195</ele>
        <time>2023-05-07T12:11:43.000Z</time>
      </trkpt>
      <trkpt lat="38.913396" lon="1.423912">
        <ele>4.982036</ele>
        <time>2023-05-07T12:11:45.000Z</time>
      </trkpt>
      <trkpt lat="38.913219" lon="1.423876">
        <ele>5.083516</ele>
        <time>2023-05-07T12:11:47.000Z</time>
      </trkpt>
      <trkpt lat="38.913159" lon="1.423892">
        <ele>5.122282</ele>
        <time>2023-05-07T12:11:48.000Z</time>
      </trkpt>
      <trkpt lat="38.91291" lon="1.423908">
        <ele>5.281838</ele>
        <time>2023-05-07T12:11:51.000Z</time>
      </trkpt>
      <trkpt lat="38.912798" lon="1.42386">
        <ele>5.356634</ele>
        <time>2023-05-07T12:11:52.000Z</time>
      </trkpt>
      <trkpt lat="38.910656" lon="1.422727">
        <ele>7.686184</ele>
        <time>2023-05-07T12:12:18.000Z</time>
      </trkpt>
      <trkpt lat="38.910366" lon="1.422583">
        <ele>7.985974</ele>
        <time>2023-05-07T12:12:21.000Z</time>
      </trkpt>
      <trkpt lat="38.907069" lon="1.420837">
        <ele>10.786163</ele>
        <time>2023-05-07T12:13:01.000Z</time>
      </trkpt>
      <trkpt lat="38.907038" lon="1.420815">
        <ele>10.785968</ele>
        <time>2023-05-07T12:13:01.000Z</time>
      </trkpt>
      <trkpt lat="38.906912" lon="1.42069">
        <ele>10.785272</ele>
        <time>2023-05-07T12:13:03.000Z</time>
      </trkpt>
      <trkpt lat="38.906835" lon="1.420583">
        <ele>10.784692</ele>
        <time>2023-05-07T12:13:04.000Z</time>
      </trkpt>
      <trkpt lat="38.906799" lon="1.420483">
        <ele>10.784339</ele>
        <time>2023-05-07T12:13:05.000Z</time>
      </trkpt>
      <trkpt lat="38.906755" lon="1.420357">
        <ele>10.783804</ele>
        <time>2023-05-07T12:13:06.000Z</time>
      </trkpt>
      <trkpt lat="38.906709" lon="1.420204">
        <ele>10.783213</ele>
        <time>2023-05-07T12:13:07.000Z</time>
      </trkpt>
      <trkpt lat="38.906703" lon="1.420203">
        <ele>10.783176</ele>
        <time>2023-05-07T12:13:07.000Z</time>
      </trkpt>
      <trkpt lat="38.906602" lon="1.420099">
        <ele>10.782555</ele>
        <time>2023-05-07T12:13:08.000Z</time>
      </trkpt>
      <trkpt lat="38.906547" lon="1.4201">
        <ele>10.782344</ele>
        <time>2023-05-07T12:13:09.000Z</time>
      </trkpt>
      <trkpt lat="38.906457" lon="1.420093">
        <ele>10.781891</ele>
        <time>2023-05-07T12:13:10.000Z</time>
      </trkpt>
      <trkpt lat="38.906387" lon="1.420108">
        <ele>10.781551</ele>
        <time>2023-05-07T12:13:11.000Z</time>
      </trkpt>
      <trkpt lat="38.906364" lon="1.420119">
        <ele>10.781466</ele>
        <time>2023-05-07T12:13:11.000Z</time>
      </trkpt>
      <trkpt lat="38.906284" lon="1.420241">
        <ele>10.780877</ele>
        <time>2023-05-07T12:13:12.000Z</time>
      </trkpt>
      <trkpt lat="38.906252" lon="1.420275">
        <ele>10.780728</ele>
        <time>2023-05-07T12:13:12.000Z</time>
      </trkpt>
      <trkpt lat="38.906238" lon="1.420444">
        <ele>10.780099</ele>
        <time>2023-05-07T12:13:13.000Z</time>
      </trkpt>
      <trkpt lat="38.906243" lon="1.420473">
        <ele>10.779941</ele>
        <time>2023-05-07T12:13:13.000Z</time>
      </trkpt>
      <trkpt lat="38.906239" lon="1.420472">
        <ele>10.779931</ele>
        <time>2023-05-07T12:13:13.000Z</time>
      </trkpt>
      <trkpt lat="38.906251" lon="1.420473">
        <ele>10.779933</ele>
        <time>2023-05-07T12:13:13.000Z</time>
      </trkpt>
      <trkpt lat="38.906216" lon="1.420671">
        <ele>10.765093</ele>
        <time>2023-05-07T12:13:15.000Z</time>
      </trkpt>
      <trkpt lat="38.906225" lon="1.420669">
        <ele>10.765091</ele>
        <time>2023-05-07T12:13:15.000Z</time>
      </trkpt>
      <trkpt lat="38.906227" lon="1.420674">
        <ele>10.765086</ele>
        <time>2023-05-07T12:13:15.000Z</time>
      </trkpt>
      <trkpt lat="38.905611" lon="1.420868">
        <ele>10.344992</ele>
        <time>2023-05-07T12:13:22.000Z</time>
      </trkpt>
      <trkpt lat="38.904978" lon="1.421066">
        <ele>9.924754</ele>
        <time>2023-05-07T12:13:29.000Z</time>
      </trkpt>
      <trkpt lat="38.904896" lon="1.420861">
        <ele>9.804599</ele>
        <time>2023-05-07T12:13:31.000Z</time>
      </trkpt>
      <trkpt lat="38.904722" lon="1.420588">
        <ele>9.615472</ele>
        <time>2023-05-07T12:13:34.000Z</time>
      </trkpt>
      <trkpt lat="38.904576" lon="1.420406">
        <ele>9.52387726077</ele>
        <time>2023-05-07T12:13:36.000Z</time>
      </trkpt>
      <trkpt lat="38.904132" lon="1.419948">
        <ele>9.26749740607</ele>
        <time>2023-05-07T12:13:42.000Z</time>
      </trkpt>
      <trkpt lat="38.904002" lon="1.419855">
        <ele>9.2004986487</ele>
        <time>2023-05-07T12:13:44.000Z</time>
      </trkpt>
      <trkpt lat="38.903918" lon="1.419779">
        <ele>9.15423854673</ele>
        <time>2023-05-07T12:13:45.000Z</time>
      </trkpt>
      <trkpt lat="38.903662" lon="1.419615">
        <ele>9.02543122725</ele>
        <time>2023-05-07T12:13:48.000Z</time>
      </trkpt>
      <trkpt lat="38.903497" lon="1.419543">
        <ele>8.94696506864</ele>
        <time>2023-05-07T12:13:50.000Z</time>
      </trkpt>
      <trkpt lat="38.903209" lon="1.419468">
        <ele>8.8146430021</ele>
        <time>2023-05-07T12:13:53.000Z</time>
      </trkpt>
      <trkpt lat="38.90297" lon="1.419421">
        <ele>8.70576887385</ele>
        <time>2023-05-07T12:13:56.000Z</time>
      </trkpt>
      <trkpt lat="38.902656" lon="1.419381">
        <ele>8.56368228597</ele>
        <time>2023-05-07T12:14:00.000Z</time>
      </trkpt>
      <trkpt lat="38.902536" lon="1.419384">
        <ele>8.50963633086</ele>
        <time>2023-05-07T12:14:01.000Z</time>
      </trkpt>
      <trkpt lat="38.902435" lon="1.419379">
        <ele>8.46412251988</ele>
        <time>2023-05-07T12:14:02.000Z</time>
      </trkpt>
    </trkseg>
  </trk>
</gpx>

<!--
Performance optimized by W3 Total Cache. Learn more: https://www.boldgrid.com/w3-total-cache/?utm_source=w3tc&utm_medium=footer_comment&utm_campaign=free_plugin

Page Caching using Disk: Enhanced{w3tc_pagecache_reject_reason} 

Served from: www.aquabike.world @ 2026-05-10 04:29:08 by W3 Total Cache
-->